<?xml version="1.0" encoding="UTF-8" standalone="no" ?>
<gpx xmlns="http://www.topografix.com/GPX/1/1" creator="www.cicloide.com" version="1.1" xmlns:xsi="http://www.w3.org/2001/XMLSchema-instance" xsi:schemaLocation="http://www.topografix.com/GPX/1/1 http://www.topografix.com/GPX/1/1/gpx.xsd">
  <trk>
    <name>www.cicloide.com 13901</name>
    <desc>www.cicloide.com 13901</desc>
    <trkseg>
      <trkpt lat="41.606996295" lon="2.542432116">
        <ele>130.40</ele>
        <time>2013-06-02T09:17:41Z</time>
      </trkpt>
      <trkpt lat="41.606980202" lon="2.542564383">
        <ele>130.88</ele>
        <time>2013-06-02T09:17:49Z</time>
      </trkpt>
      <trkpt lat="41.606954637" lon="2.542621380">
        <ele>130.88</ele>
        <time>2013-06-02T09:17:53Z</time>
      </trkpt>
      <trkpt lat="41.606821448" lon="2.542642586">
        <ele>130.88</ele>
        <time>2013-06-02T09:17:59Z</time>
      </trkpt>
      <trkpt lat="41.606793956" lon="2.542650884">
        <ele>130.88</ele>
        <time>2013-06-02T09:18:00Z</time>
      </trkpt>
      <trkpt lat="41.606682896" lon="2.542683071">
        <ele>131.84</ele>
        <time>2013-06-02T09:18:06Z</time>
      </trkpt>
      <trkpt lat="41.606635454" lon="2.542615932">
        <ele>131.84</ele>
        <time>2013-06-02T09:18:13Z</time>
      </trkpt>
      <trkpt lat="41.606641992" lon="2.542631773">
        <ele>131.84</ele>
        <time>2013-06-02T09:18:24Z</time>
      </trkpt>
      <trkpt lat="41.606625563" lon="2.542661529">
        <ele>131.84</ele>
        <time>2013-06-02T09:18:36Z</time>
      </trkpt>
      <trkpt lat="41.606613493" lon="2.542671252">
        <ele>131.84</ele>
        <time>2013-06-02T09:18:46Z</time>
      </trkpt>
      <trkpt lat="41.606605614" lon="2.542669240">
        <ele>131.84</ele>
        <time>2013-06-02T09:18:59Z</time>
      </trkpt>
      <trkpt lat="41.606601340" lon="2.542681813">
        <ele>131.84</ele>
        <time>2013-06-02T09:19:15Z</time>
      </trkpt>
      <trkpt lat="41.606594969" lon="2.542699667">
        <ele>131.84</ele>
        <time>2013-06-02T09:19:28Z</time>
      </trkpt>
      <trkpt lat="41.606587174" lon="2.542702097">
        <ele>131.84</ele>
        <time>2013-06-02T09:19:45Z</time>
      </trkpt>
      <trkpt lat="41.606583989" lon="2.542694721">
        <ele>131.84</ele>
        <time>2013-06-02T09:19:58Z</time>
      </trkpt>
      <trkpt lat="41.606584408" lon="2.542688854">
        <ele>131.84</ele>
        <time>2013-06-02T09:20:00Z</time>
      </trkpt>
      <trkpt lat="41.606522298" lon="2.542580225">
        <ele>131.84</ele>
        <time>2013-06-02T09:20:06Z</time>
      </trkpt>
      <trkpt lat="41.606330772" lon="2.542420717">
        <ele>130.88</ele>
        <time>2013-06-02T09:20:12Z</time>
      </trkpt>
      <trkpt lat="41.606292131" lon="2.542397164">
        <ele>129.92</ele>
        <time>2013-06-02T09:20:13Z</time>
      </trkpt>
      <trkpt lat="41.606127259" lon="2.542244446">
        <ele>129.92</ele>
        <time>2013-06-02T09:20:19Z</time>
      </trkpt>
      <trkpt lat="41.606108232" lon="2.542233717">
        <ele>129.92</ele>
        <time>2013-06-02T09:20:20Z</time>
      </trkpt>
      <trkpt lat="41.606072442" lon="2.542209744">
        <ele>129.92</ele>
        <time>2013-06-02T09:20:24Z</time>
      </trkpt>
      <trkpt lat="41.605983929" lon="2.542173702">
        <ele>130.88</ele>
        <time>2013-06-02T09:20:30Z</time>
      </trkpt>
      <trkpt lat="41.605814447" lon="2.542050656">
        <ele>130.88</ele>
        <time>2013-06-02T09:20:37Z</time>
      </trkpt>
      <trkpt lat="41.605787625" lon="2.542040681">
        <ele>130.88</ele>
        <time>2013-06-02T09:20:38Z</time>
      </trkpt>
      <trkpt lat="41.605546058" lon="2.542070940">
        <ele>130.88</ele>
        <time>2013-06-02T09:20:46Z</time>
      </trkpt>
      <trkpt lat="41.605503981" lon="2.542091308">
        <ele>130.88</ele>
        <time>2013-06-02T09:20:47Z</time>
      </trkpt>
      <trkpt lat="41.605426867" lon="2.542149562">
        <ele>129.43</ele>
        <time>2013-06-02T09:20:49Z</time>
      </trkpt>
      <trkpt lat="41.605263839" lon="2.542272190">
        <ele>127.03</ele>
        <time>2013-06-02T09:20:54Z</time>
      </trkpt>
      <trkpt lat="41.605103326" lon="2.542345699">
        <ele>124.15</ele>
        <time>2013-06-02T09:20:59Z</time>
      </trkpt>
      <trkpt lat="41.605077929" lon="2.542335054">
        <ele>124.15</ele>
        <time>2013-06-02T09:21:00Z</time>
      </trkpt>
      <trkpt lat="41.605029565" lon="2.542176804">
        <ele>122.22</ele>
        <time>2013-06-02T09:21:05Z</time>
      </trkpt>
      <trkpt lat="41.604970054" lon="2.542190634">
        <ele>121.74</ele>
        <time>2013-06-02T09:21:10Z</time>
      </trkpt>
      <trkpt lat="41.604903166" lon="2.542353578">
        <ele>121.74</ele>
        <time>2013-06-02T09:21:14Z</time>
      </trkpt>
      <trkpt lat="41.604865280" lon="2.542390207">
        <ele>121.26</ele>
        <time>2013-06-02T09:21:15Z</time>
      </trkpt>
      <trkpt lat="41.604665120" lon="2.542502105">
        <ele>120.30</ele>
        <time>2013-06-02T09:21:20Z</time>
      </trkpt>
      <trkpt lat="41.604460099" lon="2.542438235">
        <ele>119.34</ele>
        <time>2013-06-02T09:21:25Z</time>
      </trkpt>
      <trkpt lat="41.604344345" lon="2.542430691">
        <ele>118.86</ele>
        <time>2013-06-02T09:21:29Z</time>
      </trkpt>
      <trkpt lat="41.604253904" lon="2.542497244">
        <ele>118.86</ele>
        <time>2013-06-02T09:21:33Z</time>
      </trkpt>
      <trkpt lat="41.604064641" lon="2.542583242">
        <ele>118.86</ele>
        <time>2013-06-02T09:21:40Z</time>
      </trkpt>
      <trkpt lat="41.603856015" lon="2.542683071">
        <ele>118.86</ele>
        <time>2013-06-02T09:21:48Z</time>
      </trkpt>
      <trkpt lat="41.603725676" lon="2.542765884">
        <ele>119.82</ele>
        <time>2013-06-02T09:21:54Z</time>
      </trkpt>
      <trkpt lat="41.603606905" lon="2.542843416">
        <ele>119.82</ele>
        <time>2013-06-02T09:21:59Z</time>
      </trkpt>
      <trkpt lat="41.603535659" lon="2.542897563">
        <ele>119.82</ele>
        <time>2013-06-02T09:22:01Z</time>
      </trkpt>
      <trkpt lat="41.603432729" lon="2.543022957">
        <ele>118.38</ele>
        <time>2013-06-02T09:22:04Z</time>
      </trkpt>
      <trkpt lat="41.603348072" lon="2.543168299">
        <ele>116.94</ele>
        <time>2013-06-02T09:22:09Z</time>
      </trkpt>
      <trkpt lat="41.603310688" lon="2.543154301">
        <ele>116.46</ele>
        <time>2013-06-02T09:22:11Z</time>
      </trkpt>
      <trkpt lat="41.602990164" lon="2.542882392">
        <ele>113.57</ele>
        <time>2013-06-02T09:22:19Z</time>
      </trkpt>
      <trkpt lat="41.602943729" lon="2.542841740">
        <ele>113.09</ele>
        <time>2013-06-02T09:22:20Z</time>
      </trkpt>
      <trkpt lat="41.602791513" lon="2.542649627">
        <ele>110.69</ele>
        <time>2013-06-02T09:22:24Z</time>
      </trkpt>
      <trkpt lat="41.602695792" lon="2.542425578">
        <ele>109.25</ele>
        <time>2013-06-02T09:22:28Z</time>
      </trkpt>
      <trkpt lat="41.602669808" lon="2.542322397">
        <ele>108.29</ele>
        <time>2013-06-02T09:22:30Z</time>
      </trkpt>
      <trkpt lat="41.602652793" lon="2.542188622">
        <ele>106.84</ele>
        <time>2013-06-02T09:22:34Z</time>
      </trkpt>
      <trkpt lat="41.602611302" lon="2.542229358">
        <ele>106.36</ele>
        <time>2013-06-02T09:22:39Z</time>
      </trkpt>
      <trkpt lat="41.602596718" lon="2.542316614">
        <ele>105.88</ele>
        <time>2013-06-02T09:22:41Z</time>
      </trkpt>
      <trkpt lat="41.602573081" lon="2.542419627">
        <ele>105.40</ele>
        <time>2013-06-02T09:22:43Z</time>
      </trkpt>
      <trkpt lat="41.602369401" lon="2.542756831">
        <ele>105.40</ele>
        <time>2013-06-02T09:22:51Z</time>
      </trkpt>
      <trkpt lat="41.602137557" lon="2.543019855">
        <ele>104.92</ele>
        <time>2013-06-02T09:22:59Z</time>
      </trkpt>
      <trkpt lat="41.601977128" lon="2.543196378">
        <ele>104.92</ele>
        <time>2013-06-02T09:23:06Z</time>
      </trkpt>
      <trkpt lat="41.601900601" lon="2.543280114">
        <ele>106.36</ele>
        <time>2013-06-02T09:23:10Z</time>
      </trkpt>
      <trkpt lat="41.601741261" lon="2.543427886">
        <ele>106.84</ele>
        <time>2013-06-02T09:23:18Z</time>
      </trkpt>
      <trkpt lat="41.601573623" lon="2.543526709">
        <ele>108.77</ele>
        <time>2013-06-02T09:23:26Z</time>
      </trkpt>
      <trkpt lat="41.601428532" lon="2.543680266">
        <ele>110.21</ele>
        <time>2013-06-02T09:23:34Z</time>
      </trkpt>
      <trkpt lat="41.601317975" lon="2.543881683">
        <ele>110.21</ele>
        <time>2013-06-02T09:23:42Z</time>
      </trkpt>
      <trkpt lat="41.601195180" lon="2.544092488">
        <ele>110.21</ele>
        <time>2013-06-02T09:23:49Z</time>
      </trkpt>
      <trkpt lat="41.601174896" lon="2.544162141">
        <ele>108.77</ele>
        <time>2013-06-02T09:23:51Z</time>
      </trkpt>
      <trkpt lat="41.601226696" lon="2.544306058">
        <ele>108.77</ele>
        <time>2013-06-02T09:23:56Z</time>
      </trkpt>
      <trkpt lat="41.601281849" lon="2.544433463">
        <ele>110.21</ele>
        <time>2013-06-02T09:24:01Z</time>
      </trkpt>
      <trkpt lat="41.601379749" lon="2.544588529">
        <ele>111.17</ele>
        <time>2013-06-02T09:24:08Z</time>
      </trkpt>
      <trkpt lat="41.601474130" lon="2.544737391">
        <ele>112.13</ele>
        <time>2013-06-02T09:24:15Z</time>
      </trkpt>
      <trkpt lat="41.601576640" lon="2.544855492">
        <ele>114.05</ele>
        <time>2013-06-02T09:24:22Z</time>
      </trkpt>
      <trkpt lat="41.601700525" lon="2.545052132">
        <ele>115.50</ele>
        <time>2013-06-02T09:24:31Z</time>
      </trkpt>
      <trkpt lat="41.601828600" lon="2.545225386">
        <ele>116.94</ele>
        <time>2013-06-02T09:24:40Z</time>
      </trkpt>
      <trkpt lat="41.601956843" lon="2.545397298">
        <ele>118.38</ele>
        <time>2013-06-02T09:24:49Z</time>
      </trkpt>
      <trkpt lat="41.602075531" lon="2.545539372">
        <ele>119.82</ele>
        <time>2013-06-02T09:24:57Z</time>
      </trkpt>
      <trkpt lat="41.602137222" lon="2.545730228">
        <ele>121.26</ele>
        <time>2013-06-02T09:25:06Z</time>
      </trkpt>
      <trkpt lat="41.602128840" lon="2.545768533">
        <ele>121.74</ele>
        <time>2013-06-02T09:25:08Z</time>
      </trkpt>
      <trkpt lat="41.602069496" lon="2.545793930">
        <ele>122.71</ele>
        <time>2013-06-02T09:25:12Z</time>
      </trkpt>
      <trkpt lat="41.601915437" lon="2.545820417">
        <ele>124.15</ele>
        <time>2013-06-02T09:25:21Z</time>
      </trkpt>
      <trkpt lat="41.601747463" lon="2.545858303">
        <ele>125.59</ele>
        <time>2013-06-02T09:25:30Z</time>
      </trkpt>
      <trkpt lat="41.601598601" lon="2.545877162">
        <ele>127.03</ele>
        <time>2013-06-02T09:25:39Z</time>
      </trkpt>
      <trkpt lat="41.601443955" lon="2.545911696">
        <ele>128.47</ele>
        <time>2013-06-02T09:25:47Z</time>
      </trkpt>
      <trkpt lat="41.601262989" lon="2.545985457">
        <ele>129.92</ele>
        <time>2013-06-02T09:25:57Z</time>
      </trkpt>
      <trkpt lat="41.601146900" lon="2.546078999">
        <ele>131.84</ele>
        <time>2013-06-02T09:26:06Z</time>
      </trkpt>
      <trkpt lat="41.601031062" lon="2.546156112">
        <ele>133.76</ele>
        <time>2013-06-02T09:26:15Z</time>
      </trkpt>
      <trkpt lat="41.600940538" lon="2.546233812">
        <ele>135.20</ele>
        <time>2013-06-02T09:26:23Z</time>
      </trkpt>
      <trkpt lat="41.600855294" lon="2.546314362">
        <ele>136.64</ele>
        <time>2013-06-02T09:26:31Z</time>
      </trkpt>
      <trkpt lat="41.600783880" lon="2.546343280">
        <ele>138.09</ele>
        <time>2013-06-02T09:26:38Z</time>
      </trkpt>
      <trkpt lat="41.600684722" lon="2.546377730">
        <ele>139.53</ele>
        <time>2013-06-02T09:26:49Z</time>
      </trkpt>
      <trkpt lat="41.600544828" lon="2.546392482">
        <ele>140.49</ele>
        <time>2013-06-02T09:26:59Z</time>
      </trkpt>
      <trkpt lat="41.600441898" lon="2.546319978">
        <ele>141.45</ele>
        <time>2013-06-02T09:27:09Z</time>
      </trkpt>
      <trkpt lat="41.600287168" lon="2.546236578">
        <ele>142.89</ele>
        <time>2013-06-02T09:27:21Z</time>
      </trkpt>
      <trkpt lat="41.600273925" lon="2.546227023">
        <ele>142.89</ele>
        <time>2013-06-02T09:27:22Z</time>
      </trkpt>
      <trkpt lat="41.600188849" lon="2.546157705">
        <ele>144.34</ele>
        <time>2013-06-02T09:27:30Z</time>
      </trkpt>
      <trkpt lat="41.600121793" lon="2.546142114">
        <ele>145.30</ele>
        <time>2013-06-02T09:27:35Z</time>
      </trkpt>
      <trkpt lat="41.600087427" lon="2.546188382">
        <ele>145.30</ele>
        <time>2013-06-02T09:27:39Z</time>
      </trkpt>
      <trkpt lat="41.600165379" lon="2.546343029">
        <ele>147.22</ele>
        <time>2013-06-02T09:27:50Z</time>
      </trkpt>
      <trkpt lat="41.600231764" lon="2.546436068">
        <ele>148.18</ele>
        <time>2013-06-02T09:27:57Z</time>
      </trkpt>
      <trkpt lat="41.600316924" lon="2.546563892">
        <ele>148.66</ele>
        <time>2013-06-02T09:28:05Z</time>
      </trkpt>
      <trkpt lat="41.600453884" lon="2.546707055">
        <ele>149.62</ele>
        <time>2013-06-02T09:28:15Z</time>
      </trkpt>
      <trkpt lat="41.600591096" lon="2.546754245">
        <ele>151.06</ele>
        <time>2013-06-02T09:28:24Z</time>
      </trkpt>
      <trkpt lat="41.600726548" lon="2.546786515">
        <ele>151.54</ele>
        <time>2013-06-02T09:28:33Z</time>
      </trkpt>
      <trkpt lat="41.600862586" lon="2.546827670">
        <ele>152.99</ele>
        <time>2013-06-02T09:28:42Z</time>
      </trkpt>
      <trkpt lat="41.600982531" lon="2.546892211">
        <ele>153.95</ele>
        <time>2013-06-02T09:28:49Z</time>
      </trkpt>
      <trkpt lat="41.601104069" lon="2.546945771">
        <ele>155.39</ele>
        <time>2013-06-02T09:28:56Z</time>
      </trkpt>
      <trkpt lat="41.601267935" lon="2.546988854">
        <ele>156.83</ele>
        <time>2013-06-02T09:29:06Z</time>
      </trkpt>
      <trkpt lat="41.601391652" lon="2.546984747">
        <ele>157.79</ele>
        <time>2013-06-02T09:29:14Z</time>
      </trkpt>
      <trkpt lat="41.601423084" lon="2.546988603">
        <ele>158.27</ele>
        <time>2013-06-02T09:29:16Z</time>
      </trkpt>
      <trkpt lat="41.601594913" lon="2.547030177">
        <ele>159.24</ele>
        <time>2013-06-02T09:29:24Z</time>
      </trkpt>
      <trkpt lat="41.601779901" lon="2.546997320">
        <ele>160.68</ele>
        <time>2013-06-02T09:29:32Z</time>
      </trkpt>
      <trkpt lat="41.601932955" lon="2.546928756">
        <ele>162.60</ele>
        <time>2013-06-02T09:29:40Z</time>
      </trkpt>
      <trkpt lat="41.602046949" lon="2.546958344">
        <ele>163.56</ele>
        <time>2013-06-02T09:29:46Z</time>
      </trkpt>
      <trkpt lat="41.602120793" lon="2.547074853">
        <ele>164.52</ele>
        <time>2013-06-02T09:29:52Z</time>
      </trkpt>
      <trkpt lat="41.602222131" lon="2.547218686">
        <ele>166.45</ele>
        <time>2013-06-02T09:30:00Z</time>
      </trkpt>
      <trkpt lat="41.602297400" lon="2.547320191">
        <ele>167.89</ele>
        <time>2013-06-02T09:30:05Z</time>
      </trkpt>
      <trkpt lat="41.602475683" lon="2.547514819">
        <ele>168.85</ele>
        <time>2013-06-02T09:30:16Z</time>
      </trkpt>
      <trkpt lat="41.602656397" lon="2.547689246">
        <ele>169.33</ele>
        <time>2013-06-02T09:30:25Z</time>
      </trkpt>
      <trkpt lat="41.602862592" lon="2.547866607">
        <ele>170.29</ele>
        <time>2013-06-02T09:30:35Z</time>
      </trkpt>
      <trkpt lat="41.603020507" lon="2.547984792">
        <ele>170.77</ele>
        <time>2013-06-02T09:30:43Z</time>
      </trkpt>
      <trkpt lat="41.603145900" lon="2.548058134">
        <ele>171.73</ele>
        <time>2013-06-02T09:30:50Z</time>
      </trkpt>
      <trkpt lat="41.603273640" lon="2.548139103">
        <ele>173.17</ele>
        <time>2013-06-02T09:30:57Z</time>
      </trkpt>
      <trkpt lat="41.603289985" lon="2.548157794">
        <ele>173.66</ele>
        <time>2013-06-02T09:30:58Z</time>
      </trkpt>
      <trkpt lat="41.603284285" lon="2.548268184">
        <ele>174.14</ele>
        <time>2013-06-02T09:31:04Z</time>
      </trkpt>
      <trkpt lat="41.603229803" lon="2.548256785">
        <ele>174.62</ele>
        <time>2013-06-02T09:31:07Z</time>
      </trkpt>
      <trkpt lat="41.603029643" lon="2.548167015">
        <ele>175.58</ele>
        <time>2013-06-02T09:31:18Z</time>
      </trkpt>
      <trkpt lat="41.602877093" lon="2.548118399">
        <ele>176.54</ele>
        <time>2013-06-02T09:31:25Z</time>
      </trkpt>
      <trkpt lat="41.602825376" lon="2.548254605">
        <ele>177.98</ele>
        <time>2013-06-02T09:31:31Z</time>
      </trkpt>
      <trkpt lat="41.602830741" lon="2.548283188">
        <ele>178.46</ele>
        <time>2013-06-02T09:31:32Z</time>
      </trkpt>
      <trkpt lat="41.602880529" lon="2.548499357">
        <ele>180.38</ele>
        <time>2013-06-02T09:31:41Z</time>
      </trkpt>
      <trkpt lat="41.602892934" lon="2.548702451">
        <ele>181.35</ele>
        <time>2013-06-02T09:31:49Z</time>
      </trkpt>
      <trkpt lat="41.602912045" lon="2.548983244">
        <ele>182.79</ele>
        <time>2013-06-02T09:31:59Z</time>
      </trkpt>
      <trkpt lat="41.602971640" lon="2.549188852">
        <ele>183.27</ele>
        <time>2013-06-02T09:32:06Z</time>
      </trkpt>
      <trkpt lat="41.603037606" lon="2.549488170">
        <ele>184.23</ele>
        <time>2013-06-02T09:32:16Z</time>
      </trkpt>
      <trkpt lat="41.603067278" lon="2.549790589">
        <ele>185.67</ele>
        <time>2013-06-02T09:32:26Z</time>
      </trkpt>
      <trkpt lat="41.603151600" lon="2.550031820">
        <ele>186.63</ele>
        <time>2013-06-02T09:32:35Z</time>
      </trkpt>
      <trkpt lat="41.603192504" lon="2.550274644">
        <ele>188.08</ele>
        <time>2013-06-02T09:32:43Z</time>
      </trkpt>
      <trkpt lat="41.603234664" lon="2.550468685">
        <ele>189.04</ele>
        <time>2013-06-02T09:32:50Z</time>
      </trkpt>
      <trkpt lat="41.603302726" lon="2.550746964">
        <ele>190.96</ele>
        <time>2013-06-02T09:33:00Z</time>
      </trkpt>
      <trkpt lat="41.603349580" lon="2.550941844">
        <ele>191.44</ele>
        <time>2013-06-02T09:33:07Z</time>
      </trkpt>
      <trkpt lat="41.603430633" lon="2.551213920">
        <ele>192.88</ele>
        <time>2013-06-02T09:33:17Z</time>
      </trkpt>
      <trkpt lat="41.603471872" lon="2.551305618">
        <ele>194.32</ele>
        <time>2013-06-02T09:33:21Z</time>
      </trkpt>
      <trkpt lat="41.603488133" lon="2.551503431">
        <ele>194.32</ele>
        <time>2013-06-02T09:33:28Z</time>
      </trkpt>
      <trkpt lat="41.603458294" lon="2.551592782">
        <ele>194.80</ele>
        <time>2013-06-02T09:33:31Z</time>
      </trkpt>
      <trkpt lat="41.603302055" lon="2.551797049">
        <ele>194.80</ele>
        <time>2013-06-02T09:33:39Z</time>
      </trkpt>
      <trkpt lat="41.603109858" lon="2.551948929">
        <ele>195.77</ele>
        <time>2013-06-02T09:33:48Z</time>
      </trkpt>
      <trkpt lat="41.602999887" lon="2.551997796">
        <ele>196.25</ele>
        <time>2013-06-02T09:33:53Z</time>
      </trkpt>
      <trkpt lat="41.602899891" lon="2.551947840">
        <ele>197.21</ele>
        <time>2013-06-02T09:33:58Z</time>
      </trkpt>
      <trkpt lat="41.602742228" lon="2.551845748">
        <ele>199.13</ele>
        <time>2013-06-02T09:34:07Z</time>
      </trkpt>
      <trkpt lat="41.602664276" lon="2.551897213">
        <ele>200.57</ele>
        <time>2013-06-02T09:34:12Z</time>
      </trkpt>
      <trkpt lat="41.602577104" lon="2.552051859">
        <ele>202.49</ele>
        <time>2013-06-02T09:34:20Z</time>
      </trkpt>
      <trkpt lat="41.602502254" lon="2.552161159">
        <ele>203.94</ele>
        <time>2013-06-02T09:34:27Z</time>
      </trkpt>
      <trkpt lat="41.602385997" lon="2.552173732">
        <ele>205.86</ele>
        <time>2013-06-02T09:34:35Z</time>
      </trkpt>
      <trkpt lat="41.602282313" lon="2.552172810">
        <ele>208.26</ele>
        <time>2013-06-02T09:34:43Z</time>
      </trkpt>
      <trkpt lat="41.602139317" lon="2.552227376">
        <ele>210.67</ele>
        <time>2013-06-02T09:34:54Z</time>
      </trkpt>
      <trkpt lat="41.602026329" lon="2.552360732">
        <ele>211.63</ele>
        <time>2013-06-02T09:35:05Z</time>
      </trkpt>
      <trkpt lat="41.601947959" lon="2.552472379">
        <ele>213.07</ele>
        <time>2013-06-02T09:35:13Z</time>
      </trkpt>
      <trkpt lat="41.601891548" lon="2.552588888">
        <ele>214.99</ele>
        <time>2013-06-02T09:35:22Z</time>
      </trkpt>
      <trkpt lat="41.601838407" lon="2.552732721">
        <ele>216.91</ele>
        <time>2013-06-02T09:35:32Z</time>
      </trkpt>
      <trkpt lat="41.601767831" lon="2.552881248">
        <ele>218.36</ele>
        <time>2013-06-02T09:35:41Z</time>
      </trkpt>
      <trkpt lat="41.601722318" lon="2.552951992">
        <ele>219.80</ele>
        <time>2013-06-02T09:35:46Z</time>
      </trkpt>
      <trkpt lat="41.601641516" lon="2.553110074">
        <ele>221.72</ele>
        <time>2013-06-02T09:35:56Z</time>
      </trkpt>
      <trkpt lat="41.601613604" lon="2.553207891">
        <ele>223.16</ele>
        <time>2013-06-02T09:36:02Z</time>
      </trkpt>
      <trkpt lat="41.601598768" lon="2.553349629">
        <ele>224.12</ele>
        <time>2013-06-02T09:36:10Z</time>
      </trkpt>
      <trkpt lat="41.601548058" lon="2.553547442">
        <ele>225.09</ele>
        <time>2013-06-02T09:36:21Z</time>
      </trkpt>
      <trkpt lat="41.601533222" lon="2.553705106">
        <ele>226.05</ele>
        <time>2013-06-02T09:36:29Z</time>
      </trkpt>
      <trkpt lat="41.601572785" lon="2.553754559">
        <ele>226.53</ele>
        <time>2013-06-02T09:36:33Z</time>
      </trkpt>
      <trkpt lat="41.601697172" lon="2.553791188">
        <ele>228.93</ele>
        <time>2013-06-02T09:36:43Z</time>
      </trkpt>
      <trkpt lat="41.601809238" lon="2.553810215">
        <ele>231.33</ele>
        <time>2013-06-02T09:36:52Z</time>
      </trkpt>
      <trkpt lat="41.601918454" lon="2.553795630">
        <ele>233.74</ele>
        <time>2013-06-02T09:37:01Z</time>
      </trkpt>
      <trkpt lat="41.602007805" lon="2.553777861">
        <ele>234.70</ele>
        <time>2013-06-02T09:37:08Z</time>
      </trkpt>
      <trkpt lat="41.602123811" lon="2.553748608">
        <ele>235.66</ele>
        <time>2013-06-02T09:37:16Z</time>
      </trkpt>
      <trkpt lat="41.602242750" lon="2.553799821">
        <ele>237.10</ele>
        <time>2013-06-02T09:37:25Z</time>
      </trkpt>
      <trkpt lat="41.602285414" lon="2.553857656">
        <ele>237.58</ele>
        <time>2013-06-02T09:37:29Z</time>
      </trkpt>
      <trkpt lat="41.602390104" lon="2.553921023">
        <ele>239.51</ele>
        <time>2013-06-02T09:37:38Z</time>
      </trkpt>
      <trkpt lat="41.602482053" lon="2.553930076">
        <ele>239.51</ele>
        <time>2013-06-02T09:37:43Z</time>
      </trkpt>
      <trkpt lat="41.602690847" lon="2.553894201">
        <ele>240.47</ele>
        <time>2013-06-02T09:37:53Z</time>
      </trkpt>
      <trkpt lat="41.602893605" lon="2.553895040">
        <ele>241.43</ele>
        <time>2013-06-02T09:38:02Z</time>
      </trkpt>
      <trkpt lat="41.603067278" lon="2.553849610">
        <ele>242.39</ele>
        <time>2013-06-02T09:38:10Z</time>
      </trkpt>
      <trkpt lat="41.603236676" lon="2.553751709">
        <ele>243.83</ele>
        <time>2013-06-02T09:38:18Z</time>
      </trkpt>
      <trkpt lat="41.603431639" lon="2.553608462">
        <ele>245.27</ele>
        <time>2013-06-02T09:38:28Z</time>
      </trkpt>
      <trkpt lat="41.603573964" lon="2.553548615">
        <ele>247.20</ele>
        <time>2013-06-02T09:38:37Z</time>
      </trkpt>
      <trkpt lat="41.603719390" lon="2.553487092">
        <ele>249.60</ele>
        <time>2013-06-02T09:38:47Z</time>
      </trkpt>
      <trkpt lat="41.603762808" lon="2.553462869">
        <ele>250.08</ele>
        <time>2013-06-02T09:38:50Z</time>
      </trkpt>
      <trkpt lat="41.603863307" lon="2.553367566">
        <ele>252.00</ele>
        <time>2013-06-02T09:38:58Z</time>
      </trkpt>
      <trkpt lat="41.603878562" lon="2.553358179">
        <ele>252.00</ele>
        <time>2013-06-02T09:39:03Z</time>
      </trkpt>
      <trkpt lat="41.603856602" lon="2.553359604">
        <ele>252.00</ele>
        <time>2013-06-02T09:39:12Z</time>
      </trkpt>
      <trkpt lat="41.603830869" lon="2.553385168">
        <ele>252.00</ele>
        <time>2013-06-02T09:39:19Z</time>
      </trkpt>
      <trkpt lat="41.603838832" lon="2.553384330">
        <ele>252.00</ele>
        <time>2013-06-02T09:39:26Z</time>
      </trkpt>
      <trkpt lat="41.603832546" lon="2.553385671">
        <ele>252.00</ele>
        <time>2013-06-02T09:39:50Z</time>
      </trkpt>
      <trkpt lat="41.603836234" lon="2.553396652">
        <ele>252.00</ele>
        <time>2013-06-02T09:40:11Z</time>
      </trkpt>
      <trkpt lat="41.603830869" lon="2.553389946">
        <ele>252.00</ele>
        <time>2013-06-02T09:40:30Z</time>
      </trkpt>
      <trkpt lat="41.603821649" lon="2.553402854">
        <ele>252.00</ele>
        <time>2013-06-02T09:40:51Z</time>
      </trkpt>
      <trkpt lat="41.603838245" lon="2.553394975">
        <ele>252.00</ele>
        <time>2013-06-02T09:41:06Z</time>
      </trkpt>
      <trkpt lat="41.603937152" lon="2.553330937">
        <ele>252.96</ele>
        <time>2013-06-02T09:41:13Z</time>
      </trkpt>
      <trkpt lat="41.604053157" lon="2.553325992">
        <ele>253.93</ele>
        <time>2013-06-02T09:41:21Z</time>
      </trkpt>
      <trkpt lat="41.604173857" lon="2.553354574">
        <ele>254.89</ele>
        <time>2013-06-02T09:41:29Z</time>
      </trkpt>
      <trkpt lat="41.604248791" lon="2.553362370">
        <ele>255.85</ele>
        <time>2013-06-02T09:41:34Z</time>
      </trkpt>
      <trkpt lat="41.604417435" lon="2.553368907">
        <ele>257.77</ele>
        <time>2013-06-02T09:41:45Z</time>
      </trkpt>
      <trkpt lat="41.604544672" lon="2.553340660">
        <ele>259.21</ele>
        <time>2013-06-02T09:41:53Z</time>
      </trkpt>
      <trkpt lat="41.604666377" lon="2.553300343">
        <ele>260.65</ele>
        <time>2013-06-02T09:42:01Z</time>
      </trkpt>
      <trkpt lat="41.604821610" lon="2.553319873">
        <ele>261.62</ele>
        <time>2013-06-02T09:42:10Z</time>
      </trkpt>
      <trkpt lat="41.604991847" lon="2.553417103">
        <ele>262.10</ele>
        <time>2013-06-02T09:42:18Z</time>
      </trkpt>
      <trkpt lat="41.605133249" lon="2.553595973">
        <ele>262.10</ele>
        <time>2013-06-02T09:42:24Z</time>
      </trkpt>
      <trkpt lat="41.605326033" lon="2.553697394">
        <ele>262.10</ele>
        <time>2013-06-02T09:42:30Z</time>
      </trkpt>
      <trkpt lat="41.605531390" lon="2.553725222">
        <ele>262.10</ele>
        <time>2013-06-02T09:42:36Z</time>
      </trkpt>
      <trkpt lat="41.605712020" lon="2.553717176">
        <ele>262.10</ele>
        <time>2013-06-02T09:42:42Z</time>
      </trkpt>
      <trkpt lat="41.605923411" lon="2.553673841">
        <ele>263.54</ele>
        <time>2013-06-02T09:42:50Z</time>
      </trkpt>
      <trkpt lat="41.605968841" lon="2.553649031">
        <ele>264.02</ele>
        <time>2013-06-02T09:42:52Z</time>
      </trkpt>
      <trkpt lat="41.606116195" lon="2.553509807">
        <ele>265.46</ele>
        <time>2013-06-02T09:42:59Z</time>
      </trkpt>
      <trkpt lat="41.606291293" lon="2.553421211">
        <ele>266.90</ele>
        <time>2013-06-02T09:43:07Z</time>
      </trkpt>
      <trkpt lat="41.606488435" lon="2.553302942">
        <ele>268.83</ele>
        <time>2013-06-02T09:43:17Z</time>
      </trkpt>
      <trkpt lat="41.606639561" lon="2.553138489">
        <ele>270.27</ele>
        <time>2013-06-02T09:43:26Z</time>
      </trkpt>
      <trkpt lat="41.606778952" lon="2.553000523">
        <ele>271.71</ele>
        <time>2013-06-02T09:43:33Z</time>
      </trkpt>
      <trkpt lat="41.607106685" lon="2.552932797">
        <ele>268.83</ele>
        <time>2013-06-02T09:43:39Z</time>
      </trkpt>
      <trkpt lat="41.607243980" lon="2.552915446">
        <ele>268.35</ele>
        <time>2013-06-02T09:43:41Z</time>
      </trkpt>
      <trkpt lat="41.607437351" lon="2.553023741">
        <ele>266.90</ele>
        <time>2013-06-02T09:43:44Z</time>
      </trkpt>
      <trkpt lat="41.607893829" lon="2.553331357">
        <ele>265.46</ele>
        <time>2013-06-02T09:43:51Z</time>
      </trkpt>
      <trkpt lat="41.608045290" lon="2.553438393">
        <ele>265.46</ele>
        <time>2013-06-02T09:43:54Z</time>
      </trkpt>
      <trkpt lat="41.608231452" lon="2.553562613">
        <ele>266.42</ele>
        <time>2013-06-02T09:44:00Z</time>
      </trkpt>
      <trkpt lat="41.608254083" lon="2.553579545">
        <ele>266.42</ele>
        <time>2013-06-02T09:44:01Z</time>
      </trkpt>
      <trkpt lat="41.608406299" lon="2.553711476">
        <ele>268.35</ele>
        <time>2013-06-02T09:44:08Z</time>
      </trkpt>
      <trkpt lat="41.608478886" lon="2.553764701">
        <ele>269.31</ele>
        <time>2013-06-02T09:44:12Z</time>
      </trkpt>
      <trkpt lat="41.608537476" lon="2.553794624">
        <ele>269.79</ele>
        <time>2013-06-02T09:44:17Z</time>
      </trkpt>
      <trkpt lat="41.608597322" lon="2.553815663">
        <ele>271.23</ele>
        <time>2013-06-02T09:44:21Z</time>
      </trkpt>
      <trkpt lat="41.608772253" lon="2.553922448">
        <ele>274.11</ele>
        <time>2013-06-02T09:44:33Z</time>
      </trkpt>
      <trkpt lat="41.608877613" lon="2.553970812">
        <ele>275.56</ele>
        <time>2013-06-02T09:44:40Z</time>
      </trkpt>
      <trkpt lat="41.609010299" lon="2.553993443">
        <ele>278.44</ele>
        <time>2013-06-02T09:44:50Z</time>
      </trkpt>
      <trkpt lat="41.609144912" lon="2.554048261">
        <ele>279.88</ele>
        <time>2013-06-02T09:44:59Z</time>
      </trkpt>
      <trkpt lat="41.609293104" lon="2.554049350">
        <ele>282.28</ele>
        <time>2013-06-02T09:45:09Z</time>
      </trkpt>
      <trkpt lat="41.609424197" lon="2.553946588">
        <ele>282.77</ele>
        <time>2013-06-02T09:45:17Z</time>
      </trkpt>
      <trkpt lat="41.609609102" lon="2.553804766">
        <ele>282.77</ele>
        <time>2013-06-02T09:45:25Z</time>
      </trkpt>
      <trkpt lat="41.609833234" lon="2.553768221">
        <ele>282.77</ele>
        <time>2013-06-02T09:45:31Z</time>
      </trkpt>
      <trkpt lat="41.610195500" lon="2.553797558">
        <ele>282.77</ele>
        <time>2013-06-02T09:45:40Z</time>
      </trkpt>
      <trkpt lat="41.610288623" lon="2.553781297">
        <ele>281.80</ele>
        <time>2013-06-02T09:45:42Z</time>
      </trkpt>
      <trkpt lat="41.610426170" lon="2.553776603">
        <ele>281.32</ele>
        <time>2013-06-02T09:45:45Z</time>
      </trkpt>
      <trkpt lat="41.610734289" lon="2.553847514">
        <ele>281.32</ele>
        <time>2013-06-02T09:45:54Z</time>
      </trkpt>
      <trkpt lat="41.610970323" lon="2.553835360">
        <ele>283.25</ele>
        <time>2013-06-02T09:46:02Z</time>
      </trkpt>
      <trkpt lat="41.611188420" lon="2.553887915">
        <ele>284.21</ele>
        <time>2013-06-02T09:46:10Z</time>
      </trkpt>
      <trkpt lat="41.611387574" lon="2.554037700">
        <ele>284.69</ele>
        <time>2013-06-02T09:46:18Z</time>
      </trkpt>
      <trkpt lat="41.611491845" lon="2.554289743">
        <ele>286.13</ele>
        <time>2013-06-02T09:46:26Z</time>
      </trkpt>
      <trkpt lat="41.611544148" lon="2.554422010">
        <ele>286.61</ele>
        <time>2013-06-02T09:46:31Z</time>
      </trkpt>
      <trkpt lat="41.611493102" lon="2.554633401">
        <ele>287.09</ele>
        <time>2013-06-02T09:46:39Z</time>
      </trkpt>
      <trkpt lat="41.611448930" lon="2.554848230">
        <ele>287.57</ele>
        <time>2013-06-02T09:46:46Z</time>
      </trkpt>
      <trkpt lat="41.611447588" lon="2.555053502">
        <ele>289.01</ele>
        <time>2013-06-02T09:46:53Z</time>
      </trkpt>
      <trkpt lat="41.611497796" lon="2.555257853">
        <ele>292.38</ele>
        <time>2013-06-02T09:47:01Z</time>
      </trkpt>
      <trkpt lat="41.611503747" lon="2.555280233">
        <ele>292.38</ele>
        <time>2013-06-02T09:47:02Z</time>
      </trkpt>
      <trkpt lat="41.611490923" lon="2.555422222">
        <ele>292.86</ele>
        <time>2013-06-02T09:47:07Z</time>
      </trkpt>
      <trkpt lat="41.611465861" lon="2.555712572">
        <ele>294.78</ele>
        <time>2013-06-02T09:47:17Z</time>
      </trkpt>
      <trkpt lat="41.611447505" lon="2.555978529">
        <ele>296.22</ele>
        <time>2013-06-02T09:47:27Z</time>
      </trkpt>
      <trkpt lat="41.611470806" lon="2.556185898">
        <ele>298.15</ele>
        <time>2013-06-02T09:47:36Z</time>
      </trkpt>
      <trkpt lat="41.611508273" lon="2.556409275">
        <ele>299.59</ele>
        <time>2013-06-02T09:47:44Z</time>
      </trkpt>
      <trkpt lat="41.611552446" lon="2.556655033">
        <ele>301.51</ele>
        <time>2013-06-02T09:47:53Z</time>
      </trkpt>
      <trkpt lat="41.611637858" lon="2.556910932">
        <ele>301.99</ele>
        <time>2013-06-02T09:48:00Z</time>
      </trkpt>
      <trkpt lat="41.611663423" lon="2.557039008">
        <ele>300.55</ele>
        <time>2013-06-02T09:48:02Z</time>
      </trkpt>
      <trkpt lat="41.611671972" lon="2.557106901">
        <ele>300.55</ele>
        <time>2013-06-02T09:48:03Z</time>
      </trkpt>
      <trkpt lat="41.611770124" lon="2.557401106">
        <ele>298.15</ele>
        <time>2013-06-02T09:48:07Z</time>
      </trkpt>
      <trkpt lat="41.611841538" lon="2.557659771">
        <ele>295.26</ele>
        <time>2013-06-02T09:48:10Z</time>
      </trkpt>
      <trkpt lat="41.611892668" lon="2.557783824">
        <ele>293.82</ele>
        <time>2013-06-02T09:48:12Z</time>
      </trkpt>
      <trkpt lat="41.612052259" lon="2.557833612">
        <ele>291.90</ele>
        <time>2013-06-02T09:48:15Z</time>
      </trkpt>
      <trkpt lat="41.612129373" lon="2.557826320">
        <ele>291.42</ele>
        <time>2013-06-02T09:48:16Z</time>
      </trkpt>
      <trkpt lat="41.612390972" lon="2.557780136">
        <ele>289.01</ele>
        <time>2013-06-02T09:48:19Z</time>
      </trkpt>
      <trkpt lat="41.612784502" lon="2.557714841">
        <ele>285.17</ele>
        <time>2013-06-02T09:48:23Z</time>
      </trkpt>
      <trkpt lat="41.613115923" lon="2.557612497">
        <ele>282.28</ele>
        <time>2013-06-02T09:48:27Z</time>
      </trkpt>
      <trkpt lat="41.613243411" lon="2.557701178">
        <ele>281.80</ele>
        <time>2013-06-02T09:48:30Z</time>
      </trkpt>
      <trkpt lat="41.613290685" lon="2.557821207">
        <ele>281.80</ele>
        <time>2013-06-02T09:48:32Z</time>
      </trkpt>
      <trkpt lat="41.613382886" lon="2.557997478">
        <ele>281.32</ele>
        <time>2013-06-02T09:48:36Z</time>
      </trkpt>
      <trkpt lat="41.613567959" lon="2.558329905">
        <ele>282.28</ele>
        <time>2013-06-02T09:48:46Z</time>
      </trkpt>
      <trkpt lat="41.613723946" lon="2.558602903">
        <ele>283.73</ele>
        <time>2013-06-02T09:48:55Z</time>
      </trkpt>
      <trkpt lat="41.613858308" lon="2.558797782">
        <ele>285.65</ele>
        <time>2013-06-02T09:49:04Z</time>
      </trkpt>
      <trkpt lat="41.613951347" lon="2.558957961">
        <ele>288.05</ele>
        <time>2013-06-02T09:49:13Z</time>
      </trkpt>
      <trkpt lat="41.614015552" lon="2.559058376">
        <ele>289.97</ele>
        <time>2013-06-02T09:49:19Z</time>
      </trkpt>
      <trkpt lat="41.614125187" lon="2.559192654">
        <ele>290.94</ele>
        <time>2013-06-02T09:49:27Z</time>
      </trkpt>
      <trkpt lat="41.614226022" lon="2.559301619">
        <ele>292.86</ele>
        <time>2013-06-02T09:49:34Z</time>
      </trkpt>
      <trkpt lat="41.614355606" lon="2.559425336">
        <ele>293.34</ele>
        <time>2013-06-02T09:49:42Z</time>
      </trkpt>
      <trkpt lat="41.614519137" lon="2.559566654">
        <ele>293.82</ele>
        <time>2013-06-02T09:49:50Z</time>
      </trkpt>
      <trkpt lat="41.614670766" lon="2.559729096">
        <ele>295.26</ele>
        <time>2013-06-02T09:49:58Z</time>
      </trkpt>
      <trkpt lat="41.614727930" lon="2.559873851">
        <ele>296.22</ele>
        <time>2013-06-02T09:50:05Z</time>
      </trkpt>
      <trkpt lat="41.614748969" lon="2.560056660">
        <ele>297.67</ele>
        <time>2013-06-02T09:50:12Z</time>
      </trkpt>
      <trkpt lat="41.614751483" lon="2.560319098">
        <ele>299.59</ele>
        <time>2013-06-02T09:50:21Z</time>
      </trkpt>
      <trkpt lat="41.614741844" lon="2.560529148">
        <ele>301.51</ele>
        <time>2013-06-02T09:50:29Z</time>
      </trkpt>
      <trkpt lat="41.614693397" lon="2.560797788">
        <ele>302.47</ele>
        <time>2013-06-02T09:50:38Z</time>
      </trkpt>
      <trkpt lat="41.614645536" lon="2.561029716">
        <ele>302.47</ele>
        <time>2013-06-02T09:50:44Z</time>
      </trkpt>
      <trkpt lat="41.614604884" lon="2.561296679">
        <ele>302.47</ele>
        <time>2013-06-02T09:50:50Z</time>
      </trkpt>
      <trkpt lat="41.614546630" lon="2.561523913">
        <ele>299.59</ele>
        <time>2013-06-02T09:50:56Z</time>
      </trkpt>
      <trkpt lat="41.614540175" lon="2.561733041">
        <ele>298.15</ele>
        <time>2013-06-02T09:51:00Z</time>
      </trkpt>
      <trkpt lat="41.614455015" lon="2.562105617">
        <ele>294.30</ele>
        <time>2013-06-02T09:51:07Z</time>
      </trkpt>
      <trkpt lat="41.614511845" lon="2.562244086">
        <ele>292.38</ele>
        <time>2013-06-02T09:51:11Z</time>
      </trkpt>
      <trkpt lat="41.614529950" lon="2.562387165">
        <ele>290.94</ele>
        <time>2013-06-02T09:51:14Z</time>
      </trkpt>
      <trkpt lat="41.614563812" lon="2.562636694">
        <ele>287.57</ele>
        <time>2013-06-02T09:51:19Z</time>
      </trkpt>
      <trkpt lat="41.614593652" lon="2.562891001">
        <ele>284.21</ele>
        <time>2013-06-02T09:51:24Z</time>
      </trkpt>
      <trkpt lat="41.614633801" lon="2.563093592">
        <ele>283.73</ele>
        <time>2013-06-02T09:51:29Z</time>
      </trkpt>
      <trkpt lat="41.614692558" lon="2.563321747">
        <ele>283.25</ele>
        <time>2013-06-02T09:51:34Z</time>
      </trkpt>
      <trkpt lat="41.614697588" lon="2.563533474">
        <ele>281.80</ele>
        <time>2013-06-02T09:51:40Z</time>
      </trkpt>
      <trkpt lat="41.614678142" lon="2.563617461">
        <ele>280.36</ele>
        <time>2013-06-02T09:51:42Z</time>
      </trkpt>
      <trkpt lat="41.614623575" lon="2.563798007">
        <ele>278.44</ele>
        <time>2013-06-02T09:51:47Z</time>
      </trkpt>
      <trkpt lat="41.614613517" lon="2.563908313">
        <ele>277.48</ele>
        <time>2013-06-02T09:51:49Z</time>
      </trkpt>
      <trkpt lat="41.614607482" lon="2.564114172">
        <ele>276.04</ele>
        <time>2013-06-02T09:51:53Z</time>
      </trkpt>
      <trkpt lat="41.614591724" lon="2.564295724">
        <ele>275.07</ele>
        <time>2013-06-02T09:51:59Z</time>
      </trkpt>
      <trkpt lat="41.614674621" lon="2.564276865">
        <ele>275.07</ele>
        <time>2013-06-02T09:52:04Z</time>
      </trkpt>
      <trkpt lat="41.614690547" lon="2.564288767">
        <ele>275.07</ele>
        <time>2013-06-02T09:52:05Z</time>
      </trkpt>
      <trkpt lat="41.614775623" lon="2.564354900">
        <ele>273.15</ele>
        <time>2013-06-02T09:52:08Z</time>
      </trkpt>
      <trkpt lat="41.614830273" lon="2.564512983">
        <ele>270.75</ele>
        <time>2013-06-02T09:52:13Z</time>
      </trkpt>
      <trkpt lat="41.614896993" lon="2.564578865">
        <ele>269.31</ele>
        <time>2013-06-02T09:52:16Z</time>
      </trkpt>
      <trkpt lat="41.614945608" lon="2.564682717">
        <ele>267.38</ele>
        <time>2013-06-02T09:52:20Z</time>
      </trkpt>
      <trkpt lat="41.614963462" lon="2.564795956">
        <ele>265.94</ele>
        <time>2013-06-02T09:52:24Z</time>
      </trkpt>
      <trkpt lat="41.615057339" lon="2.564933838">
        <ele>263.06</ele>
        <time>2013-06-02T09:52:29Z</time>
      </trkpt>
      <trkpt lat="41.615086676" lon="2.564999804">
        <ele>262.10</ele>
        <time>2013-06-02T09:52:31Z</time>
      </trkpt>
      <trkpt lat="41.615117940" lon="2.565055041">
        <ele>261.14</ele>
        <time>2013-06-02T09:52:34Z</time>
      </trkpt>
      <trkpt lat="41.615197652" lon="2.565119749">
        <ele>258.73</ele>
        <time>2013-06-02T09:52:40Z</time>
      </trkpt>
      <trkpt lat="41.615260768" lon="2.565151433">
        <ele>257.29</ele>
        <time>2013-06-02T09:52:43Z</time>
      </trkpt>
      <trkpt lat="41.615291613" lon="2.565154366">
        <ele>255.85</ele>
        <time>2013-06-02T09:52:45Z</time>
      </trkpt>
      <trkpt lat="41.615446343" lon="2.565266181">
        <ele>252.96</ele>
        <time>2013-06-02T09:52:50Z</time>
      </trkpt>
      <trkpt lat="41.615568300" lon="2.565379337">
        <ele>251.04</ele>
        <time>2013-06-02T09:52:54Z</time>
      </trkpt>
      <trkpt lat="41.615709786" lon="2.565539515">
        <ele>247.68</ele>
        <time>2013-06-02T09:53:00Z</time>
      </trkpt>
      <trkpt lat="41.615745996" lon="2.565601792">
        <ele>246.72</ele>
        <time>2013-06-02T09:53:02Z</time>
      </trkpt>
      <trkpt lat="41.615863259" lon="2.565863056">
        <ele>243.35</ele>
        <time>2013-06-02T09:53:09Z</time>
      </trkpt>
      <trkpt lat="41.615953700" lon="2.566072604">
        <ele>240.95</ele>
        <time>2013-06-02T09:53:14Z</time>
      </trkpt>
      <trkpt lat="41.616005751" lon="2.566224232">
        <ele>238.06</ele>
        <time>2013-06-02T09:53:19Z</time>
      </trkpt>
      <trkpt lat="41.616017737" lon="2.566280559">
        <ele>237.58</ele>
        <time>2013-06-02T09:53:21Z</time>
      </trkpt>
      <trkpt lat="41.616123517" lon="2.566490190">
        <ele>233.74</ele>
        <time>2013-06-02T09:53:27Z</time>
      </trkpt>
      <trkpt lat="41.616125361" lon="2.566557916">
        <ele>232.78</ele>
        <time>2013-06-02T09:53:29Z</time>
      </trkpt>
      <trkpt lat="41.616045984" lon="2.566747598">
        <ele>230.85</ele>
        <time>2013-06-02T09:53:35Z</time>
      </trkpt>
      <trkpt lat="41.616033076" lon="2.566826388">
        <ele>229.89</ele>
        <time>2013-06-02T09:53:37Z</time>
      </trkpt>
      <trkpt lat="41.616022012" lon="2.567144565">
        <ele>230.37</ele>
        <time>2013-06-02T09:53:45Z</time>
      </trkpt>
      <trkpt lat="41.616010445" lon="2.567232240">
        <ele>230.37</ele>
        <time>2013-06-02T09:53:47Z</time>
      </trkpt>
      <trkpt lat="41.615906007" lon="2.567465425">
        <ele>228.93</ele>
        <time>2013-06-02T09:53:51Z</time>
      </trkpt>
      <trkpt lat="41.615880107" lon="2.567697100">
        <ele>228.45</ele>
        <time>2013-06-02T09:53:55Z</time>
      </trkpt>
      <trkpt lat="41.615904246" lon="2.567735909">
        <ele>228.45</ele>
        <time>2013-06-02T09:53:56Z</time>
      </trkpt>
      <trkpt lat="41.616067107" lon="2.568029024">
        <ele>228.45</ele>
        <time>2013-06-02T09:54:04Z</time>
      </trkpt>
      <trkpt lat="41.616214042" lon="2.568375616">
        <ele>228.45</ele>
        <time>2013-06-02T09:54:13Z</time>
      </trkpt>
      <trkpt lat="41.616266848" lon="2.568601005">
        <ele>227.01</ele>
        <time>2013-06-02T09:54:18Z</time>
      </trkpt>
      <trkpt lat="41.616265087" lon="2.568765542">
        <ele>225.57</ele>
        <time>2013-06-02T09:54:22Z</time>
      </trkpt>
      <trkpt lat="41.616255029" lon="2.568884649">
        <ele>223.64</ele>
        <time>2013-06-02T09:54:28Z</time>
      </trkpt>
      <trkpt lat="41.616261651" lon="2.568934772">
        <ele>223.16</ele>
        <time>2013-06-02T09:54:30Z</time>
      </trkpt>
      <trkpt lat="41.616337004" lon="2.569042815">
        <ele>222.68</ele>
        <time>2013-06-02T09:54:34Z</time>
      </trkpt>
      <trkpt lat="41.616503217" lon="2.569295194">
        <ele>219.80</ele>
        <time>2013-06-02T09:54:41Z</time>
      </trkpt>
      <trkpt lat="41.616555017" lon="2.569426287">
        <ele>218.84</ele>
        <time>2013-06-02T09:54:44Z</time>
      </trkpt>
      <trkpt lat="41.616610673" lon="2.569673469">
        <ele>216.91</ele>
        <time>2013-06-02T09:54:48Z</time>
      </trkpt>
      <trkpt lat="41.616673370" lon="2.570179820">
        <ele>213.55</ele>
        <time>2013-06-02T09:54:56Z</time>
      </trkpt>
      <trkpt lat="41.616684434" lon="2.570231956">
        <ele>213.55</ele>
        <time>2013-06-02T09:54:57Z</time>
      </trkpt>
      <trkpt lat="41.616696336" lon="2.570283588">
        <ele>212.59</ele>
        <time>2013-06-02T09:54:58Z</time>
      </trkpt>
      <trkpt lat="41.616786023" lon="2.570530938">
        <ele>211.63</ele>
        <time>2013-06-02T09:55:04Z</time>
      </trkpt>
      <trkpt lat="41.616786023" lon="2.570763620">
        <ele>209.22</ele>
        <time>2013-06-02T09:55:09Z</time>
      </trkpt>
      <trkpt lat="41.616881995" lon="2.570897982">
        <ele>208.26</ele>
        <time>2013-06-02T09:55:14Z</time>
      </trkpt>
      <trkpt lat="41.616944860" lon="2.571001163">
        <ele>207.78</ele>
        <time>2013-06-02T09:55:17Z</time>
      </trkpt>
      <trkpt lat="41.617040749" lon="2.571364267">
        <ele>206.34</ele>
        <time>2013-06-02T09:55:24Z</time>
      </trkpt>
      <trkpt lat="41.616964222" lon="2.571526038">
        <ele>204.90</ele>
        <time>2013-06-02T09:55:30Z</time>
      </trkpt>
      <trkpt lat="41.616859783" lon="2.571697950">
        <ele>203.94</ele>
        <time>2013-06-02T09:55:35Z</time>
      </trkpt>
      <trkpt lat="41.616796919" lon="2.571900541">
        <ele>201.53</ele>
        <time>2013-06-02T09:55:41Z</time>
      </trkpt>
      <trkpt lat="41.616896412" lon="2.572057702">
        <ele>200.57</ele>
        <time>2013-06-02T09:55:46Z</time>
      </trkpt>
      <trkpt lat="41.617063128" lon="2.572119728">
        <ele>199.61</ele>
        <time>2013-06-02T09:55:50Z</time>
      </trkpt>
      <trkpt lat="41.617182570" lon="2.572344866">
        <ele>197.69</ele>
        <time>2013-06-02T09:55:55Z</time>
      </trkpt>
      <trkpt lat="41.617363117" lon="2.572609231">
        <ele>197.21</ele>
        <time>2013-06-02T09:56:02Z</time>
      </trkpt>
      <trkpt lat="41.617570233" lon="2.572862700">
        <ele>197.21</ele>
        <time>2013-06-02T09:56:10Z</time>
      </trkpt>
      <trkpt lat="41.617710295" lon="2.572967054">
        <ele>197.21</ele>
        <time>2013-06-02T09:56:16Z</time>
      </trkpt>
      <trkpt lat="41.617872401" lon="2.572923049">
        <ele>197.21</ele>
        <time>2013-06-02T09:56:22Z</time>
      </trkpt>
      <trkpt lat="41.617988239" lon="2.572886085">
        <ele>197.21</ele>
        <time>2013-06-02T09:56:26Z</time>
      </trkpt>
      <trkpt lat="41.618098042" lon="2.572990524">
        <ele>195.28</ele>
        <time>2013-06-02T09:56:30Z</time>
      </trkpt>
      <trkpt lat="41.618206671" lon="2.573141147">
        <ele>192.88</ele>
        <time>2013-06-02T09:56:35Z</time>
      </trkpt>
      <trkpt lat="41.618390738" lon="2.573356478">
        <ele>191.44</ele>
        <time>2013-06-02T09:56:41Z</time>
      </trkpt>
      <trkpt lat="41.618499870" lon="2.573438704">
        <ele>190.96</ele>
        <time>2013-06-02T09:56:44Z</time>
      </trkpt>
      <trkpt lat="41.618646637" lon="2.573668284">
        <ele>189.52</ele>
        <time>2013-06-02T09:56:49Z</time>
      </trkpt>
      <trkpt lat="41.618671196" lon="2.573755792">
        <ele>187.59</ele>
        <time>2013-06-02T09:56:52Z</time>
      </trkpt>
      <trkpt lat="41.618710424" lon="2.573926112">
        <ele>185.19</ele>
        <time>2013-06-02T09:56:58Z</time>
      </trkpt>
      <trkpt lat="41.618793405" lon="2.573998699">
        <ele>182.79</ele>
        <time>2013-06-02T09:57:03Z</time>
      </trkpt>
      <trkpt lat="41.618807319" lon="2.574017642">
        <ele>182.79</ele>
        <time>2013-06-02T09:57:04Z</time>
      </trkpt>
      <trkpt lat="41.618878984" lon="2.574072292">
        <ele>180.87</ele>
        <time>2013-06-02T09:57:08Z</time>
      </trkpt>
      <trkpt lat="41.619012591" lon="2.574097941">
        <ele>178.46</ele>
        <time>2013-06-02T09:57:13Z</time>
      </trkpt>
      <trkpt lat="41.619105128" lon="2.574153764">
        <ele>177.02</ele>
        <time>2013-06-02T09:57:16Z</time>
      </trkpt>
      <trkpt lat="41.619218870" lon="2.574209253">
        <ele>173.66</ele>
        <time>2013-06-02T09:57:20Z</time>
      </trkpt>
      <trkpt lat="41.619417521" lon="2.574313691">
        <ele>170.29</ele>
        <time>2013-06-02T09:57:25Z</time>
      </trkpt>
      <trkpt lat="41.619634361" lon="2.574449645">
        <ele>166.93</ele>
        <time>2013-06-02T09:57:31Z</time>
      </trkpt>
      <trkpt lat="41.619726646" lon="2.574537236">
        <ele>165.96</ele>
        <time>2013-06-02T09:57:34Z</time>
      </trkpt>
      <trkpt lat="41.619785151" lon="2.574558778">
        <ele>164.52</ele>
        <time>2013-06-02T09:57:36Z</time>
      </trkpt>
      <trkpt lat="41.619817841" lon="2.574566573">
        <ele>164.04</ele>
        <time>2013-06-02T09:57:37Z</time>
      </trkpt>
      <trkpt lat="41.619912137" lon="2.574520305">
        <ele>163.08</ele>
        <time>2013-06-02T09:57:41Z</time>
      </trkpt>
      <trkpt lat="41.620053624" lon="2.574482838">
        <ele>159.24</ele>
        <time>2013-06-02T09:57:47Z</time>
      </trkpt>
      <trkpt lat="41.620180274" lon="2.574458279">
        <ele>155.87</ele>
        <time>2013-06-02T09:57:51Z</time>
      </trkpt>
      <trkpt lat="41.620355288" lon="2.574374460">
        <ele>152.51</ele>
        <time>2013-06-02T09:57:56Z</time>
      </trkpt>
      <trkpt lat="41.620493003" lon="2.574325426">
        <ele>150.10</ele>
        <time>2013-06-02T09:58:00Z</time>
      </trkpt>
      <trkpt lat="41.620663742" lon="2.574342860">
        <ele>147.22</ele>
        <time>2013-06-02T09:58:05Z</time>
      </trkpt>
      <trkpt lat="41.620710765" lon="2.574338501">
        <ele>146.26</ele>
        <time>2013-06-02T09:58:07Z</time>
      </trkpt>
      <trkpt lat="41.620838757" lon="2.574332634">
        <ele>143.37</ele>
        <time>2013-06-02T09:58:13Z</time>
      </trkpt>
      <trkpt lat="41.621019135" lon="2.574358199">
        <ele>142.89</ele>
        <time>2013-06-02T09:58:20Z</time>
      </trkpt>
      <trkpt lat="41.621212338" lon="2.574380160">
        <ele>139.05</ele>
        <time>2013-06-02T09:58:25Z</time>
      </trkpt>
      <trkpt lat="41.621239160" lon="2.574381082">
        <ele>138.57</ele>
        <time>2013-06-02T09:58:26Z</time>
      </trkpt>
      <trkpt lat="41.621274280" lon="2.574323246">
        <ele>138.09</ele>
        <time>2013-06-02T09:58:31Z</time>
      </trkpt>
      <trkpt lat="41.621243267" lon="2.574281421">
        <ele>137.13</ele>
        <time>2013-06-02T09:58:33Z</time>
      </trkpt>
      <trkpt lat="41.621151402" lon="2.574158374">
        <ele>136.64</ele>
        <time>2013-06-02T09:58:37Z</time>
      </trkpt>
      <trkpt lat="41.620981333" lon="2.574015463">
        <ele>135.20</ele>
        <time>2013-06-02T09:58:43Z</time>
      </trkpt>
      <trkpt lat="41.620977309" lon="2.573886465">
        <ele>133.76</ele>
        <time>2013-06-02T09:58:49Z</time>
      </trkpt>
      <trkpt lat="41.620999689" lon="2.573883951">
        <ele>134.24</ele>
        <time>2013-06-02T09:58:50Z</time>
      </trkpt>
      <trkpt lat="41.621226839" lon="2.573940948">
        <ele>132.32</ele>
        <time>2013-06-02T09:58:57Z</time>
      </trkpt>
      <trkpt lat="41.621279980" lon="2.573954946">
        <ele>131.36</ele>
        <time>2013-06-02T09:59:00Z</time>
      </trkpt>
      <trkpt lat="41.621300348" lon="2.573914461">
        <ele>130.40</ele>
        <time>2013-06-02T09:59:04Z</time>
      </trkpt>
      <trkpt lat="41.621211081" lon="2.573831145">
        <ele>128.95</ele>
        <time>2013-06-02T09:59:10Z</time>
      </trkpt>
      <trkpt lat="41.621164896" lon="2.573788062">
        <ele>128.95</ele>
        <time>2013-06-02T09:59:12Z</time>
      </trkpt>
      <trkpt lat="41.621030451" lon="2.573687982">
        <ele>127.51</ele>
        <time>2013-06-02T09:59:16Z</time>
      </trkpt>
      <trkpt lat="41.620992900" lon="2.573676499">
        <ele>126.55</ele>
        <time>2013-06-02T09:59:17Z</time>
      </trkpt>
      <trkpt lat="41.620803301" lon="2.573698711">
        <ele>125.11</ele>
        <time>2013-06-02T09:59:22Z</time>
      </trkpt>
      <trkpt lat="41.620635663" lon="2.573629225">
        <ele>124.15</ele>
        <time>2013-06-02T09:59:29Z</time>
      </trkpt>
      <trkpt lat="41.620483615" lon="2.573571557">
        <ele>123.19</ele>
        <time>2013-06-02T09:59:35Z</time>
      </trkpt>
      <trkpt lat="41.620269625" lon="2.573440297">
        <ele>121.74</ele>
        <time>2013-06-02T09:59:43Z</time>
      </trkpt>
      <trkpt lat="41.620107687" lon="2.573340384">
        <ele>121.26</ele>
        <time>2013-06-02T09:59:49Z</time>
      </trkpt>
      <trkpt lat="41.620059072" lon="2.573291266">
        <ele>120.78</ele>
        <time>2013-06-02T09:59:52Z</time>
      </trkpt>
      <trkpt lat="41.619974918" lon="2.573045341">
        <ele>117.90</ele>
        <time>2013-06-02T10:00:01Z</time>
      </trkpt>
      <trkpt lat="41.619947928" lon="2.572827077">
        <ele>116.94</ele>
        <time>2013-06-02T10:00:07Z</time>
      </trkpt>
      <trkpt lat="41.619952035" lon="2.572790364">
        <ele>116.94</ele>
        <time>2013-06-02T10:00:08Z</time>
      </trkpt>
      <trkpt lat="41.620043314" lon="2.572750550">
        <ele>116.46</ele>
        <time>2013-06-02T10:00:14Z</time>
      </trkpt>
      <trkpt lat="41.620121517" lon="2.572743006">
        <ele>115.98</ele>
        <time>2013-06-02T10:00:17Z</time>
      </trkpt>
      <trkpt lat="41.620191841" lon="2.572757255">
        <ele>115.50</ele>
        <time>2013-06-02T10:00:19Z</time>
      </trkpt>
      <trkpt lat="41.620302063" lon="2.572632952">
        <ele>115.50</ele>
        <time>2013-06-02T10:00:23Z</time>
      </trkpt>
      <trkpt lat="41.620431899" lon="2.572321564">
        <ele>115.50</ele>
        <time>2013-06-02T10:00:31Z</time>
      </trkpt>
      <trkpt lat="41.620526112" lon="2.572032388">
        <ele>115.50</ele>
        <time>2013-06-02T10:00:38Z</time>
      </trkpt>
      <trkpt lat="41.620677992" lon="2.571950749">
        <ele>115.01</ele>
        <time>2013-06-02T10:00:43Z</time>
      </trkpt>
      <trkpt lat="41.620874128" lon="2.572092403">
        <ele>114.53</ele>
        <time>2013-06-02T10:00:49Z</time>
      </trkpt>
      <trkpt lat="41.621014693" lon="2.572161470">
        <ele>114.05</ele>
        <time>2013-06-02T10:00:53Z</time>
      </trkpt>
      <trkpt lat="41.621161376" lon="2.572168427">
        <ele>113.09</ele>
        <time>2013-06-02T10:00:58Z</time>
      </trkpt>
      <trkpt lat="41.621219630" lon="2.572054600">
        <ele>112.61</ele>
        <time>2013-06-02T10:01:03Z</time>
      </trkpt>
      <trkpt lat="41.621314513" lon="2.571702477">
        <ele>114.05</ele>
        <time>2013-06-02T10:01:13Z</time>
      </trkpt>
      <trkpt lat="41.621421299" lon="2.571457390">
        <ele>115.01</ele>
        <time>2013-06-02T10:01:20Z</time>
      </trkpt>
      <trkpt lat="41.621543004" lon="2.571172405">
        <ele>115.98</ele>
        <time>2013-06-02T10:01:28Z</time>
      </trkpt>
      <trkpt lat="41.621690861" lon="2.570925055">
        <ele>116.46</ele>
        <time>2013-06-02T10:01:36Z</time>
      </trkpt>
      <trkpt lat="41.621831509" lon="2.570664127">
        <ele>117.90</ele>
        <time>2013-06-02T10:01:44Z</time>
      </trkpt>
      <trkpt lat="41.621991352" lon="2.570442509">
        <ele>118.38</ele>
        <time>2013-06-02T10:01:51Z</time>
      </trkpt>
      <trkpt lat="41.622172234" lon="2.570390122">
        <ele>119.34</ele>
        <time>2013-06-02T10:01:57Z</time>
      </trkpt>
      <trkpt lat="41.622366191" lon="2.570473354">
        <ele>120.30</ele>
        <time>2013-06-02T10:02:04Z</time>
      </trkpt>
      <trkpt lat="41.622580600" lon="2.570540493">
        <ele>121.26</ele>
        <time>2013-06-02T10:02:11Z</time>
      </trkpt>
      <trkpt lat="41.622890647" lon="2.570495566">
        <ele>121.74</ele>
        <time>2013-06-02T10:02:20Z</time>
      </trkpt>
      <trkpt lat="41.623197089" lon="2.570440749">
        <ele>122.22</ele>
        <time>2013-06-02T10:02:29Z</time>
      </trkpt>
      <trkpt lat="41.623503783" lon="2.570387524">
        <ele>122.71</ele>
        <time>2013-06-02T10:02:38Z</time>
      </trkpt>
      <trkpt lat="41.623914747" lon="2.570321558">
        <ele>123.19</ele>
        <time>2013-06-02T10:02:50Z</time>
      </trkpt>
      <trkpt lat="41.624197553" lon="2.570280319">
        <ele>123.19</ele>
        <time>2013-06-02T10:02:58Z</time>
      </trkpt>
      <trkpt lat="41.624487734" lon="2.570161631">
        <ele>123.67</ele>
        <time>2013-06-02T10:03:06Z</time>
      </trkpt>
      <trkpt lat="41.624551772" lon="2.569966752">
        <ele>124.15</ele>
        <time>2013-06-02T10:03:11Z</time>
      </trkpt>
      <trkpt lat="41.624499720" lon="2.569629884">
        <ele>125.11</ele>
        <time>2013-06-02T10:03:19Z</time>
      </trkpt>
      <trkpt lat="41.624455967" lon="2.569268540">
        <ele>126.07</ele>
        <time>2013-06-02T10:03:28Z</time>
      </trkpt>
      <trkpt lat="41.624407436" lon="2.568957152">
        <ele>127.99</ele>
        <time>2013-06-02T10:03:36Z</time>
      </trkpt>
      <trkpt lat="41.624444735" lon="2.568696642">
        <ele>129.43</ele>
        <time>2013-06-02T10:03:43Z</time>
      </trkpt>
      <trkpt lat="41.624554203" lon="2.568617769">
        <ele>130.40</ele>
        <time>2013-06-02T10:03:48Z</time>
      </trkpt>
      <trkpt lat="41.624700802" lon="2.568608297">
        <ele>132.32</ele>
        <time>2013-06-02T10:03:55Z</time>
      </trkpt>
      <trkpt lat="41.624844133" lon="2.568548786">
        <ele>134.24</ele>
        <time>2013-06-02T10:04:02Z</time>
      </trkpt>
      <trkpt lat="41.624993247" lon="2.568465805">
        <ele>135.68</ele>
        <time>2013-06-02T10:04:09Z</time>
      </trkpt>
      <trkpt lat="41.625122328" lon="2.568390703">
        <ele>136.64</ele>
        <time>2013-06-02T10:04:16Z</time>
      </trkpt>
      <trkpt lat="41.625284350" lon="2.568335466">
        <ele>138.09</ele>
        <time>2013-06-02T10:04:24Z</time>
      </trkpt>
      <trkpt lat="41.625465567" lon="2.568215354">
        <ele>139.05</ele>
        <time>2013-06-02T10:04:32Z</time>
      </trkpt>
      <trkpt lat="41.625693387" lon="2.568069592">
        <ele>140.01</ele>
        <time>2013-06-02T10:04:42Z</time>
      </trkpt>
      <trkpt lat="41.625895224" lon="2.567979738">
        <ele>140.49</ele>
        <time>2013-06-02T10:04:50Z</time>
      </trkpt>
      <trkpt lat="41.626056910" lon="2.567902541">
        <ele>140.97</ele>
        <time>2013-06-02T10:04:57Z</time>
      </trkpt>
      <trkpt lat="41.626240139" lon="2.567822242">
        <ele>141.93</ele>
        <time>2013-06-02T10:05:05Z</time>
      </trkpt>
      <trkpt lat="41.626408280" lon="2.567682097">
        <ele>142.41</ele>
        <time>2013-06-02T10:05:13Z</time>
      </trkpt>
      <trkpt lat="41.626536523" lon="2.567580341">
        <ele>143.37</ele>
        <time>2013-06-02T10:05:19Z</time>
      </trkpt>
      <trkpt lat="41.626704329" lon="2.567376241">
        <ele>144.82</ele>
        <time>2013-06-02T10:05:28Z</time>
      </trkpt>
      <trkpt lat="41.626859310" lon="2.567224193">
        <ele>145.78</ele>
        <time>2013-06-02T10:05:36Z</time>
      </trkpt>
      <trkpt lat="41.627047819" lon="2.567120677">
        <ele>148.18</ele>
        <time>2013-06-02T10:05:45Z</time>
      </trkpt>
      <trkpt lat="41.627219480" lon="2.567065608">
        <ele>150.10</ele>
        <time>2013-06-02T10:05:53Z</time>
      </trkpt>
      <trkpt lat="41.627434057" lon="2.567052616">
        <ele>150.58</ele>
        <time>2013-06-02T10:06:02Z</time>
      </trkpt>
      <trkpt lat="41.627661877" lon="2.567034427">
        <ele>152.99</ele>
        <time>2013-06-02T10:06:12Z</time>
      </trkpt>
      <trkpt lat="41.627788360" lon="2.567084886">
        <ele>153.95</ele>
        <time>2013-06-02T10:06:18Z</time>
      </trkpt>
      <trkpt lat="41.627920543" lon="2.567107014">
        <ele>155.39</ele>
        <time>2013-06-02T10:06:25Z</time>
      </trkpt>
      <trkpt lat="41.628064963" lon="2.567160156">
        <ele>156.83</ele>
        <time>2013-06-02T10:06:32Z</time>
      </trkpt>
      <trkpt lat="41.628224890" lon="2.567207094">
        <ele>158.75</ele>
        <time>2013-06-02T10:06:40Z</time>
      </trkpt>
      <trkpt lat="41.628412225" lon="2.567319831">
        <ele>160.20</ele>
        <time>2013-06-02T10:06:49Z</time>
      </trkpt>
      <trkpt lat="41.628620180" lon="2.567496941">
        <ele>160.20</ele>
        <time>2013-06-02T10:06:57Z</time>
      </trkpt>
      <trkpt lat="41.628723613" lon="2.567539102">
        <ele>160.20</ele>
        <time>2013-06-02T10:07:00Z</time>
      </trkpt>
      <trkpt lat="41.628888234" lon="2.567472130">
        <ele>160.20</ele>
        <time>2013-06-02T10:07:04Z</time>
      </trkpt>
      <trkpt lat="41.629078838" lon="2.567330141">
        <ele>158.75</ele>
        <time>2013-06-02T10:07:08Z</time>
      </trkpt>
      <trkpt lat="41.629311352" lon="2.567240119">
        <ele>157.79</ele>
        <time>2013-06-02T10:07:12Z</time>
      </trkpt>
      <trkpt lat="41.629613520" lon="2.567147080">
        <ele>156.35</ele>
        <time>2013-06-02T10:07:17Z</time>
      </trkpt>
      <trkpt lat="41.629781661" lon="2.567137022">
        <ele>155.39</ele>
        <time>2013-06-02T10:07:20Z</time>
      </trkpt>
      <trkpt lat="41.630003781" lon="2.567048509">
        <ele>152.99</ele>
        <time>2013-06-02T10:07:24Z</time>
      </trkpt>
      <trkpt lat="41.630235708" lon="2.566755142">
        <ele>151.54</ele>
        <time>2013-06-02T10:07:29Z</time>
      </trkpt>
      <trkpt lat="41.630261525" lon="2.566675933">
        <ele>151.54</ele>
        <time>2013-06-02T10:07:30Z</time>
      </trkpt>
      <trkpt lat="41.630344254" lon="2.566273015">
        <ele>151.54</ele>
        <time>2013-06-02T10:07:36Z</time>
      </trkpt>
      <trkpt lat="41.630437964" lon="2.565915778">
        <ele>151.54</ele>
        <time>2013-06-02T10:07:44Z</time>
      </trkpt>
      <trkpt lat="41.630527482" lon="2.565626435">
        <ele>152.51</ele>
        <time>2013-06-02T10:07:52Z</time>
      </trkpt>
      <trkpt lat="41.630624796" lon="2.565425353">
        <ele>153.47</ele>
        <time>2013-06-02T10:07:59Z</time>
      </trkpt>
      <trkpt lat="41.630714985" lon="2.565294847">
        <ele>153.95</ele>
        <time>2013-06-02T10:08:06Z</time>
      </trkpt>
      <trkpt lat="41.630799224" lon="2.565211699">
        <ele>154.91</ele>
        <time>2013-06-02T10:08:13Z</time>
      </trkpt>
      <trkpt lat="41.630809282" lon="2.565199964">
        <ele>154.91</ele>
        <time>2013-06-02T10:08:14Z</time>
      </trkpt>
      <trkpt lat="41.630762762" lon="2.565166604">
        <ele>155.87</ele>
        <time>2013-06-02T10:08:20Z</time>
      </trkpt>
      <trkpt lat="41.630725295" lon="2.565182530">
        <ele>156.35</ele>
        <time>2013-06-02T10:08:27Z</time>
      </trkpt>
      <trkpt lat="41.630713141" lon="2.565177668">
        <ele>156.35</ele>
        <time>2013-06-02T10:08:34Z</time>
      </trkpt>
      <trkpt lat="41.630702329" lon="2.565193258">
        <ele>156.35</ele>
        <time>2013-06-02T10:08:43Z</time>
      </trkpt>
      <trkpt lat="41.630695707" lon="2.565202562">
        <ele>156.35</ele>
        <time>2013-06-02T10:09:03Z</time>
      </trkpt>
      <trkpt lat="41.630706939" lon="2.565199126">
        <ele>156.35</ele>
        <time>2013-06-02T10:09:28Z</time>
      </trkpt>
      <trkpt lat="41.630706939" lon="2.565198455">
        <ele>156.35</ele>
        <time>2013-06-02T10:09:49Z</time>
      </trkpt>
      <trkpt lat="41.630731665" lon="2.565194264">
        <ele>156.35</ele>
        <time>2013-06-02T10:10:13Z</time>
      </trkpt>
      <trkpt lat="41.630747759" lon="2.565185882">
        <ele>156.35</ele>
        <time>2013-06-02T10:10:28Z</time>
      </trkpt>
      <trkpt lat="41.630749854" lon="2.565186134">
        <ele>156.35</ele>
        <time>2013-06-02T10:10:29Z</time>
      </trkpt>
      <trkpt lat="41.630861417" lon="2.565120671">
        <ele>156.35</ele>
        <time>2013-06-02T10:10:37Z</time>
      </trkpt>
      <trkpt lat="41.631059566" lon="2.565012964">
        <ele>156.35</ele>
        <time>2013-06-02T10:10:45Z</time>
      </trkpt>
      <trkpt lat="41.631324853" lon="2.564812971">
        <ele>157.31</ele>
        <time>2013-06-02T10:10:55Z</time>
      </trkpt>
      <trkpt lat="41.631520905" lon="2.564658996">
        <ele>158.75</ele>
        <time>2013-06-02T10:11:03Z</time>
      </trkpt>
      <trkpt lat="41.631691645" lon="2.564518515">
        <ele>159.72</ele>
        <time>2013-06-02T10:11:10Z</time>
      </trkpt>
      <trkpt lat="41.631860875" lon="2.564383064">
        <ele>160.68</ele>
        <time>2013-06-02T10:11:17Z</time>
      </trkpt>
      <trkpt lat="41.632101688" lon="2.564223975">
        <ele>162.60</ele>
        <time>2013-06-02T10:11:27Z</time>
      </trkpt>
      <trkpt lat="41.632309391" lon="2.564061366">
        <ele>163.56</ele>
        <time>2013-06-02T10:11:36Z</time>
      </trkpt>
      <trkpt lat="41.632498738" lon="2.563905547">
        <ele>164.04</ele>
        <time>2013-06-02T10:11:43Z</time>
      </trkpt>
      <trkpt lat="41.632718596" lon="2.563658616">
        <ele>164.04</ele>
        <time>2013-06-02T10:11:51Z</time>
      </trkpt>
      <trkpt lat="41.632930406" lon="2.563451164">
        <ele>164.04</ele>
        <time>2013-06-02T10:11:58Z</time>
      </trkpt>
      <trkpt lat="41.632998970" lon="2.563370530">
        <ele>164.04</ele>
        <time>2013-06-02T10:12:00Z</time>
      </trkpt>
      <trkpt lat="41.633165770" lon="2.562958727">
        <ele>164.04</ele>
        <time>2013-06-02T10:12:08Z</time>
      </trkpt>
      <trkpt lat="41.633273059" lon="2.562458076">
        <ele>163.08</ele>
        <time>2013-06-02T10:12:17Z</time>
      </trkpt>
      <trkpt lat="41.633335671" lon="2.562001430">
        <ele>163.08</ele>
        <time>2013-06-02T10:12:26Z</time>
      </trkpt>
      <trkpt lat="41.633411025" lon="2.561731616">
        <ele>164.52</ele>
        <time>2013-06-02T10:12:32Z</time>
      </trkpt>
      <trkpt lat="41.633504399" lon="2.561530199">
        <ele>165.48</ele>
        <time>2013-06-02T10:12:38Z</time>
      </trkpt>
      <trkpt lat="41.633682095" lon="2.561403968">
        <ele>165.48</ele>
        <time>2013-06-02T10:12:45Z</time>
      </trkpt>
      <trkpt lat="41.633937073" lon="2.561532881">
        <ele>165.48</ele>
        <time>2013-06-02T10:12:52Z</time>
      </trkpt>
      <trkpt lat="41.634147794" lon="2.561641678">
        <ele>165.48</ele>
        <time>2013-06-02T10:12:59Z</time>
      </trkpt>
      <trkpt lat="41.634382152" lon="2.561723234">
        <ele>165.48</ele>
        <time>2013-06-02T10:13:07Z</time>
      </trkpt>
      <trkpt lat="41.634626484" lon="2.561751397">
        <ele>166.45</ele>
        <time>2013-06-02T10:13:15Z</time>
      </trkpt>
      <trkpt lat="41.634826644" lon="2.561791798">
        <ele>167.41</ele>
        <time>2013-06-02T10:13:22Z</time>
      </trkpt>
      <trkpt lat="41.635066702" lon="2.561786266">
        <ele>168.85</ele>
        <time>2013-06-02T10:13:31Z</time>
      </trkpt>
      <trkpt lat="41.635136272" lon="2.561786266">
        <ele>169.33</ele>
        <time>2013-06-02T10:13:34Z</time>
      </trkpt>
      <trkpt lat="41.635358476" lon="2.561817614">
        <ele>171.25</ele>
        <time>2013-06-02T10:13:43Z</time>
      </trkpt>
      <trkpt lat="41.635589481" lon="2.561838569">
        <ele>171.73</ele>
        <time>2013-06-02T10:13:51Z</time>
      </trkpt>
      <trkpt lat="41.635803807" lon="2.561764138">
        <ele>171.73</ele>
        <time>2013-06-02T10:13:57Z</time>
      </trkpt>
      <trkpt lat="41.636018216" lon="2.561686019">
        <ele>171.73</ele>
        <time>2013-06-02T10:14:04Z</time>
      </trkpt>
      <trkpt lat="41.636225752" lon="2.561624328">
        <ele>173.17</ele>
        <time>2013-06-02T10:14:11Z</time>
      </trkpt>
      <trkpt lat="41.636418368" lon="2.561656682">
        <ele>175.10</ele>
        <time>2013-06-02T10:14:19Z</time>
      </trkpt>
      <trkpt lat="41.636583072" lon="2.561705716">
        <ele>176.54</ele>
        <time>2013-06-02T10:14:27Z</time>
      </trkpt>
      <trkpt lat="41.636733276" lon="2.561739579">
        <ele>177.98</ele>
        <time>2013-06-02T10:14:34Z</time>
      </trkpt>
      <trkpt lat="41.636872332" lon="2.561745782">
        <ele>178.46</ele>
        <time>2013-06-02T10:14:40Z</time>
      </trkpt>
      <trkpt lat="41.637027648" lon="2.561764892">
        <ele>179.90</ele>
        <time>2013-06-02T10:14:47Z</time>
      </trkpt>
      <trkpt lat="41.637173242" lon="2.561871929">
        <ele>180.38</ele>
        <time>2013-06-02T10:14:54Z</time>
      </trkpt>
      <trkpt lat="41.637284302" lon="2.562001262">
        <ele>180.87</ele>
        <time>2013-06-02T10:15:00Z</time>
      </trkpt>
      <trkpt lat="41.637469794" lon="2.562164709">
        <ele>181.35</ele>
        <time>2013-06-02T10:15:08Z</time>
      </trkpt>
      <trkpt lat="41.637598875" lon="2.562207624">
        <ele>182.31</ele>
        <time>2013-06-02T10:15:14Z</time>
      </trkpt>
      <trkpt lat="41.637770872" lon="2.562277530">
        <ele>184.23</ele>
        <time>2013-06-02T10:15:21Z</time>
      </trkpt>
      <trkpt lat="41.637985448" lon="2.562343830">
        <ele>185.19</ele>
        <time>2013-06-02T10:15:30Z</time>
      </trkpt>
      <trkpt lat="41.638037165" lon="2.562352548">
        <ele>185.67</ele>
        <time>2013-06-02T10:15:32Z</time>
      </trkpt>
      <trkpt lat="41.638259788" lon="2.562354811">
        <ele>187.11</ele>
        <time>2013-06-02T10:15:40Z</time>
      </trkpt>
      <trkpt lat="41.638502109" lon="2.562356487">
        <ele>188.08</ele>
        <time>2013-06-02T10:15:48Z</time>
      </trkpt>
      <trkpt lat="41.638686092" lon="2.562437708">
        <ele>189.04</ele>
        <time>2013-06-02T10:15:55Z</time>
      </trkpt>
      <trkpt lat="41.638918186" lon="2.562619763">
        <ele>190.00</ele>
        <time>2013-06-02T10:16:04Z</time>
      </trkpt>
      <trkpt lat="41.639051794" lon="2.562746329">
        <ele>191.44</ele>
        <time>2013-06-02T10:16:11Z</time>
      </trkpt>
      <trkpt lat="41.639172242" lon="2.562829981">
        <ele>193.36</ele>
        <time>2013-06-02T10:16:17Z</time>
      </trkpt>
      <trkpt lat="41.639351112" lon="2.562954368">
        <ele>193.36</ele>
        <time>2013-06-02T10:16:25Z</time>
      </trkpt>
      <trkpt lat="41.639469716" lon="2.562982699">
        <ele>194.32</ele>
        <time>2013-06-02T10:16:31Z</time>
      </trkpt>
      <trkpt lat="41.639652441" lon="2.563058304">
        <ele>196.25</ele>
        <time>2013-06-02T10:16:39Z</time>
      </trkpt>
      <trkpt lat="41.639832065" lon="2.563116893">
        <ele>196.73</ele>
        <time>2013-06-02T10:16:46Z</time>
      </trkpt>
      <trkpt lat="41.640057203" lon="2.563173471">
        <ele>197.69</ele>
        <time>2013-06-02T10:16:55Z</time>
      </trkpt>
      <trkpt lat="41.640159882" lon="2.563175986">
        <ele>198.17</ele>
        <time>2013-06-02T10:16:59Z</time>
      </trkpt>
      <trkpt lat="41.640214029" lon="2.563007845">
        <ele>198.65</ele>
        <time>2013-06-02T10:17:05Z</time>
      </trkpt>
      <trkpt lat="41.640106489" lon="2.562861497">
        <ele>198.65</ele>
        <time>2013-06-02T10:17:12Z</time>
      </trkpt>
      <trkpt lat="41.639947987" lon="2.562809110">
        <ele>199.61</ele>
        <time>2013-06-02T10:17:19Z</time>
      </trkpt>
      <trkpt lat="41.639896941" lon="2.562802237">
        <ele>199.61</ele>
        <time>2013-06-02T10:17:21Z</time>
      </trkpt>
      <trkpt lat="41.639780852" lon="2.562743647">
        <ele>200.09</ele>
        <time>2013-06-02T10:17:26Z</time>
      </trkpt>
      <trkpt lat="41.639623272" lon="2.562558323">
        <ele>200.57</ele>
        <time>2013-06-02T10:17:34Z</time>
      </trkpt>
      <trkpt lat="41.639662332" lon="2.562404851">
        <ele>201.53</ele>
        <time>2013-06-02T10:17:39Z</time>
      </trkpt>
      <trkpt lat="41.639675408" lon="2.562273171">
        <ele>203.46</ele>
        <time>2013-06-02T10:17:44Z</time>
      </trkpt>
      <trkpt lat="41.639541465" lon="2.562127326">
        <ele>204.90</ele>
        <time>2013-06-02T10:17:51Z</time>
      </trkpt>
      <trkpt lat="41.639348765" lon="2.561992629">
        <ele>205.86</ele>
        <time>2013-06-02T10:17:59Z</time>
      </trkpt>
      <trkpt lat="41.639096470" lon="2.561772352">
        <ele>206.34</ele>
        <time>2013-06-02T10:18:10Z</time>
      </trkpt>
      <trkpt lat="41.638907039" lon="2.561675709">
        <ele>207.30</ele>
        <time>2013-06-02T10:18:18Z</time>
      </trkpt>
      <trkpt lat="41.638732695" lon="2.561569762">
        <ele>208.74</ele>
        <time>2013-06-02T10:18:26Z</time>
      </trkpt>
      <trkpt lat="41.638545359" lon="2.561474795">
        <ele>209.70</ele>
        <time>2013-06-02T10:18:34Z</time>
      </trkpt>
      <trkpt lat="41.638408567" lon="2.561356023">
        <ele>211.15</ele>
        <time>2013-06-02T10:18:41Z</time>
      </trkpt>
      <trkpt lat="41.638290550" lon="2.561175393">
        <ele>212.59</ele>
        <time>2013-06-02T10:18:49Z</time>
      </trkpt>
      <trkpt lat="41.638106818" lon="2.561016640">
        <ele>213.07</ele>
        <time>2013-06-02T10:18:58Z</time>
      </trkpt>
      <trkpt lat="41.637917136" lon="2.560857803">
        <ele>214.99</ele>
        <time>2013-06-02T10:19:07Z</time>
      </trkpt>
      <trkpt lat="41.637758718" lon="2.560694942">
        <ele>216.43</ele>
        <time>2013-06-02T10:19:15Z</time>
      </trkpt>
      <trkpt lat="41.637709265" lon="2.560586397">
        <ele>217.40</ele>
        <time>2013-06-02T10:19:19Z</time>
      </trkpt>
      <trkpt lat="41.637770117" lon="2.560476342">
        <ele>218.36</ele>
        <time>2013-06-02T10:19:24Z</time>
      </trkpt>
      <trkpt lat="41.637919986" lon="2.560274758">
        <ele>219.32</ele>
        <time>2013-06-02T10:19:32Z</time>
      </trkpt>
      <trkpt lat="41.638025681" lon="2.560094966">
        <ele>220.28</ele>
        <time>2013-06-02T10:19:39Z</time>
      </trkpt>
      <trkpt lat="41.638135652" lon="2.559878042">
        <ele>222.68</ele>
        <time>2013-06-02T10:19:47Z</time>
      </trkpt>
      <trkpt lat="41.638276300" lon="2.559842335">
        <ele>223.16</ele>
        <time>2013-06-02T10:19:53Z</time>
      </trkpt>
      <trkpt lat="41.638424409" lon="2.559924394">
        <ele>224.12</ele>
        <time>2013-06-02T10:20:00Z</time>
      </trkpt>
      <trkpt lat="41.638596238" lon="2.560009387">
        <ele>225.57</ele>
        <time>2013-06-02T10:20:07Z</time>
      </trkpt>
      <trkpt lat="41.638846270" lon="2.560065629">
        <ele>227.97</ele>
        <time>2013-06-02T10:20:18Z</time>
      </trkpt>
      <trkpt lat="41.639060930" lon="2.560022881">
        <ele>230.37</ele>
        <time>2013-06-02T10:20:28Z</time>
      </trkpt>
      <trkpt lat="41.639150533" lon="2.559995473">
        <ele>231.81</ele>
        <time>2013-06-02T10:20:33Z</time>
      </trkpt>
      <trkpt lat="41.639280452" lon="2.559898494">
        <ele>231.81</ele>
        <time>2013-06-02T10:20:40Z</time>
      </trkpt>
      <trkpt lat="41.639347508" lon="2.559831187">
        <ele>232.30</ele>
        <time>2013-06-02T10:20:44Z</time>
      </trkpt>
      <trkpt lat="41.639454293" lon="2.559665728">
        <ele>232.78</ele>
        <time>2013-06-02T10:20:52Z</time>
      </trkpt>
      <trkpt lat="41.639502070" lon="2.559601942">
        <ele>233.74</ele>
        <time>2013-06-02T10:20:56Z</time>
      </trkpt>
      <trkpt lat="41.639656548" lon="2.559424833">
        <ele>234.70</ele>
        <time>2013-06-02T10:21:06Z</time>
      </trkpt>
      <trkpt lat="41.639787138" lon="2.559290303">
        <ele>236.62</ele>
        <time>2013-06-02T10:21:14Z</time>
      </trkpt>
      <trkpt lat="41.639889398" lon="2.559304636">
        <ele>238.06</ele>
        <time>2013-06-02T10:21:20Z</time>
      </trkpt>
      <trkpt lat="41.639902138" lon="2.559319640">
        <ele>238.06</ele>
        <time>2013-06-02T10:21:21Z</time>
      </trkpt>
      <trkpt lat="41.639998614" lon="2.559499012">
        <ele>239.51</ele>
        <time>2013-06-02T10:21:30Z</time>
      </trkpt>
      <trkpt lat="41.640137167" lon="2.559535474">
        <ele>240.95</ele>
        <time>2013-06-02T10:21:38Z</time>
      </trkpt>
      <trkpt lat="41.640280078" lon="2.559560619">
        <ele>241.91</ele>
        <time>2013-06-02T10:21:46Z</time>
      </trkpt>
      <trkpt lat="41.640446207" lon="2.559607558">
        <ele>243.35</ele>
        <time>2013-06-02T10:21:54Z</time>
      </trkpt>
      <trkpt lat="41.640585096" lon="2.559588699">
        <ele>245.27</ele>
        <time>2013-06-02T10:22:01Z</time>
      </trkpt>
      <trkpt lat="41.640737814" lon="2.559533294">
        <ele>246.72</ele>
        <time>2013-06-02T10:22:09Z</time>
      </trkpt>
      <trkpt lat="41.640931939" lon="2.559623568">
        <ele>247.20</ele>
        <time>2013-06-02T10:22:18Z</time>
      </trkpt>
      <trkpt lat="41.641099744" lon="2.559660867">
        <ele>248.16</ele>
        <time>2013-06-02T10:22:26Z</time>
      </trkpt>
      <trkpt lat="41.641242991" lon="2.559753822">
        <ele>249.12</ele>
        <time>2013-06-02T10:22:34Z</time>
      </trkpt>
      <trkpt lat="41.641300826" lon="2.559911318">
        <ele>250.56</ele>
        <time>2013-06-02T10:22:41Z</time>
      </trkpt>
      <trkpt lat="41.641349944" lon="2.560066467">
        <ele>252.00</ele>
        <time>2013-06-02T10:22:48Z</time>
      </trkpt>
      <trkpt lat="41.641393027" lon="2.560172247">
        <ele>252.00</ele>
        <time>2013-06-02T10:22:53Z</time>
      </trkpt>
      <trkpt lat="41.641480367" lon="2.560212061">
        <ele>252.96</ele>
        <time>2013-06-02T10:22:59Z</time>
      </trkpt>
      <trkpt lat="41.641630067" lon="2.560089937">
        <ele>253.93</ele>
        <time>2013-06-02T10:23:08Z</time>
      </trkpt>
      <trkpt lat="41.641755461" lon="2.559970075">
        <ele>254.41</ele>
        <time>2013-06-02T10:23:15Z</time>
      </trkpt>
      <trkpt lat="41.641915639" lon="2.559926825">
        <ele>255.37</ele>
        <time>2013-06-02T10:23:23Z</time>
      </trkpt>
      <trkpt lat="41.642055365" lon="2.560002262">
        <ele>256.33</ele>
        <time>2013-06-02T10:23:30Z</time>
      </trkpt>
      <trkpt lat="41.642156702" lon="2.560126817">
        <ele>257.29</ele>
        <time>2013-06-02T10:23:37Z</time>
      </trkpt>
      <trkpt lat="41.642282515" lon="2.560228322">
        <ele>259.21</ele>
        <time>2013-06-02T10:23:45Z</time>
      </trkpt>
      <trkpt lat="41.642434395" lon="2.560236452">
        <ele>260.17</ele>
        <time>2013-06-02T10:23:53Z</time>
      </trkpt>
      <trkpt lat="41.642562051" lon="2.560161937">
        <ele>261.14</ele>
        <time>2013-06-02T10:23:59Z</time>
      </trkpt>
      <trkpt lat="41.642734048" lon="2.560122458">
        <ele>262.58</ele>
        <time>2013-06-02T10:24:07Z</time>
      </trkpt>
      <trkpt lat="41.642941835" lon="2.560117010">
        <ele>263.54</ele>
        <time>2013-06-02T10:24:16Z</time>
      </trkpt>
      <trkpt lat="41.643141995" lon="2.560132181">
        <ele>264.98</ele>
        <time>2013-06-02T10:24:25Z</time>
      </trkpt>
      <trkpt lat="41.643278955" lon="2.560186077">
        <ele>266.90</ele>
        <time>2013-06-02T10:24:32Z</time>
      </trkpt>
      <trkpt lat="41.643470482" lon="2.560291689">
        <ele>267.38</ele>
        <time>2013-06-02T10:24:41Z</time>
      </trkpt>
      <trkpt lat="41.643629570" lon="2.560414568">
        <ele>269.31</ele>
        <time>2013-06-02T10:24:50Z</time>
      </trkpt>
      <trkpt lat="41.643784300" lon="2.560559575">
        <ele>271.71</ele>
        <time>2013-06-02T10:24:59Z</time>
      </trkpt>
      <trkpt lat="41.643810033" lon="2.560732577">
        <ele>272.67</ele>
        <time>2013-06-02T10:25:06Z</time>
      </trkpt>
      <trkpt lat="41.643812128" lon="2.560956374">
        <ele>273.63</ele>
        <time>2013-06-02T10:25:14Z</time>
      </trkpt>
      <trkpt lat="41.643816571" lon="2.561176902">
        <ele>276.04</ele>
        <time>2013-06-02T10:25:22Z</time>
      </trkpt>
      <trkpt lat="41.643837777" lon="2.561421821">
        <ele>276.04</ele>
        <time>2013-06-02T10:25:30Z</time>
      </trkpt>
      <trkpt lat="41.643943054" lon="2.561576886">
        <ele>277.00</ele>
        <time>2013-06-02T10:25:38Z</time>
      </trkpt>
      <trkpt lat="41.644109015" lon="2.561629776">
        <ele>278.44</ele>
        <time>2013-06-02T10:25:46Z</time>
      </trkpt>
      <trkpt lat="41.644281347" lon="2.561650731">
        <ele>279.40</ele>
        <time>2013-06-02T10:25:55Z</time>
      </trkpt>
      <trkpt lat="41.644413697" lon="2.561703872">
        <ele>281.32</ele>
        <time>2013-06-02T10:26:03Z</time>
      </trkpt>
      <trkpt lat="41.644493158" lon="2.561723318">
        <ele>282.28</ele>
        <time>2013-06-02T10:26:08Z</time>
      </trkpt>
      <trkpt lat="41.644521740" lon="2.561724240">
        <ele>283.25</ele>
        <time>2013-06-02T10:26:10Z</time>
      </trkpt>
      <trkpt lat="41.644593405" lon="2.561734382">
        <ele>283.73</ele>
        <time>2013-06-02T10:26:14Z</time>
      </trkpt>
      <trkpt lat="41.644753165" lon="2.561633883">
        <ele>285.17</ele>
        <time>2013-06-02T10:26:24Z</time>
      </trkpt>
      <trkpt lat="41.644870260" lon="2.561507987">
        <ele>286.61</ele>
        <time>2013-06-02T10:26:33Z</time>
      </trkpt>
      <trkpt lat="41.644964305" lon="2.561389802">
        <ele>288.05</ele>
        <time>2013-06-02T10:26:41Z</time>
      </trkpt>
      <trkpt lat="41.645082154" lon="2.561255105">
        <ele>289.97</ele>
        <time>2013-06-02T10:26:51Z</time>
      </trkpt>
      <trkpt lat="41.645213080" lon="2.561233983">
        <ele>292.38</ele>
        <time>2013-06-02T10:27:00Z</time>
      </trkpt>
      <trkpt lat="41.645242332" lon="2.561243119">
        <ele>292.38</ele>
        <time>2013-06-02T10:27:02Z</time>
      </trkpt>
      <trkpt lat="41.645331851" lon="2.561275305">
        <ele>293.82</ele>
        <time>2013-06-02T10:27:09Z</time>
      </trkpt>
      <trkpt lat="41.645430925" lon="2.561321909">
        <ele>293.82</ele>
        <time>2013-06-02T10:27:16Z</time>
      </trkpt>
      <trkpt lat="41.645555899" lon="2.561400363">
        <ele>295.26</ele>
        <time>2013-06-02T10:27:24Z</time>
      </trkpt>
      <trkpt lat="41.645696380" lon="2.561436070">
        <ele>296.70</ele>
        <time>2013-06-02T10:27:33Z</time>
      </trkpt>
      <trkpt lat="41.645775505" lon="2.561523745">
        <ele>298.15</ele>
        <time>2013-06-02T10:27:40Z</time>
      </trkpt>
      <trkpt lat="41.645786569" lon="2.561535312">
        <ele>298.63</ele>
        <time>2013-06-02T10:27:41Z</time>
      </trkpt>
      <trkpt lat="41.645815236" lon="2.561698256">
        <ele>299.11</ele>
        <time>2013-06-02T10:27:49Z</time>
      </trkpt>
      <trkpt lat="41.645812469" lon="2.561832283">
        <ele>299.59</ele>
        <time>2013-06-02T10:27:56Z</time>
      </trkpt>
      <trkpt lat="41.645815822" lon="2.561854076">
        <ele>299.59</ele>
        <time>2013-06-02T10:27:57Z</time>
      </trkpt>
      <trkpt lat="41.645848344" lon="2.561996233">
        <ele>301.03</ele>
        <time>2013-06-02T10:28:04Z</time>
      </trkpt>
      <trkpt lat="41.645946077" lon="2.562046189">
        <ele>302.47</ele>
        <time>2013-06-02T10:28:12Z</time>
      </trkpt>
      <trkpt lat="41.645957644" lon="2.562045267">
        <ele>303.43</ele>
        <time>2013-06-02T10:28:13Z</time>
      </trkpt>
      <trkpt lat="41.645989495" lon="2.562021379">
        <ele>303.43</ele>
        <time>2013-06-02T10:28:16Z</time>
      </trkpt>
      <trkpt lat="41.646044313" lon="2.561997658">
        <ele>303.91</ele>
        <time>2013-06-02T10:28:21Z</time>
      </trkpt>
      <trkpt lat="41.646072644" lon="2.561967902">
        <ele>303.91</ele>
        <time>2013-06-02T10:28:24Z</time>
      </trkpt>
      <trkpt lat="41.646154032" lon="2.561953904">
        <ele>304.88</ele>
        <time>2013-06-02T10:28:31Z</time>
      </trkpt>
      <trkpt lat="41.646290070" lon="2.562048536">
        <ele>306.32</ele>
        <time>2013-06-02T10:28:41Z</time>
      </trkpt>
      <trkpt lat="41.646427282" lon="2.562197985">
        <ele>308.24</ele>
        <time>2013-06-02T10:28:51Z</time>
      </trkpt>
      <trkpt lat="41.646511520" lon="2.562268561">
        <ele>309.20</ele>
        <time>2013-06-02T10:28:58Z</time>
      </trkpt>
      <trkpt lat="41.646655521" lon="2.562341232">
        <ele>311.12</ele>
        <time>2013-06-02T10:29:08Z</time>
      </trkpt>
      <trkpt lat="41.646794158" lon="2.562443743">
        <ele>312.09</ele>
        <time>2013-06-02T10:29:17Z</time>
      </trkpt>
      <trkpt lat="41.646904464" lon="2.562484814">
        <ele>312.57</ele>
        <time>2013-06-02T10:29:24Z</time>
      </trkpt>
      <trkpt lat="41.647046118" lon="2.562492609">
        <ele>313.53</ele>
        <time>2013-06-02T10:29:32Z</time>
      </trkpt>
      <trkpt lat="41.647222557" lon="2.562441144">
        <ele>314.01</ele>
        <time>2013-06-02T10:29:41Z</time>
      </trkpt>
      <trkpt lat="41.647407127" lon="2.562343244">
        <ele>314.49</ele>
        <time>2013-06-02T10:29:50Z</time>
      </trkpt>
      <trkpt lat="41.647556241" lon="2.562238135">
        <ele>314.97</ele>
        <time>2013-06-02T10:29:58Z</time>
      </trkpt>
      <trkpt lat="41.647731171" lon="2.562161189">
        <ele>315.45</ele>
        <time>2013-06-02T10:30:06Z</time>
      </trkpt>
      <trkpt lat="41.647941808" lon="2.562100168">
        <ele>315.45</ele>
        <time>2013-06-02T10:30:14Z</time>
      </trkpt>
      <trkpt lat="41.648091258" lon="2.562020708">
        <ele>315.45</ele>
        <time>2013-06-02T10:30:21Z</time>
      </trkpt>
      <trkpt lat="41.648214052" lon="2.561955162">
        <ele>315.93</ele>
        <time>2013-06-02T10:30:29Z</time>
      </trkpt>
      <trkpt lat="41.648268199" lon="2.561932111">
        <ele>316.41</ele>
        <time>2013-06-02T10:30:32Z</time>
      </trkpt>
      <trkpt lat="41.648305667" lon="2.561842090">
        <ele>316.41</ele>
        <time>2013-06-02T10:30:36Z</time>
      </trkpt>
      <trkpt lat="41.648300805" lon="2.561770005">
        <ele>316.89</ele>
        <time>2013-06-02T10:30:39Z</time>
      </trkpt>
      <trkpt lat="41.648186979" lon="2.561562637">
        <ele>318.33</ele>
        <time>2013-06-02T10:30:49Z</time>
      </trkpt>
      <trkpt lat="41.648060747" lon="2.561386198">
        <ele>319.78</ele>
        <time>2013-06-02T10:30:58Z</time>
      </trkpt>
      <trkpt lat="41.647890259" lon="2.561221745">
        <ele>321.22</ele>
        <time>2013-06-02T10:31:08Z</time>
      </trkpt>
      <trkpt lat="41.647773751" lon="2.561066847">
        <ele>323.14</ele>
        <time>2013-06-02T10:31:16Z</time>
      </trkpt>
      <trkpt lat="41.647687585" lon="2.560858557">
        <ele>325.54</ele>
        <time>2013-06-02T10:31:26Z</time>
      </trkpt>
      <trkpt lat="41.647674928" lon="2.560672144">
        <ele>326.50</ele>
        <time>2013-06-02T10:31:34Z</time>
      </trkpt>
      <trkpt lat="41.647683646" lon="2.560484640">
        <ele>327.47</ele>
        <time>2013-06-02T10:31:42Z</time>
      </trkpt>
      <trkpt lat="41.647712731" lon="2.560320187">
        <ele>328.91</ele>
        <time>2013-06-02T10:31:50Z</time>
      </trkpt>
      <trkpt lat="41.647728153" lon="2.560257742">
        <ele>329.39</ele>
        <time>2013-06-02T10:31:53Z</time>
      </trkpt>
      <trkpt lat="41.647786324" lon="2.560050542">
        <ele>331.31</ele>
        <time>2013-06-02T10:32:03Z</time>
      </trkpt>
      <trkpt lat="41.647828988" lon="2.559877539">
        <ele>333.23</ele>
        <time>2013-06-02T10:32:12Z</time>
      </trkpt>
      <trkpt lat="41.647842902" lon="2.559847448">
        <ele>333.71</ele>
        <time>2013-06-02T10:32:14Z</time>
      </trkpt>
      <trkpt lat="41.647871735" lon="2.559695987">
        <ele>335.16</ele>
        <time>2013-06-02T10:32:21Z</time>
      </trkpt>
      <trkpt lat="41.647795041" lon="2.559542347">
        <ele>336.60</ele>
        <time>2013-06-02T10:32:29Z</time>
      </trkpt>
      <trkpt lat="41.647682053" lon="2.559413936">
        <ele>337.56</ele>
        <time>2013-06-02T10:32:38Z</time>
      </trkpt>
      <trkpt lat="41.647550541" lon="2.559281083">
        <ele>338.04</ele>
        <time>2013-06-02T10:32:47Z</time>
      </trkpt>
      <trkpt lat="41.647370162" lon="2.559211429">
        <ele>338.52</ele>
        <time>2013-06-02T10:32:57Z</time>
      </trkpt>
      <trkpt lat="41.647274944" lon="2.559100034">
        <ele>339.48</ele>
        <time>2013-06-02T10:33:04Z</time>
      </trkpt>
      <trkpt lat="41.647315009" lon="2.559008001">
        <ele>339.96</ele>
        <time>2013-06-02T10:33:09Z</time>
      </trkpt>
      <trkpt lat="41.647424729" lon="2.558948321">
        <ele>341.89</ele>
        <time>2013-06-02T10:33:17Z</time>
      </trkpt>
      <trkpt lat="41.647566550" lon="2.558944550">
        <ele>342.85</ele>
        <time>2013-06-02T10:33:26Z</time>
      </trkpt>
      <trkpt lat="41.647725555" lon="2.558924182">
        <ele>345.73</ele>
        <time>2013-06-02T10:33:37Z</time>
      </trkpt>
      <trkpt lat="41.647879363" lon="2.558919823">
        <ele>347.65</ele>
        <time>2013-06-02T10:33:47Z</time>
      </trkpt>
      <trkpt lat="41.648027639" lon="2.558900964">
        <ele>350.06</ele>
        <time>2013-06-02T10:33:57Z</time>
      </trkpt>
      <trkpt lat="41.648157977" lon="2.558871376">
        <ele>351.98</ele>
        <time>2013-06-02T10:34:06Z</time>
      </trkpt>
      <trkpt lat="41.648277168" lon="2.558874728">
        <ele>353.42</ele>
        <time>2013-06-02T10:34:14Z</time>
      </trkpt>
      <trkpt lat="41.648380852" lon="2.558854276">
        <ele>355.34</ele>
        <time>2013-06-02T10:34:22Z</time>
      </trkpt>
      <trkpt lat="41.648520746" lon="2.558861233">
        <ele>356.79</ele>
        <time>2013-06-02T10:34:32Z</time>
      </trkpt>
      <trkpt lat="41.648626358" lon="2.558910268">
        <ele>358.71</ele>
        <time>2013-06-02T10:34:40Z</time>
      </trkpt>
      <trkpt lat="41.648732054" lon="2.559006827">
        <ele>360.15</ele>
        <time>2013-06-02T10:34:49Z</time>
      </trkpt>
      <trkpt lat="41.648839510" lon="2.559027195">
        <ele>361.59</ele>
        <time>2013-06-02T10:34:58Z</time>
      </trkpt>
      <trkpt lat="41.648945122" lon="2.558984028">
        <ele>362.55</ele>
        <time>2013-06-02T10:35:06Z</time>
      </trkpt>
      <trkpt lat="41.649053668" lon="2.558896437">
        <ele>363.52</ele>
        <time>2013-06-02T10:35:15Z</time>
      </trkpt>
      <trkpt lat="41.649162632" lon="2.558803734">
        <ele>364.48</ele>
        <time>2013-06-02T10:35:24Z</time>
      </trkpt>
      <trkpt lat="41.649291127" lon="2.558720837">
        <ele>366.40</ele>
        <time>2013-06-02T10:35:34Z</time>
      </trkpt>
      <trkpt lat="41.649399924" lon="2.558709102">
        <ele>367.84</ele>
        <time>2013-06-02T10:35:42Z</time>
      </trkpt>
      <trkpt lat="41.649522803" lon="2.558739696">
        <ele>369.28</ele>
        <time>2013-06-02T10:35:51Z</time>
      </trkpt>
      <trkpt lat="41.649610813" lon="2.558825778">
        <ele>370.73</ele>
        <time>2013-06-02T10:35:59Z</time>
      </trkpt>
      <trkpt lat="41.649699158" lon="2.558890905">
        <ele>372.65</ele>
        <time>2013-06-02T10:36:07Z</time>
      </trkpt>
      <trkpt lat="41.649826144" lon="2.558954189">
        <ele>373.61</ele>
        <time>2013-06-02T10:36:17Z</time>
      </trkpt>
      <trkpt lat="41.649945167" lon="2.559026525">
        <ele>375.53</ele>
        <time>2013-06-02T10:36:27Z</time>
      </trkpt>
      <trkpt lat="41.650019682" lon="2.559058879">
        <ele>376.49</ele>
        <time>2013-06-02T10:36:33Z</time>
      </trkpt>
      <trkpt lat="41.650082379" lon="2.559096765">
        <ele>377.45</ele>
        <time>2013-06-02T10:36:38Z</time>
      </trkpt>
      <trkpt lat="41.650218920" lon="2.559179662">
        <ele>379.38</ele>
        <time>2013-06-02T10:36:49Z</time>
      </trkpt>
      <trkpt lat="41.650330651" lon="2.559246550">
        <ele>381.30</ele>
        <time>2013-06-02T10:36:58Z</time>
      </trkpt>
      <trkpt lat="41.650449422" lon="2.559299607">
        <ele>383.22</ele>
        <time>2013-06-02T10:37:07Z</time>
      </trkpt>
      <trkpt lat="41.650494684" lon="2.559313437">
        <ele>383.22</ele>
        <time>2013-06-02T10:37:11Z</time>
      </trkpt>
      <trkpt lat="41.650606918" lon="2.559340930">
        <ele>385.15</ele>
        <time>2013-06-02T10:37:19Z</time>
      </trkpt>
      <trkpt lat="41.650639105" lon="2.559334224">
        <ele>385.15</ele>
        <time>2013-06-02T10:37:21Z</time>
      </trkpt>
      <trkpt lat="41.650721750" lon="2.559180500">
        <ele>385.15</ele>
        <time>2013-06-02T10:37:27Z</time>
      </trkpt>
      <trkpt lat="41.650718565" lon="2.559143284">
        <ele>385.15</ele>
        <time>2013-06-02T10:37:28Z</time>
      </trkpt>
      <trkpt lat="41.650639943" lon="2.558868777">
        <ele>385.15</ele>
        <time>2013-06-02T10:37:36Z</time>
      </trkpt>
      <trkpt lat="41.650538186" lon="2.558521012">
        <ele>385.15</ele>
        <time>2013-06-02T10:37:44Z</time>
      </trkpt>
      <trkpt lat="41.650535001" lon="2.558440127">
        <ele>383.70</ele>
        <time>2013-06-02T10:37:46Z</time>
      </trkpt>
      <trkpt lat="41.650538857" lon="2.558150113">
        <ele>383.70</ele>
        <time>2013-06-02T10:37:53Z</time>
      </trkpt>
      <trkpt lat="41.650537600" lon="2.557814250">
        <ele>383.70</ele>
        <time>2013-06-02T10:38:02Z</time>
      </trkpt>
      <trkpt lat="41.650528966" lon="2.557561787">
        <ele>385.15</ele>
        <time>2013-06-02T10:38:09Z</time>
      </trkpt>
      <trkpt lat="41.650536007" lon="2.557245454">
        <ele>386.11</ele>
        <time>2013-06-02T10:38:18Z</time>
      </trkpt>
      <trkpt lat="41.650573558" lon="2.556956530">
        <ele>386.59</ele>
        <time>2013-06-02T10:38:27Z</time>
      </trkpt>
      <trkpt lat="41.650639188" lon="2.556728207">
        <ele>387.55</ele>
        <time>2013-06-02T10:38:35Z</time>
      </trkpt>
      <trkpt lat="41.650760307" lon="2.556528466">
        <ele>389.47</ele>
        <time>2013-06-02T10:38:44Z</time>
      </trkpt>
      <trkpt lat="41.650865751" lon="2.556414388">
        <ele>390.43</ele>
        <time>2013-06-02T10:38:51Z</time>
      </trkpt>
      <trkpt lat="41.650971447" lon="2.556329731">
        <ele>392.36</ele>
        <time>2013-06-02T10:38:58Z</time>
      </trkpt>
      <trkpt lat="41.651111509" lon="2.556250354">
        <ele>392.84</ele>
        <time>2013-06-02T10:39:05Z</time>
      </trkpt>
      <trkpt lat="41.651290881" lon="2.556127979">
        <ele>394.28</ele>
        <time>2013-06-02T10:39:14Z</time>
      </trkpt>
      <trkpt lat="41.651406468" lon="2.556000574">
        <ele>394.76</ele>
        <time>2013-06-02T10:39:21Z</time>
      </trkpt>
      <trkpt lat="41.651543596" lon="2.555837965">
        <ele>395.24</ele>
        <time>2013-06-02T10:39:29Z</time>
      </trkpt>
      <trkpt lat="41.651680975" lon="2.555676278">
        <ele>395.72</ele>
        <time>2013-06-02T10:39:37Z</time>
      </trkpt>
      <trkpt lat="41.651859174" lon="2.555484416">
        <ele>396.68</ele>
        <time>2013-06-02T10:39:47Z</time>
      </trkpt>
      <trkpt lat="41.652011138" lon="2.555342678">
        <ele>397.64</ele>
        <time>2013-06-02T10:39:55Z</time>
      </trkpt>
      <trkpt lat="41.652175507" lon="2.555178896">
        <ele>399.08</ele>
        <time>2013-06-02T10:40:04Z</time>
      </trkpt>
      <trkpt lat="41.652343900" lon="2.555051575">
        <ele>400.53</ele>
        <time>2013-06-02T10:40:13Z</time>
      </trkpt>
      <trkpt lat="41.652474490" lon="2.555051156">
        <ele>401.49</ele>
        <time>2013-06-02T10:40:20Z</time>
      </trkpt>
      <trkpt lat="41.652599967" lon="2.554947304">
        <ele>401.97</ele>
        <time>2013-06-02T10:40:27Z</time>
      </trkpt>
      <trkpt lat="41.652612288" lon="2.554923248">
        <ele>401.97</ele>
        <time>2013-06-02T10:40:28Z</time>
      </trkpt>
      <trkpt lat="41.652603487" lon="2.554744378">
        <ele>402.45</ele>
        <time>2013-06-02T10:40:35Z</time>
      </trkpt>
      <trkpt lat="41.652457559" lon="2.554452520">
        <ele>402.93</ele>
        <time>2013-06-02T10:40:46Z</time>
      </trkpt>
      <trkpt lat="41.652326382" lon="2.554313380">
        <ele>403.89</ele>
        <time>2013-06-02T10:40:53Z</time>
      </trkpt>
      <trkpt lat="41.652170311" lon="2.554137780">
        <ele>404.37</ele>
        <time>2013-06-02T10:41:01Z</time>
      </trkpt>
      <trkpt lat="41.652078194" lon="2.553933764">
        <ele>404.37</ele>
        <time>2013-06-02T10:41:09Z</time>
      </trkpt>
      <trkpt lat="41.651916674" lon="2.553823458">
        <ele>404.85</ele>
        <time>2013-06-02T10:41:16Z</time>
      </trkpt>
      <trkpt lat="41.651675359" lon="2.553730084">
        <ele>404.85</ele>
        <time>2013-06-02T10:41:24Z</time>
      </trkpt>
      <trkpt lat="41.651625152" lon="2.553682139">
        <ele>404.85</ele>
        <time>2013-06-02T10:41:26Z</time>
      </trkpt>
      <trkpt lat="41.651640742" lon="2.553481644">
        <ele>404.85</ele>
        <time>2013-06-02T10:41:31Z</time>
      </trkpt>
      <trkpt lat="41.651666894" lon="2.553456247">
        <ele>404.85</ele>
        <time>2013-06-02T10:41:32Z</time>
      </trkpt>
      <trkpt lat="41.651811062" lon="2.553306295">
        <ele>404.85</ele>
        <time>2013-06-02T10:41:38Z</time>
      </trkpt>
      <trkpt lat="41.651912735" lon="2.553049306">
        <ele>404.85</ele>
        <time>2013-06-02T10:41:46Z</time>
      </trkpt>
      <trkpt lat="41.651973336" lon="2.552894157">
        <ele>405.33</ele>
        <time>2013-06-02T10:41:51Z</time>
      </trkpt>
      <trkpt lat="41.651988256" lon="2.552781336">
        <ele>405.33</ele>
        <time>2013-06-02T10:41:54Z</time>
      </trkpt>
      <trkpt lat="41.652049444" lon="2.552559719">
        <ele>406.29</ele>
        <time>2013-06-02T10:42:02Z</time>
      </trkpt>
      <trkpt lat="41.652123288" lon="2.552465003">
        <ele>408.22</ele>
        <time>2013-06-02T10:42:09Z</time>
      </trkpt>
      <trkpt lat="41.652191014" lon="2.552432230">
        <ele>408.70</ele>
        <time>2013-06-02T10:42:16Z</time>
      </trkpt>
      <trkpt lat="41.652236863" lon="2.552379675">
        <ele>409.18</ele>
        <time>2013-06-02T10:42:23Z</time>
      </trkpt>
      <trkpt lat="41.652237282" lon="2.552362660">
        <ele>409.18</ele>
        <time>2013-06-02T10:42:31Z</time>
      </trkpt>
      <trkpt lat="41.652240467" lon="2.552350087">
        <ele>409.18</ele>
        <time>2013-06-02T10:42:50Z</time>
      </trkpt>
      <trkpt lat="41.652258153" lon="2.552359559">
        <ele>409.18</ele>
        <time>2013-06-02T10:43:05Z</time>
      </trkpt>
      <trkpt lat="41.652259746" lon="2.552361822">
        <ele>409.18</ele>
        <time>2013-06-02T10:43:13Z</time>
      </trkpt>
      <trkpt lat="41.652255890" lon="2.552363079">
        <ele>409.18</ele>
        <time>2013-06-02T10:43:30Z</time>
      </trkpt>
      <trkpt lat="41.652253208" lon="2.552347154">
        <ele>409.66</ele>
        <time>2013-06-02T10:43:44Z</time>
      </trkpt>
      <trkpt lat="41.652247257" lon="2.552356541">
        <ele>409.66</ele>
        <time>2013-06-02T10:43:56Z</time>
      </trkpt>
      <trkpt lat="41.652250861" lon="2.552358218">
        <ele>409.66</ele>
        <time>2013-06-02T10:44:09Z</time>
      </trkpt>
      <trkpt lat="41.652251531" lon="2.552343549">
        <ele>409.66</ele>
        <time>2013-06-02T10:44:26Z</time>
      </trkpt>
      <trkpt lat="41.652241389" lon="2.552346315">
        <ele>409.66</ele>
        <time>2013-06-02T10:44:41Z</time>
      </trkpt>
      <trkpt lat="41.652228984" lon="2.552352853">
        <ele>410.14</ele>
        <time>2013-06-02T10:44:54Z</time>
      </trkpt>
      <trkpt lat="41.652233678" lon="2.552343046">
        <ele>410.14</ele>
        <time>2013-06-02T10:45:06Z</time>
      </trkpt>
      <trkpt lat="41.652256728" lon="2.552369198">
        <ele>410.14</ele>
        <time>2013-06-02T10:45:16Z</time>
      </trkpt>
      <trkpt lat="41.652261590" lon="2.552392835">
        <ele>410.14</ele>
        <time>2013-06-02T10:45:22Z</time>
      </trkpt>
      <trkpt lat="41.652257063" lon="2.552414376">
        <ele>410.14</ele>
        <time>2013-06-02T10:45:24Z</time>
      </trkpt>
      <trkpt lat="41.652238288" lon="2.552577237">
        <ele>411.10</ele>
        <time>2013-06-02T10:45:33Z</time>
      </trkpt>
      <trkpt lat="41.652233343" lon="2.552748563">
        <ele>413.02</ele>
        <time>2013-06-02T10:45:42Z</time>
      </trkpt>
      <trkpt lat="41.652239545" lon="2.552835483">
        <ele>413.98</ele>
        <time>2013-06-02T10:45:47Z</time>
      </trkpt>
      <trkpt lat="41.652252537" lon="2.552904382">
        <ele>414.47</ele>
        <time>2013-06-02T10:45:51Z</time>
      </trkpt>
      <trkpt lat="41.652245999" lon="2.552946879">
        <ele>414.95</ele>
        <time>2013-06-02T10:45:59Z</time>
      </trkpt>
      <trkpt lat="41.652245329" lon="2.552974288">
        <ele>414.95</ele>
        <time>2013-06-02T10:46:02Z</time>
      </trkpt>
      <trkpt lat="41.652291764" lon="2.553125497">
        <ele>416.39</ele>
        <time>2013-06-02T10:46:12Z</time>
      </trkpt>
      <trkpt lat="41.652344654" lon="2.553242173">
        <ele>417.35</ele>
        <time>2013-06-02T10:46:20Z</time>
      </trkpt>
      <trkpt lat="41.652372398" lon="2.553269163">
        <ele>417.83</ele>
        <time>2013-06-02T10:46:23Z</time>
      </trkpt>
      <trkpt lat="41.652402322" lon="2.553264888">
        <ele>418.79</ele>
        <time>2013-06-02T10:46:26Z</time>
      </trkpt>
      <trkpt lat="41.652433083" lon="2.553174615">
        <ele>420.23</ele>
        <time>2013-06-02T10:46:33Z</time>
      </trkpt>
      <trkpt lat="41.652445321" lon="2.553046456">
        <ele>422.16</ele>
        <time>2013-06-02T10:46:41Z</time>
      </trkpt>
      <trkpt lat="41.652455547" lon="2.553004714">
        <ele>423.12</ele>
        <time>2013-06-02T10:46:44Z</time>
      </trkpt>
      <trkpt lat="41.652485303" lon="2.552874375">
        <ele>424.56</ele>
        <time>2013-06-02T10:46:52Z</time>
      </trkpt>
      <trkpt lat="41.652517405" lon="2.552792987">
        <ele>425.52</ele>
        <time>2013-06-02T10:46:58Z</time>
      </trkpt>
      <trkpt lat="41.652564176" lon="2.552658960">
        <ele>426.96</ele>
        <time>2013-06-02T10:47:07Z</time>
      </trkpt>
      <trkpt lat="41.652571385" lon="2.552648064">
        <ele>427.44</ele>
        <time>2013-06-02T10:47:08Z</time>
      </trkpt>
      <trkpt lat="41.652586472" lon="2.552606071">
        <ele>428.40</ele>
        <time>2013-06-02T10:47:11Z</time>
      </trkpt>
      <trkpt lat="41.652644726" lon="2.552512026">
        <ele>428.89</ele>
        <time>2013-06-02T10:47:19Z</time>
      </trkpt>
      <trkpt lat="41.652685379" lon="2.552454861">
        <ele>429.85</ele>
        <time>2013-06-02T10:47:25Z</time>
      </trkpt>
      <trkpt lat="41.652713961" lon="2.552403815">
        <ele>431.29</ele>
        <time>2013-06-02T10:47:30Z</time>
      </trkpt>
      <trkpt lat="41.652770371" lon="2.552346651">
        <ele>432.25</ele>
        <time>2013-06-02T10:47:37Z</time>
      </trkpt>
      <trkpt lat="41.652777663" lon="2.552330054">
        <ele>432.25</ele>
        <time>2013-06-02T10:47:38Z</time>
      </trkpt>
      <trkpt lat="41.652839270" lon="2.552287726">
        <ele>432.73</ele>
        <time>2013-06-02T10:47:43Z</time>
      </trkpt>
      <trkpt lat="41.652955444" lon="2.552191166">
        <ele>434.65</ele>
        <time>2013-06-02T10:47:54Z</time>
      </trkpt>
      <trkpt lat="41.653051333" lon="2.552123189">
        <ele>436.10</ele>
        <time>2013-06-02T10:48:03Z</time>
      </trkpt>
      <trkpt lat="41.653117717" lon="2.552100474">
        <ele>436.10</ele>
        <time>2013-06-02T10:48:08Z</time>
      </trkpt>
      <trkpt lat="41.653215953" lon="2.552061414">
        <ele>438.02</ele>
        <time>2013-06-02T10:48:16Z</time>
      </trkpt>
      <trkpt lat="41.653344783" lon="2.552015146">
        <ele>439.46</ele>
        <time>2013-06-02T10:48:27Z</time>
      </trkpt>
      <trkpt lat="41.653388453" lon="2.551988157">
        <ele>440.42</ele>
        <time>2013-06-02T10:48:31Z</time>
      </trkpt>
      <trkpt lat="41.653476798" lon="2.551893776">
        <ele>441.86</ele>
        <time>2013-06-02T10:48:40Z</time>
      </trkpt>
      <trkpt lat="41.653525916" lon="2.551855639">
        <ele>442.34</ele>
        <time>2013-06-02T10:48:44Z</time>
      </trkpt>
      <trkpt lat="41.653551984" lon="2.551715074">
        <ele>442.82</ele>
        <time>2013-06-02T10:48:51Z</time>
      </trkpt>
      <trkpt lat="41.653498842" lon="2.551582808">
        <ele>443.79</ele>
        <time>2013-06-02T10:48:59Z</time>
      </trkpt>
      <trkpt lat="41.653423070" lon="2.551451463">
        <ele>445.23</ele>
        <time>2013-06-02T10:49:09Z</time>
      </trkpt>
      <trkpt lat="41.653390548" lon="2.551360184">
        <ele>446.67</ele>
        <time>2013-06-02T10:49:16Z</time>
      </trkpt>
      <trkpt lat="41.653379149" lon="2.551320790">
        <ele>447.63</ele>
        <time>2013-06-02T10:49:19Z</time>
      </trkpt>
      <trkpt lat="41.653332042" lon="2.551221967">
        <ele>449.55</ele>
        <time>2013-06-02T10:49:28Z</time>
      </trkpt>
      <trkpt lat="41.653331204" lon="2.551208891">
        <ele>450.03</ele>
        <time>2013-06-02T10:49:29Z</time>
      </trkpt>
      <trkpt lat="41.653310585" lon="2.551095819">
        <ele>451.48</ele>
        <time>2013-06-02T10:49:37Z</time>
      </trkpt>
      <trkpt lat="41.653307567" lon="2.551069919">
        <ele>451.48</ele>
        <time>2013-06-02T10:49:39Z</time>
      </trkpt>
      <trkpt lat="41.653332378" lon="2.550910495">
        <ele>451.48</ele>
        <time>2013-06-02T10:49:46Z</time>
      </trkpt>
      <trkpt lat="41.653366157" lon="2.550755346">
        <ele>451.48</ele>
        <time>2013-06-02T10:49:52Z</time>
      </trkpt>
      <trkpt lat="41.653405300" lon="2.550668258">
        <ele>452.44</ele>
        <time>2013-06-02T10:49:56Z</time>
      </trkpt>
      <trkpt lat="41.653367833" lon="2.550531717">
        <ele>452.44</ele>
        <time>2013-06-02T10:50:02Z</time>
      </trkpt>
      <trkpt lat="41.653399265" lon="2.550383693">
        <ele>450.52</ele>
        <time>2013-06-02T10:50:06Z</time>
      </trkpt>
      <trkpt lat="41.653464979" lon="2.550145647">
        <ele>449.07</ele>
        <time>2013-06-02T10:50:12Z</time>
      </trkpt>
      <trkpt lat="41.653509655" lon="2.549956467">
        <ele>447.15</ele>
        <time>2013-06-02T10:50:18Z</time>
      </trkpt>
      <trkpt lat="41.653568161" lon="2.549723283">
        <ele>446.19</ele>
        <time>2013-06-02T10:50:24Z</time>
      </trkpt>
      <trkpt lat="41.653636222" lon="2.549582550">
        <ele>445.23</ele>
        <time>2013-06-02T10:50:28Z</time>
      </trkpt>
      <trkpt lat="41.653745270" lon="2.549512562">
        <ele>445.23</ele>
        <time>2013-06-02T10:50:33Z</time>
      </trkpt>
      <trkpt lat="41.653862449" lon="2.549331680">
        <ele>445.23</ele>
        <time>2013-06-02T10:50:41Z</time>
      </trkpt>
      <trkpt lat="41.653902096" lon="2.549058262">
        <ele>445.23</ele>
        <time>2013-06-02T10:50:47Z</time>
      </trkpt>
      <trkpt lat="41.653929169" lon="2.548904538">
        <ele>445.71</ele>
        <time>2013-06-02T10:50:52Z</time>
      </trkpt>
      <trkpt lat="41.653930929" lon="2.548853157">
        <ele>447.15</ele>
        <time>2013-06-02T10:50:54Z</time>
      </trkpt>
      <trkpt lat="41.653936881" lon="2.548760705">
        <ele>447.63</ele>
        <time>2013-06-02T10:50:58Z</time>
      </trkpt>
      <trkpt lat="41.653989100" lon="2.548661798">
        <ele>448.11</ele>
        <time>2013-06-02T10:51:04Z</time>
      </trkpt>
      <trkpt lat="41.654165874" lon="2.548472367">
        <ele>448.11</ele>
        <time>2013-06-02T10:51:12Z</time>
      </trkpt>
      <trkpt lat="41.654301410" lon="2.548300622">
        <ele>448.11</ele>
        <time>2013-06-02T10:51:18Z</time>
      </trkpt>
      <trkpt lat="41.654458989" lon="2.548116053">
        <ele>445.23</ele>
        <time>2013-06-02T10:51:23Z</time>
      </trkpt>
      <trkpt lat="41.654617156" lon="2.547963502">
        <ele>443.31</ele>
        <time>2013-06-02T10:51:27Z</time>
      </trkpt>
      <trkpt lat="41.654743136" lon="2.547857052">
        <ele>440.90</ele>
        <time>2013-06-02T10:51:32Z</time>
      </trkpt>
      <trkpt lat="41.654856459" lon="2.547778765">
        <ele>438.98</ele>
        <time>2013-06-02T10:51:37Z</time>
      </trkpt>
      <trkpt lat="41.655020744" lon="2.547712296">
        <ele>438.50</ele>
        <time>2013-06-02T10:51:43Z</time>
      </trkpt>
      <trkpt lat="41.655169691" lon="2.547657395">
        <ele>437.06</ele>
        <time>2013-06-02T10:51:49Z</time>
      </trkpt>
      <trkpt lat="41.655314363" lon="2.547599560">
        <ele>436.10</ele>
        <time>2013-06-02T10:51:54Z</time>
      </trkpt>
      <trkpt lat="41.655409665" lon="2.547515992">
        <ele>435.61</ele>
        <time>2013-06-02T10:51:58Z</time>
      </trkpt>
      <trkpt lat="41.655428859" lon="2.547401076">
        <ele>435.61</ele>
        <time>2013-06-02T10:52:02Z</time>
      </trkpt>
      <trkpt lat="41.655407318" lon="2.547193121">
        <ele>435.61</ele>
        <time>2013-06-02T10:52:09Z</time>
      </trkpt>
      <trkpt lat="41.655362978" lon="2.547080971">
        <ele>435.61</ele>
        <time>2013-06-02T10:52:13Z</time>
      </trkpt>
      <trkpt lat="41.655248229" lon="2.546995895">
        <ele>437.06</ele>
        <time>2013-06-02T10:52:18Z</time>
      </trkpt>
      <trkpt lat="41.655214283" lon="2.546979886">
        <ele>437.54</ele>
        <time>2013-06-02T10:52:20Z</time>
      </trkpt>
      <trkpt lat="41.655078663" lon="2.546848541">
        <ele>437.54</ele>
        <time>2013-06-02T10:52:28Z</time>
      </trkpt>
      <trkpt lat="41.655033066" lon="2.546800681">
        <ele>437.54</ele>
        <time>2013-06-02T10:52:30Z</time>
      </trkpt>
      <trkpt lat="41.654932399" lon="2.546664894">
        <ele>436.10</ele>
        <time>2013-06-02T10:52:34Z</time>
      </trkpt>
      <trkpt lat="41.654831313" lon="2.546575878">
        <ele>434.65</ele>
        <time>2013-06-02T10:52:37Z</time>
      </trkpt>
      <trkpt lat="41.654751518" lon="2.546520893">
        <ele>433.21</ele>
        <time>2013-06-02T10:52:40Z</time>
      </trkpt>
      <trkpt lat="41.654693347" lon="2.546462136">
        <ele>432.73</ele>
        <time>2013-06-02T10:52:42Z</time>
      </trkpt>
      <trkpt lat="41.654619670" lon="2.546388962">
        <ele>431.29</ele>
        <time>2013-06-02T10:52:44Z</time>
      </trkpt>
      <trkpt lat="41.654449434" lon="2.546156783">
        <ele>429.85</ele>
        <time>2013-06-02T10:52:49Z</time>
      </trkpt>
      <trkpt lat="41.654191188" lon="2.546045555">
        <ele>429.85</ele>
        <time>2013-06-02T10:52:58Z</time>
      </trkpt>
      <trkpt lat="41.654004271" lon="2.545911780">
        <ele>429.85</ele>
        <time>2013-06-02T10:53:06Z</time>
      </trkpt>
      <trkpt lat="41.653881728" lon="2.545827374">
        <ele>430.33</ele>
        <time>2013-06-02T10:53:11Z</time>
      </trkpt>
      <trkpt lat="41.653684418" lon="2.545729557">
        <ele>429.85</ele>
        <time>2013-06-02T10:53:17Z</time>
      </trkpt>
      <trkpt lat="41.653480570" lon="2.545625538">
        <ele>429.85</ele>
        <time>2013-06-02T10:53:23Z</time>
      </trkpt>
      <trkpt lat="41.653260545" lon="2.545480615">
        <ele>429.85</ele>
        <time>2013-06-02T10:53:31Z</time>
      </trkpt>
      <trkpt lat="41.653186700" lon="2.545424121">
        <ele>429.85</ele>
        <time>2013-06-02T10:53:33Z</time>
      </trkpt>
      <trkpt lat="41.652946810" lon="2.545301829">
        <ele>428.40</ele>
        <time>2013-06-02T10:53:39Z</time>
      </trkpt>
      <trkpt lat="41.652923509" lon="2.545263020">
        <ele>428.40</ele>
        <time>2013-06-02T10:53:40Z</time>
      </trkpt>
      <trkpt lat="41.652872630" lon="2.545165287">
        <ele>427.92</ele>
        <time>2013-06-02T10:53:42Z</time>
      </trkpt>
      <trkpt lat="41.652733826" lon="2.544865718">
        <ele>424.56</ele>
        <time>2013-06-02T10:53:47Z</time>
      </trkpt>
      <trkpt lat="41.652526877" lon="2.544685340">
        <ele>424.08</ele>
        <time>2013-06-02T10:53:52Z</time>
      </trkpt>
      <trkpt lat="41.652491254" lon="2.544673437">
        <ele>424.08</ele>
        <time>2013-06-02T10:53:53Z</time>
      </trkpt>
      <trkpt lat="41.652252286" lon="2.544637563">
        <ele>424.08</ele>
        <time>2013-06-02T10:54:00Z</time>
      </trkpt>
      <trkpt lat="41.652049695" lon="2.544685340">
        <ele>423.12</ele>
        <time>2013-06-02T10:54:06Z</time>
      </trkpt>
      <trkpt lat="41.652012899" lon="2.544684753">
        <ele>423.12</ele>
        <time>2013-06-02T10:54:08Z</time>
      </trkpt>
      <trkpt lat="41.651992782" lon="2.544665642">
        <ele>423.12</ele>
        <time>2013-06-02T10:54:10Z</time>
      </trkpt>
      <trkpt lat="41.652061094" lon="2.544577213">
        <ele>424.56</ele>
        <time>2013-06-02T10:54:18Z</time>
      </trkpt>
      <trkpt lat="41.652118008" lon="2.544535304">
        <ele>425.52</ele>
        <time>2013-06-02T10:54:22Z</time>
      </trkpt>
      <trkpt lat="41.652227391" lon="2.544501189">
        <ele>426.96</ele>
        <time>2013-06-02T10:54:29Z</time>
      </trkpt>
      <trkpt lat="41.652386899" lon="2.544457687">
        <ele>427.92</ele>
        <time>2013-06-02T10:54:38Z</time>
      </trkpt>
      <trkpt lat="41.652521093" lon="2.544443438">
        <ele>428.89</ele>
        <time>2013-06-02T10:54:45Z</time>
      </trkpt>
      <trkpt lat="41.652691330" lon="2.544439498">
        <ele>429.37</ele>
        <time>2013-06-02T10:54:54Z</time>
      </trkpt>
      <trkpt lat="41.652821752" lon="2.544433380">
        <ele>430.33</ele>
        <time>2013-06-02T10:55:02Z</time>
      </trkpt>
      <trkpt lat="41.652926275" lon="2.544444025">
        <ele>432.25</ele>
        <time>2013-06-02T10:55:09Z</time>
      </trkpt>
      <trkpt lat="41.653086788" lon="2.544419633">
        <ele>433.21</ele>
        <time>2013-06-02T10:55:20Z</time>
      </trkpt>
      <trkpt lat="41.653223664" lon="2.544374623">
        <ele>435.13</ele>
        <time>2013-06-02T10:55:30Z</time>
      </trkpt>
      <trkpt lat="41.653329612" lon="2.544383088">
        <ele>437.54</ele>
        <time>2013-06-02T10:55:38Z</time>
      </trkpt>
      <trkpt lat="41.653410749" lon="2.544420974">
        <ele>438.50</ele>
        <time>2013-06-02T10:55:45Z</time>
      </trkpt>
      <trkpt lat="41.653536645" lon="2.544506638">
        <ele>440.90</ele>
        <time>2013-06-02T10:55:54Z</time>
      </trkpt>
      <trkpt lat="41.653563551" lon="2.544519881">
        <ele>441.38</ele>
        <time>2013-06-02T10:55:56Z</time>
      </trkpt>
      <trkpt lat="41.653686597" lon="2.544628929">
        <ele>442.82</ele>
        <time>2013-06-02T10:56:06Z</time>
      </trkpt>
      <trkpt lat="41.653711407" lon="2.544634210">
        <ele>442.82</ele>
        <time>2013-06-02T10:56:08Z</time>
      </trkpt>
      <trkpt lat="41.653753820" lon="2.544546954">
        <ele>444.27</ele>
        <time>2013-06-02T10:56:15Z</time>
      </trkpt>
      <trkpt lat="41.653758933" lon="2.544504542">
        <ele>444.75</ele>
        <time>2013-06-02T10:56:18Z</time>
      </trkpt>
      <trkpt lat="41.653757340" lon="2.544456765">
        <ele>445.23</ele>
        <time>2013-06-02T10:56:21Z</time>
      </trkpt>
      <trkpt lat="41.653820205" lon="2.544295665">
        <ele>446.19</ele>
        <time>2013-06-02T10:56:30Z</time>
      </trkpt>
      <trkpt lat="41.653896480" lon="2.544125512">
        <ele>446.19</ele>
        <time>2013-06-02T10:56:36Z</time>
      </trkpt>
      <trkpt lat="41.654013659" lon="2.543896603">
        <ele>446.19</ele>
        <time>2013-06-02T10:56:44Z</time>
      </trkpt>
      <trkpt lat="41.654131844" lon="2.543817394">
        <ele>446.19</ele>
        <time>2013-06-02T10:56:50Z</time>
      </trkpt>
      <trkpt lat="41.654354467" lon="2.543763498">
        <ele>446.19</ele>
        <time>2013-06-02T10:56:56Z</time>
      </trkpt>
      <trkpt lat="41.654441136" lon="2.543732820">
        <ele>444.75</ele>
        <time>2013-06-02T10:56:58Z</time>
      </trkpt>
      <trkpt lat="41.654618329" lon="2.543616563">
        <ele>444.75</ele>
        <time>2013-06-02T10:57:03Z</time>
      </trkpt>
      <trkpt lat="41.654767611" lon="2.543529978">
        <ele>446.19</ele>
        <time>2013-06-02T10:57:09Z</time>
      </trkpt>
      <trkpt lat="41.654912031" lon="2.543389497">
        <ele>445.23</ele>
        <time>2013-06-02T10:57:14Z</time>
      </trkpt>
      <trkpt lat="41.655052931" lon="2.543286819">
        <ele>444.27</ele>
        <time>2013-06-02T10:57:17Z</time>
      </trkpt>
      <trkpt lat="41.655186203" lon="2.543128234">
        <ele>444.27</ele>
        <time>2013-06-02T10:57:22Z</time>
      </trkpt>
      <trkpt lat="41.655235908" lon="2.543030584">
        <ele>445.71</ele>
        <time>2013-06-02T10:57:26Z</time>
      </trkpt>
      <trkpt lat="41.655351159" lon="2.542829586">
        <ele>446.67</ele>
        <time>2013-06-02T10:57:34Z</time>
      </trkpt>
      <trkpt lat="41.655521312" lon="2.542816846">
        <ele>444.27</ele>
        <time>2013-06-02T10:57:39Z</time>
      </trkpt>
      <trkpt lat="41.655711581" lon="2.542873591">
        <ele>441.86</ele>
        <time>2013-06-02T10:57:43Z</time>
      </trkpt>
      <trkpt lat="41.655873771" lon="2.542930169">
        <ele>439.94</ele>
        <time>2013-06-02T10:57:46Z</time>
      </trkpt>
      <trkpt lat="41.655990615" lon="2.542958081">
        <ele>437.54</ele>
        <time>2013-06-02T10:57:48Z</time>
      </trkpt>
      <trkpt lat="41.656217345" lon="2.543045588">
        <ele>435.13</ele>
        <time>2013-06-02T10:57:52Z</time>
      </trkpt>
      <trkpt lat="41.656378110" lon="2.542984065">
        <ele>434.65</ele>
        <time>2013-06-02T10:57:56Z</time>
      </trkpt>
      <trkpt lat="41.656426222" lon="2.542921871">
        <ele>434.65</ele>
        <time>2013-06-02T10:57:58Z</time>
      </trkpt>
      <trkpt lat="41.656483554" lon="2.542736966">
        <ele>436.10</ele>
        <time>2013-06-02T10:58:03Z</time>
      </trkpt>
      <trkpt lat="41.656521021" lon="2.542505961">
        <ele>436.10</ele>
        <time>2013-06-02T10:58:08Z</time>
      </trkpt>
      <trkpt lat="41.656561338" lon="2.542299347">
        <ele>432.73</ele>
        <time>2013-06-02T10:58:12Z</time>
      </trkpt>
      <trkpt lat="41.656569553" lon="2.542251403">
        <ele>432.73</ele>
        <time>2013-06-02T10:58:13Z</time>
      </trkpt>
      <trkpt lat="41.656572738" lon="2.542204883">
        <ele>431.77</ele>
        <time>2013-06-02T10:58:14Z</time>
      </trkpt>
      <trkpt lat="41.656533846" lon="2.541998437">
        <ele>427.44</ele>
        <time>2013-06-02T10:58:19Z</time>
      </trkpt>
      <trkpt lat="41.656646163" lon="2.542018972">
        <ele>425.52</ele>
        <time>2013-06-02T10:58:22Z</time>
      </trkpt>
      <trkpt lat="41.656790248" lon="2.542120393">
        <ele>424.56</ele>
        <time>2013-06-02T10:58:25Z</time>
      </trkpt>
      <trkpt lat="41.656926035" lon="2.542322649">
        <ele>423.60</ele>
        <time>2013-06-02T10:58:30Z</time>
      </trkpt>
      <trkpt lat="41.657022594" lon="2.542605538">
        <ele>423.12</ele>
        <time>2013-06-02T10:58:36Z</time>
      </trkpt>
      <trkpt lat="41.657080932" lon="2.542727327">
        <ele>422.16</ele>
        <time>2013-06-02T10:58:39Z</time>
      </trkpt>
      <trkpt lat="41.657247900" lon="2.542936456">
        <ele>418.31</ele>
        <time>2013-06-02T10:58:44Z</time>
      </trkpt>
      <trkpt lat="41.657400283" lon="2.542963445">
        <ele>417.83</ele>
        <time>2013-06-02T10:58:48Z</time>
      </trkpt>
      <trkpt lat="41.657455687" lon="2.542892786">
        <ele>419.27</ele>
        <time>2013-06-02T10:58:53Z</time>
      </trkpt>
      <trkpt lat="41.657452502" lon="2.542877531">
        <ele>419.27</ele>
        <time>2013-06-02T10:58:54Z</time>
      </trkpt>
      <trkpt lat="41.657445294" lon="2.542713748">
        <ele>420.71</ele>
        <time>2013-06-02T10:59:02Z</time>
      </trkpt>
      <trkpt lat="41.657492400" lon="2.542503949">
        <ele>421.68</ele>
        <time>2013-06-02T10:59:10Z</time>
      </trkpt>
      <trkpt lat="41.657562808" lon="2.542304963">
        <ele>423.12</ele>
        <time>2013-06-02T10:59:18Z</time>
      </trkpt>
      <trkpt lat="41.657571022" lon="2.542027354">
        <ele>423.12</ele>
        <time>2013-06-02T10:59:25Z</time>
      </trkpt>
      <trkpt lat="41.657616285" lon="2.541829541">
        <ele>424.08</ele>
        <time>2013-06-02T10:59:32Z</time>
      </trkpt>
      <trkpt lat="41.657669426" lon="2.541629717">
        <ele>425.04</ele>
        <time>2013-06-02T10:59:39Z</time>
      </trkpt>
      <trkpt lat="41.657672946" lon="2.541599877">
        <ele>425.52</ele>
        <time>2013-06-02T10:59:40Z</time>
      </trkpt>
      <trkpt lat="41.657768416" lon="2.541503318">
        <ele>426.96</ele>
        <time>2013-06-02T10:59:47Z</time>
      </trkpt>
      <trkpt lat="41.657940078" lon="2.541530224">
        <ele>425.52</ele>
        <time>2013-06-02T10:59:53Z</time>
      </trkpt>
      <trkpt lat="41.658034542" lon="2.541593926">
        <ele>424.56</ele>
        <time>2013-06-02T10:59:55Z</time>
      </trkpt>
      <trkpt lat="41.658267056" lon="2.541763995">
        <ele>420.71</ele>
        <time>2013-06-02T10:59:59Z</time>
      </trkpt>
      <trkpt lat="41.658396472" lon="2.541847898">
        <ele>419.75</ele>
        <time>2013-06-02T11:00:01Z</time>
      </trkpt>
      <trkpt lat="41.658655222" lon="2.542113353">
        <ele>417.83</ele>
        <time>2013-06-02T11:00:07Z</time>
      </trkpt>
      <trkpt lat="41.658785476" lon="2.542155095">
        <ele>414.95</ele>
        <time>2013-06-02T11:00:10Z</time>
      </trkpt>
      <trkpt lat="41.658845407" lon="2.542070102">
        <ele>413.50</ele>
        <time>2013-06-02T11:00:13Z</time>
      </trkpt>
      <trkpt lat="41.658831325" lon="2.541947056">
        <ele>413.50</ele>
        <time>2013-06-02T11:00:16Z</time>
      </trkpt>
      <trkpt lat="41.658776675" lon="2.541765252">
        <ele>414.95</ele>
        <time>2013-06-02T11:00:23Z</time>
      </trkpt>
      <trkpt lat="41.658716577" lon="2.541544221">
        <ele>415.43</ele>
        <time>2013-06-02T11:00:32Z</time>
      </trkpt>
      <trkpt lat="41.658770808" lon="2.541388318">
        <ele>415.43</ele>
        <time>2013-06-02T11:00:38Z</time>
      </trkpt>
      <trkpt lat="41.658811712" lon="2.541323107">
        <ele>415.43</ele>
        <time>2013-06-02T11:00:41Z</time>
      </trkpt>
      <trkpt lat="41.658825877" lon="2.541248089">
        <ele>415.91</ele>
        <time>2013-06-02T11:00:44Z</time>
      </trkpt>
      <trkpt lat="41.658750859" lon="2.541022197">
        <ele>416.39</ele>
        <time>2013-06-02T11:00:52Z</time>
      </trkpt>
      <trkpt lat="41.658668633" lon="2.540879620">
        <ele>418.79</ele>
        <time>2013-06-02T11:00:59Z</time>
      </trkpt>
      <trkpt lat="41.658556399" lon="2.540683232">
        <ele>420.71</ele>
        <time>2013-06-02T11:01:08Z</time>
      </trkpt>
      <trkpt lat="41.658468054" lon="2.540525317">
        <ele>422.64</ele>
        <time>2013-06-02T11:01:16Z</time>
      </trkpt>
      <trkpt lat="41.658474927" lon="2.540384837">
        <ele>424.08</ele>
        <time>2013-06-02T11:01:23Z</time>
      </trkpt>
      <trkpt lat="41.658560757" lon="2.540263299">
        <ele>426.00</ele>
        <time>2013-06-02T11:01:31Z</time>
      </trkpt>
      <trkpt lat="41.658676595" lon="2.540161794">
        <ele>427.92</ele>
        <time>2013-06-02T11:01:40Z</time>
      </trkpt>
      <trkpt lat="41.658762845" lon="2.540092560">
        <ele>428.89</ele>
        <time>2013-06-02T11:01:47Z</time>
      </trkpt>
      <trkpt lat="41.658848089" lon="2.539982924">
        <ele>430.81</ele>
        <time>2013-06-02T11:01:54Z</time>
      </trkpt>
      <trkpt lat="41.658854040" lon="2.539964400">
        <ele>430.81</ele>
        <time>2013-06-02T11:01:55Z</time>
      </trkpt>
      <trkpt lat="41.658824955" lon="2.539730042">
        <ele>432.25</ele>
        <time>2013-06-02T11:02:03Z</time>
      </trkpt>
      <trkpt lat="41.658745495" lon="2.539693246">
        <ele>433.21</ele>
        <time>2013-06-02T11:02:09Z</time>
      </trkpt>
      <trkpt lat="41.658606355" lon="2.539678494">
        <ele>433.21</ele>
        <time>2013-06-02T11:02:14Z</time>
      </trkpt>
      <trkpt lat="41.658488841" lon="2.539538684">
        <ele>431.77</ele>
        <time>2013-06-02T11:02:19Z</time>
      </trkpt>
      <trkpt lat="41.658318185" lon="2.539480513">
        <ele>432.25</ele>
        <time>2013-06-02T11:02:26Z</time>
      </trkpt>
      <trkpt lat="41.658137471" lon="2.539436927">
        <ele>433.69</ele>
        <time>2013-06-02T11:02:34Z</time>
      </trkpt>
      <trkpt lat="41.658051892" lon="2.539374901">
        <ele>433.69</ele>
        <time>2013-06-02T11:02:38Z</time>
      </trkpt>
      <trkpt lat="41.658018448" lon="2.539213885">
        <ele>434.17</ele>
        <time>2013-06-02T11:02:44Z</time>
      </trkpt>
      <trkpt lat="41.658109141" lon="2.539026801">
        <ele>436.10</ele>
        <time>2013-06-02T11:02:52Z</time>
      </trkpt>
      <trkpt lat="41.658219782" lon="2.538903587">
        <ele>437.54</ele>
        <time>2013-06-02T11:03:00Z</time>
      </trkpt>
      <trkpt lat="41.658231852" lon="2.538882967">
        <ele>438.02</ele>
        <time>2013-06-02T11:03:01Z</time>
      </trkpt>
      <trkpt lat="41.658269905" lon="2.538668558">
        <ele>439.46</ele>
        <time>2013-06-02T11:03:10Z</time>
      </trkpt>
      <trkpt lat="41.658217602" lon="2.538436044">
        <ele>441.38</ele>
        <time>2013-06-02T11:03:19Z</time>
      </trkpt>
      <trkpt lat="41.658190780" lon="2.538236722">
        <ele>442.82</ele>
        <time>2013-06-02T11:03:27Z</time>
      </trkpt>
      <trkpt lat="41.658200084" lon="2.538021391">
        <ele>442.82</ele>
        <time>2013-06-02T11:03:33Z</time>
      </trkpt>
      <trkpt lat="41.658272420" lon="2.537818717">
        <ele>442.82</ele>
        <time>2013-06-02T11:03:39Z</time>
      </trkpt>
      <trkpt lat="41.658284490" lon="2.537626017">
        <ele>443.31</ele>
        <time>2013-06-02T11:03:45Z</time>
      </trkpt>
      <trkpt lat="41.658189858" lon="2.537384786">
        <ele>444.27</ele>
        <time>2013-06-02T11:03:52Z</time>
      </trkpt>
      <trkpt lat="41.658136130" lon="2.537196780">
        <ele>446.67</ele>
        <time>2013-06-02T11:04:00Z</time>
      </trkpt>
      <trkpt lat="41.658121462" lon="2.537017491">
        <ele>448.59</ele>
        <time>2013-06-02T11:04:09Z</time>
      </trkpt>
      <trkpt lat="41.658096400" lon="2.536813056">
        <ele>451.00</ele>
        <time>2013-06-02T11:04:19Z</time>
      </trkpt>
      <trkpt lat="41.658110146" lon="2.536616333">
        <ele>452.44</ele>
        <time>2013-06-02T11:04:28Z</time>
      </trkpt>
      <trkpt lat="41.658198240" lon="2.536474260">
        <ele>452.92</ele>
        <time>2013-06-02T11:04:35Z</time>
      </trkpt>
      <trkpt lat="41.658250040" lon="2.536410809">
        <ele>452.92</ele>
        <time>2013-06-02T11:04:37Z</time>
      </trkpt>
      <trkpt lat="41.658284825" lon="2.536337132">
        <ele>452.92</ele>
        <time>2013-06-02T11:04:39Z</time>
      </trkpt>
      <trkpt lat="41.658305109" lon="2.536015015">
        <ele>451.48</ele>
        <time>2013-06-02T11:04:45Z</time>
      </trkpt>
      <trkpt lat="41.658318604" lon="2.535980147">
        <ele>451.00</ele>
        <time>2013-06-02T11:04:50Z</time>
      </trkpt>
      <trkpt lat="41.658329417" lon="2.535970926">
        <ele>451.00</ele>
        <time>2013-06-02T11:05:05Z</time>
      </trkpt>
      <trkpt lat="41.658348863" lon="2.535959778">
        <ele>451.00</ele>
        <time>2013-06-02T11:05:09Z</time>
      </trkpt>
      <trkpt lat="41.658369315" lon="2.535959108">
        <ele>451.00</ele>
        <time>2013-06-02T11:05:11Z</time>
      </trkpt>
      <trkpt lat="41.658431006" lon="2.536005795">
        <ele>451.00</ele>
        <time>2013-06-02T11:05:18Z</time>
      </trkpt>
      <trkpt lat="41.658475681" lon="2.536023900">
        <ele>452.44</ele>
        <time>2013-06-02T11:05:21Z</time>
      </trkpt>
      <trkpt lat="41.658645499" lon="2.536072683">
        <ele>453.88</ele>
        <time>2013-06-02T11:05:32Z</time>
      </trkpt>
      <trkpt lat="41.658769802" lon="2.536135044">
        <ele>455.32</ele>
        <time>2013-06-02T11:05:40Z</time>
      </trkpt>
      <trkpt lat="41.658940290" lon="2.536196903">
        <ele>455.32</ele>
        <time>2013-06-02T11:05:47Z</time>
      </trkpt>
      <trkpt lat="41.659008016" lon="2.536238141">
        <ele>455.32</ele>
        <time>2013-06-02T11:05:49Z</time>
      </trkpt>
      <trkpt lat="41.659254444" lon="2.536437631">
        <ele>450.03</ele>
        <time>2013-06-02T11:05:54Z</time>
      </trkpt>
      <trkpt lat="41.659449491" lon="2.536701828">
        <ele>447.15</ele>
        <time>2013-06-02T11:05:58Z</time>
      </trkpt>
      <trkpt lat="41.659661888" lon="2.536855301">
        <ele>442.82</ele>
        <time>2013-06-02T11:06:03Z</time>
      </trkpt>
      <trkpt lat="41.659723244" lon="2.536972731">
        <ele>439.94</ele>
        <time>2013-06-02T11:06:07Z</time>
      </trkpt>
      <trkpt lat="41.659842434" lon="2.537132239">
        <ele>436.10</ele>
        <time>2013-06-02T11:06:11Z</time>
      </trkpt>
      <trkpt lat="41.659973276" lon="2.537196780">
        <ele>432.73</ele>
        <time>2013-06-02T11:06:16Z</time>
      </trkpt>
      <trkpt lat="41.660078553" lon="2.537261656">
        <ele>430.81</ele>
        <time>2013-06-02T11:06:20Z</time>
      </trkpt>
      <trkpt lat="41.660214423" lon="2.537355365">
        <ele>427.44</ele>
        <time>2013-06-02T11:06:24Z</time>
      </trkpt>
      <trkpt lat="41.660339565" lon="2.537363077">
        <ele>425.52</ele>
        <time>2013-06-02T11:06:29Z</time>
      </trkpt>
      <trkpt lat="41.660400753" lon="2.537395179">
        <ele>424.08</ele>
        <time>2013-06-02T11:06:32Z</time>
      </trkpt>
      <trkpt lat="41.660432269" lon="2.537443543">
        <ele>422.16</ele>
        <time>2013-06-02T11:06:34Z</time>
      </trkpt>
      <trkpt lat="41.660478705" lon="2.537509089">
        <ele>420.23</ele>
        <time>2013-06-02T11:06:36Z</time>
      </trkpt>
      <trkpt lat="41.660582724" lon="2.537489979">
        <ele>418.31</ele>
        <time>2013-06-02T11:06:43Z</time>
      </trkpt>
      <trkpt lat="41.660665370" lon="2.537417978">
        <ele>414.95</ele>
        <time>2013-06-02T11:06:48Z</time>
      </trkpt>
      <trkpt lat="41.660714404" lon="2.537229302">
        <ele>411.58</ele>
        <time>2013-06-02T11:06:55Z</time>
      </trkpt>
      <trkpt lat="41.660711973" lon="2.537140202">
        <ele>410.62</ele>
        <time>2013-06-02T11:06:57Z</time>
      </trkpt>
      <trkpt lat="41.660737957" lon="2.537028974">
        <ele>408.70</ele>
        <time>2013-06-02T11:07:01Z</time>
      </trkpt>
      <trkpt lat="41.660867457" lon="2.536881620">
        <ele>407.74</ele>
        <time>2013-06-02T11:07:08Z</time>
      </trkpt>
      <trkpt lat="41.660891178" lon="2.536852451">
        <ele>407.26</ele>
        <time>2013-06-02T11:07:09Z</time>
      </trkpt>
      <trkpt lat="41.660991677" lon="2.536678359">
        <ele>404.37</ele>
        <time>2013-06-02T11:07:14Z</time>
      </trkpt>
      <trkpt lat="41.661058732" lon="2.536598396">
        <ele>402.93</ele>
        <time>2013-06-02T11:07:20Z</time>
      </trkpt>
      <trkpt lat="41.661192340" lon="2.536474008">
        <ele>400.05</ele>
        <time>2013-06-02T11:07:27Z</time>
      </trkpt>
      <trkpt lat="41.661266017" lon="2.536482809">
        <ele>399.57</ele>
        <time>2013-06-02T11:07:32Z</time>
      </trkpt>
      <trkpt lat="41.661273477" lon="2.536465375">
        <ele>399.57</ele>
        <time>2013-06-02T11:07:38Z</time>
      </trkpt>
      <trkpt lat="41.661257886" lon="2.536443079">
        <ele>399.57</ele>
        <time>2013-06-02T11:07:45Z</time>
      </trkpt>
      <trkpt lat="41.661235255" lon="2.536439810">
        <ele>399.57</ele>
        <time>2013-06-02T11:08:01Z</time>
      </trkpt>
      <trkpt lat="41.661228131" lon="2.536428411">
        <ele>399.57</ele>
        <time>2013-06-02T11:08:02Z</time>
      </trkpt>
      <trkpt lat="41.661169122" lon="2.536449952">
        <ele>401.01</ele>
        <time>2013-06-02T11:08:07Z</time>
      </trkpt>
      <trkpt lat="41.661088823" lon="2.536534777">
        <ele>402.45</ele>
        <time>2013-06-02T11:08:14Z</time>
      </trkpt>
      <trkpt lat="41.661073904" lon="2.536450874">
        <ele>401.01</ele>
        <time>2013-06-02T11:08:20Z</time>
      </trkpt>
      <trkpt lat="41.661087901" lon="2.536426650">
        <ele>400.53</ele>
        <time>2013-06-02T11:08:21Z</time>
      </trkpt>
      <trkpt lat="41.661149341" lon="2.536338808">
        <ele>397.16</ele>
        <time>2013-06-02T11:08:25Z</time>
      </trkpt>
      <trkpt lat="41.661163171" lon="2.536193382">
        <ele>394.28</ele>
        <time>2013-06-02T11:08:31Z</time>
      </trkpt>
      <trkpt lat="41.661139366" lon="2.535975536">
        <ele>390.43</ele>
        <time>2013-06-02T11:08:37Z</time>
      </trkpt>
      <trkpt lat="41.661083207" lon="2.535812006">
        <ele>388.99</ele>
        <time>2013-06-02T11:08:42Z</time>
      </trkpt>
      <trkpt lat="41.660948762" lon="2.535675381">
        <ele>386.11</ele>
        <time>2013-06-02T11:08:47Z</time>
      </trkpt>
      <trkpt lat="41.660902913" lon="2.535490560">
        <ele>382.74</ele>
        <time>2013-06-02T11:08:52Z</time>
      </trkpt>
      <trkpt lat="41.660950606" lon="2.535424510">
        <ele>380.82</ele>
        <time>2013-06-02T11:08:54Z</time>
      </trkpt>
      <trkpt lat="41.661121764" lon="2.535191577">
        <ele>377.45</ele>
        <time>2013-06-02T11:09:01Z</time>
      </trkpt>
      <trkpt lat="41.661119417" lon="2.535156373">
        <ele>377.45</ele>
        <time>2013-06-02T11:09:02Z</time>
      </trkpt>
      <trkpt lat="41.661099720" lon="2.534917405">
        <ele>372.65</ele>
        <time>2013-06-02T11:09:08Z</time>
      </trkpt>
      <trkpt lat="41.661110197" lon="2.534742978">
        <ele>370.24</ele>
        <time>2013-06-02T11:09:12Z</time>
      </trkpt>
      <trkpt lat="41.661120675" lon="2.534697715">
        <ele>369.76</ele>
        <time>2013-06-02T11:09:13Z</time>
      </trkpt>
      <trkpt lat="41.661232238" lon="2.534549942">
        <ele>368.80</ele>
        <time>2013-06-02T11:09:17Z</time>
      </trkpt>
      <trkpt lat="41.661355033" lon="2.534294965">
        <ele>368.32</ele>
        <time>2013-06-02T11:09:24Z</time>
      </trkpt>
      <trkpt lat="41.661373724" lon="2.534254396">
        <ele>368.32</ele>
        <time>2013-06-02T11:09:25Z</time>
      </trkpt>
      <trkpt lat="41.661392332" lon="2.533961197">
        <ele>364.48</ele>
        <time>2013-06-02T11:09:30Z</time>
      </trkpt>
      <trkpt lat="41.661360313" lon="2.533832871">
        <ele>362.55</ele>
        <time>2013-06-02T11:09:32Z</time>
      </trkpt>
      <trkpt lat="41.661334581" lon="2.533654001">
        <ele>358.71</ele>
        <time>2013-06-02T11:09:35Z</time>
      </trkpt>
      <trkpt lat="41.661328965" lon="2.533470605">
        <ele>355.83</ele>
        <time>2013-06-02T11:09:38Z</time>
      </trkpt>
      <trkpt lat="41.661335167" lon="2.533354767">
        <ele>353.42</ele>
        <time>2013-06-02T11:09:40Z</time>
      </trkpt>
      <trkpt lat="41.661329552" lon="2.533133652">
        <ele>348.62</ele>
        <time>2013-06-02T11:09:44Z</time>
      </trkpt>
      <trkpt lat="41.661289067" lon="2.533046899">
        <ele>346.69</ele>
        <time>2013-06-02T11:09:46Z</time>
      </trkpt>
      <trkpt lat="41.661212037" lon="2.532916729">
        <ele>343.81</ele>
        <time>2013-06-02T11:09:50Z</time>
      </trkpt>
      <trkpt lat="41.661165015" lon="2.532733919">
        <ele>339.48</ele>
        <time>2013-06-02T11:09:54Z</time>
      </trkpt>
      <trkpt lat="41.661125536" lon="2.532659991">
        <ele>338.52</ele>
        <time>2013-06-02T11:09:56Z</time>
      </trkpt>
      <trkpt lat="41.661056888" lon="2.532513308">
        <ele>336.12</ele>
        <time>2013-06-02T11:10:00Z</time>
      </trkpt>
      <trkpt lat="41.661004418" lon="2.532342317">
        <ele>333.71</ele>
        <time>2013-06-02T11:10:06Z</time>
      </trkpt>
      <trkpt lat="41.660965861" lon="2.532148779">
        <ele>331.31</ele>
        <time>2013-06-02T11:10:11Z</time>
      </trkpt>
      <trkpt lat="41.660936608" lon="2.531957084">
        <ele>328.43</ele>
        <time>2013-06-02T11:10:15Z</time>
      </trkpt>
      <trkpt lat="41.660880282" lon="2.531841414">
        <ele>326.02</ele>
        <time>2013-06-02T11:10:18Z</time>
      </trkpt>
      <trkpt lat="41.660830912" lon="2.531696491">
        <ele>323.62</ele>
        <time>2013-06-02T11:10:21Z</time>
      </trkpt>
      <trkpt lat="41.660737873" lon="2.531645613">
        <ele>320.74</ele>
        <time>2013-06-02T11:10:26Z</time>
      </trkpt>
      <trkpt lat="41.660704932" lon="2.531709902">
        <ele>318.81</ele>
        <time>2013-06-02T11:10:29Z</time>
      </trkpt>
      <trkpt lat="41.660572247" lon="2.531706885">
        <ele>313.53</ele>
        <time>2013-06-02T11:10:35Z</time>
      </trkpt>
      <trkpt lat="41.660459091" lon="2.531662544">
        <ele>309.68</ele>
        <time>2013-06-02T11:10:38Z</time>
      </trkpt>
      <trkpt lat="41.660408716" lon="2.531576881">
        <ele>308.72</ele>
        <time>2013-06-02T11:10:41Z</time>
      </trkpt>
      <trkpt lat="41.660399244" lon="2.531367920">
        <ele>304.88</ele>
        <time>2013-06-02T11:10:47Z</time>
      </trkpt>
      <trkpt lat="41.660388599" lon="2.531254094">
        <ele>302.95</ele>
        <time>2013-06-02T11:10:50Z</time>
      </trkpt>
      <trkpt lat="41.660449619" lon="2.531077990">
        <ele>301.99</ele>
        <time>2013-06-02T11:10:55Z</time>
      </trkpt>
      <trkpt lat="41.660494043" lon="2.530944886">
        <ele>301.51</ele>
        <time>2013-06-02T11:11:00Z</time>
      </trkpt>
      <trkpt lat="41.660518770" lon="2.530873975">
        <ele>301.51</ele>
        <time>2013-06-02T11:11:07Z</time>
      </trkpt>
      <trkpt lat="41.660546095" lon="2.530824522">
        <ele>301.51</ele>
        <time>2013-06-02T11:11:20Z</time>
      </trkpt>
      <trkpt lat="41.660543664" lon="2.530764004">
        <ele>301.51</ele>
        <time>2013-06-02T11:11:40Z</time>
      </trkpt>
      <trkpt lat="41.660533438" lon="2.530731734">
        <ele>301.51</ele>
        <time>2013-06-02T11:11:49Z</time>
      </trkpt>
      <trkpt lat="41.660535534" lon="2.530658225">
        <ele>302.47</ele>
        <time>2013-06-02T11:11:58Z</time>
      </trkpt>
      <trkpt lat="41.660537629" lon="2.530645736">
        <ele>302.47</ele>
        <time>2013-06-02T11:11:59Z</time>
      </trkpt>
      <trkpt lat="41.660557578" lon="2.530537944">
        <ele>302.47</ele>
        <time>2013-06-02T11:12:06Z</time>
      </trkpt>
      <trkpt lat="41.660570738" lon="2.530475667">
        <ele>302.47</ele>
        <time>2013-06-02T11:12:09Z</time>
      </trkpt>
      <trkpt lat="41.660548526" lon="2.530305766">
        <ele>302.47</ele>
        <time>2013-06-02T11:12:16Z</time>
      </trkpt>
      <trkpt lat="41.660514914" lon="2.530208619">
        <ele>300.55</ele>
        <time>2013-06-02T11:12:19Z</time>
      </trkpt>
      <trkpt lat="41.660453894" lon="2.530043244">
        <ele>297.67</ele>
        <time>2013-06-02T11:12:24Z</time>
      </trkpt>
      <trkpt lat="41.660446686" lon="2.529830177">
        <ele>295.74</ele>
        <time>2013-06-02T11:12:30Z</time>
      </trkpt>
      <trkpt lat="41.660475184" lon="2.529537648">
        <ele>294.78</ele>
        <time>2013-06-02T11:12:36Z</time>
      </trkpt>
      <trkpt lat="41.660492870" lon="2.529470677">
        <ele>293.82</ele>
        <time>2013-06-02T11:12:38Z</time>
      </trkpt>
      <trkpt lat="41.660483398" lon="2.529222572">
        <ele>293.34</ele>
        <time>2013-06-02T11:12:44Z</time>
      </trkpt>
      <trkpt lat="41.660514914" lon="2.529146381">
        <ele>292.86</ele>
        <time>2013-06-02T11:12:48Z</time>
      </trkpt>
      <trkpt lat="41.660529667" lon="2.529115033">
        <ele>293.34</ele>
        <time>2013-06-02T11:12:56Z</time>
      </trkpt>
      <trkpt lat="41.660542323" lon="2.529103801">
        <ele>293.34</ele>
        <time>2013-06-02T11:13:02Z</time>
      </trkpt>
      <trkpt lat="41.660560680" lon="2.529046133">
        <ele>293.34</ele>
        <time>2013-06-02T11:13:20Z</time>
      </trkpt>
      <trkpt lat="41.660580545" lon="2.529066669">
        <ele>292.86</ele>
        <time>2013-06-02T11:13:36Z</time>
      </trkpt>
      <trkpt lat="41.660567469" lon="2.529096425">
        <ele>292.86</ele>
        <time>2013-06-02T11:13:56Z</time>
      </trkpt>
      <trkpt lat="41.660552046" lon="2.529067675">
        <ele>292.86</ele>
        <time>2013-06-02T11:14:11Z</time>
      </trkpt>
      <trkpt lat="41.660554728" lon="2.529049821">
        <ele>292.86</ele>
        <time>2013-06-02T11:14:31Z</time>
      </trkpt>
      <trkpt lat="41.660554309" lon="2.529009085">
        <ele>292.86</ele>
        <time>2013-06-02T11:14:54Z</time>
      </trkpt>
      <trkpt lat="41.660526481" lon="2.529039344">
        <ele>292.38</ele>
        <time>2013-06-02T11:15:18Z</time>
      </trkpt>
      <trkpt lat="41.660564451" lon="2.529010929">
        <ele>292.38</ele>
        <time>2013-06-02T11:15:35Z</time>
      </trkpt>
      <trkpt lat="41.660577527" lon="2.529002212">
        <ele>292.38</ele>
        <time>2013-06-02T11:15:47Z</time>
      </trkpt>
      <trkpt lat="41.660571828" lon="2.529022999">
        <ele>292.38</ele>
        <time>2013-06-02T11:16:00Z</time>
      </trkpt>
      <trkpt lat="41.660549867" lon="2.529023083">
        <ele>292.38</ele>
        <time>2013-06-02T11:16:16Z</time>
      </trkpt>
      <trkpt lat="41.660539725" lon="2.528991902">
        <ele>292.38</ele>
        <time>2013-06-02T11:16:30Z</time>
      </trkpt>
      <trkpt lat="41.660559841" lon="2.529045211">
        <ele>292.38</ele>
        <time>2013-06-02T11:16:46Z</time>
      </trkpt>
      <trkpt lat="41.660528325" lon="2.529066501">
        <ele>292.38</ele>
        <time>2013-06-02T11:17:01Z</time>
      </trkpt>
      <trkpt lat="41.660530421" lon="2.529008582">
        <ele>292.38</ele>
        <time>2013-06-02T11:17:16Z</time>
      </trkpt>
      <trkpt lat="41.660551292" lon="2.528992070">
        <ele>292.38</ele>
        <time>2013-06-02T11:17:28Z</time>
      </trkpt>
      <trkpt lat="41.660572247" lon="2.528992657">
        <ele>292.38</ele>
        <time>2013-06-02T11:17:44Z</time>
      </trkpt>
      <trkpt lat="41.660545341" lon="2.529003386">
        <ele>291.90</ele>
        <time>2013-06-02T11:17:56Z</time>
      </trkpt>
      <trkpt lat="41.660536288" lon="2.529020820">
        <ele>292.38</ele>
        <time>2013-06-02T11:18:10Z</time>
      </trkpt>
      <trkpt lat="41.660553555" lon="2.529038925">
        <ele>292.38</ele>
        <time>2013-06-02T11:18:29Z</time>
      </trkpt>
      <trkpt lat="41.660552130" lon="2.529003637">
        <ele>292.38</ele>
        <time>2013-06-02T11:18:44Z</time>
      </trkpt>
      <trkpt lat="41.660549951" lon="2.529001458">
        <ele>292.38</ele>
        <time>2013-06-02T11:18:54Z</time>
      </trkpt>
      <trkpt lat="41.660544335" lon="2.529022077">
        <ele>292.38</ele>
        <time>2013-06-02T11:19:11Z</time>
      </trkpt>
      <trkpt lat="41.660528577" lon="2.529051079">
        <ele>292.38</ele>
        <time>2013-06-02T11:19:29Z</time>
      </trkpt>
      <trkpt lat="41.660554226" lon="2.529044541">
        <ele>292.38</ele>
        <time>2013-06-02T11:19:48Z</time>
      </trkpt>
      <trkpt lat="41.660545089" lon="2.528993160">
        <ele>292.38</ele>
        <time>2013-06-02T11:20:06Z</time>
      </trkpt>
      <trkpt lat="41.660576940" lon="2.529097011">
        <ele>291.90</ele>
        <time>2013-06-02T11:20:32Z</time>
      </trkpt>
      <trkpt lat="41.660573085" lon="2.529102292">
        <ele>291.90</ele>
        <time>2013-06-02T11:20:56Z</time>
      </trkpt>
      <trkpt lat="41.660562356" lon="2.529050911">
        <ele>291.90</ele>
        <time>2013-06-02T11:21:17Z</time>
      </trkpt>
      <trkpt lat="41.660562188" lon="2.529072033">
        <ele>291.90</ele>
        <time>2013-06-02T11:21:48Z</time>
      </trkpt>
      <trkpt lat="41.660544586" lon="2.529072452">
        <ele>291.90</ele>
        <time>2013-06-02T11:22:12Z</time>
      </trkpt>
      <trkpt lat="41.660530337" lon="2.529030962">
        <ele>291.90</ele>
        <time>2013-06-02T11:22:36Z</time>
      </trkpt>
      <trkpt lat="41.660528745" lon="2.529077733">
        <ele>291.90</ele>
        <time>2013-06-02T11:22:59Z</time>
      </trkpt>
      <trkpt lat="41.660556153" lon="2.529097011">
        <ele>291.90</ele>
        <time>2013-06-02T11:23:24Z</time>
      </trkpt>
      <trkpt lat="41.660546598" lon="2.529108998">
        <ele>291.90</ele>
        <time>2013-06-02T11:23:48Z</time>
      </trkpt>
      <trkpt lat="41.660531091" lon="2.529061137">
        <ele>291.90</ele>
        <time>2013-06-02T11:24:20Z</time>
      </trkpt>
      <trkpt lat="41.660576018" lon="2.529075386">
        <ele>291.42</ele>
        <time>2013-06-02T11:24:47Z</time>
      </trkpt>
      <trkpt lat="41.660577695" lon="2.529084606">
        <ele>291.42</ele>
        <time>2013-06-02T11:25:13Z</time>
      </trkpt>
      <trkpt lat="41.660583562" lon="2.529119643">
        <ele>291.42</ele>
        <time>2013-06-02T11:25:39Z</time>
      </trkpt>
      <trkpt lat="41.660564954" lon="2.529083600">
        <ele>291.42</ele>
        <time>2013-06-02T11:26:03Z</time>
      </trkpt>
      <trkpt lat="41.660616503" lon="2.529072033">
        <ele>290.94</ele>
        <time>2013-06-02T11:26:26Z</time>
      </trkpt>
      <trkpt lat="41.660572247" lon="2.529071363">
        <ele>290.94</ele>
        <time>2013-06-02T11:26:53Z</time>
      </trkpt>
      <trkpt lat="41.660564871" lon="2.529132886">
        <ele>290.46</ele>
        <time>2013-06-02T11:27:18Z</time>
      </trkpt>
      <trkpt lat="41.660555986" lon="2.529166917">
        <ele>290.46</ele>
        <time>2013-06-02T11:27:47Z</time>
      </trkpt>
      <trkpt lat="41.660571325" lon="2.529108914">
        <ele>290.46</ele>
        <time>2013-06-02T11:28:19Z</time>
      </trkpt>
      <trkpt lat="41.660531343" lon="2.529065160">
        <ele>289.97</ele>
        <time>2013-06-02T11:28:46Z</time>
      </trkpt>
      <trkpt lat="41.660526565" lon="2.529091815">
        <ele>289.97</ele>
        <time>2013-06-02T11:29:13Z</time>
      </trkpt>
      <trkpt lat="41.660548191" lon="2.529071614">
        <ele>290.94</ele>
        <time>2013-06-02T11:29:35Z</time>
      </trkpt>
      <trkpt lat="41.660563529" lon="2.529052336">
        <ele>290.94</ele>
        <time>2013-06-02T11:29:53Z</time>
      </trkpt>
      <trkpt lat="41.660569983" lon="2.529087791">
        <ele>290.94</ele>
        <time>2013-06-02T11:30:14Z</time>
      </trkpt>
      <trkpt lat="41.660603763" lon="2.529126767">
        <ele>290.94</ele>
        <time>2013-06-02T11:30:35Z</time>
      </trkpt>
      <trkpt lat="41.660576773" lon="2.529167168">
        <ele>290.94</ele>
        <time>2013-06-02T11:30:50Z</time>
      </trkpt>
      <trkpt lat="41.660617844" lon="2.529183680">
        <ele>290.94</ele>
        <time>2013-06-02T11:31:09Z</time>
      </trkpt>
      <trkpt lat="41.660625975" lon="2.529129952">
        <ele>290.46</ele>
        <time>2013-06-02T11:31:35Z</time>
      </trkpt>
      <trkpt lat="41.660641565" lon="2.529126013">
        <ele>290.46</ele>
        <time>2013-06-02T11:31:54Z</time>
      </trkpt>
      <trkpt lat="41.660606529" lon="2.529110590">
        <ele>290.46</ele>
        <time>2013-06-02T11:32:10Z</time>
      </trkpt>
      <trkpt lat="41.660597811" lon="2.529053006">
        <ele>290.46</ele>
        <time>2013-06-02T11:32:29Z</time>
      </trkpt>
      <trkpt lat="41.660576270" lon="2.529048396">
        <ele>290.46</ele>
        <time>2013-06-02T11:32:49Z</time>
      </trkpt>
      <trkpt lat="41.660567469" lon="2.529029872">
        <ele>290.46</ele>
        <time>2013-06-02T11:33:12Z</time>
      </trkpt>
      <trkpt lat="41.660525643" lon="2.529011851">
        <ele>290.46</ele>
        <time>2013-06-02T11:33:34Z</time>
      </trkpt>
      <trkpt lat="41.660500414" lon="2.529009840">
        <ele>290.46</ele>
        <time>2013-06-02T11:33:52Z</time>
      </trkpt>
      <trkpt lat="41.660552801" lon="2.529031465">
        <ele>290.46</ele>
        <time>2013-06-02T11:34:13Z</time>
      </trkpt>
      <trkpt lat="41.660563362" lon="2.529033309">
        <ele>290.46</ele>
        <time>2013-06-02T11:34:37Z</time>
      </trkpt>
      <trkpt lat="41.660519524" lon="2.529024089">
        <ele>290.46</ele>
        <time>2013-06-02T11:34:56Z</time>
      </trkpt>
      <trkpt lat="41.660558836" lon="2.529074548">
        <ele>289.97</ele>
        <time>2013-06-02T11:35:16Z</time>
      </trkpt>
      <trkpt lat="41.660598231" lon="2.529090725">
        <ele>289.97</ele>
        <time>2013-06-02T11:35:36Z</time>
      </trkpt>
      <trkpt lat="41.660616838" lon="2.529123582">
        <ele>289.97</ele>
        <time>2013-06-02T11:36:02Z</time>
      </trkpt>
      <trkpt lat="41.660591441" lon="2.529143447">
        <ele>289.97</ele>
        <time>2013-06-02T11:36:25Z</time>
      </trkpt>
      <trkpt lat="41.660569313" lon="2.529097431">
        <ele>289.97</ele>
        <time>2013-06-02T11:36:45Z</time>
      </trkpt>
      <trkpt lat="41.660541653" lon="2.529067842">
        <ele>289.97</ele>
        <time>2013-06-02T11:37:02Z</time>
      </trkpt>
      <trkpt lat="41.660541401" lon="2.529045547">
        <ele>289.97</ele>
        <time>2013-06-02T11:37:26Z</time>
      </trkpt>
      <trkpt lat="41.660516758" lon="2.529066669">
        <ele>289.97</ele>
        <time>2013-06-02T11:37:43Z</time>
      </trkpt>
      <trkpt lat="41.660513154" lon="2.529074296">
        <ele>289.49</ele>
        <time>2013-06-02T11:38:03Z</time>
      </trkpt>
      <trkpt lat="41.660552633" lon="2.529029286">
        <ele>289.49</ele>
        <time>2013-06-02T11:38:28Z</time>
      </trkpt>
      <trkpt lat="41.660583981" lon="2.529109249">
        <ele>289.49</ele>
        <time>2013-06-02T11:38:46Z</time>
      </trkpt>
      <trkpt lat="41.660593620" lon="2.529117296">
        <ele>289.49</ele>
        <time>2013-06-02T11:39:06Z</time>
      </trkpt>
      <trkpt lat="41.660608876" lon="2.529071363">
        <ele>289.49</ele>
        <time>2013-06-02T11:39:26Z</time>
      </trkpt>
      <trkpt lat="41.660588675" lon="2.529073123">
        <ele>289.49</ele>
        <time>2013-06-02T11:39:50Z</time>
      </trkpt>
      <trkpt lat="41.660596051" lon="2.529072788">
        <ele>289.49</ele>
        <time>2013-06-02T11:40:11Z</time>
      </trkpt>
      <trkpt lat="41.660598566" lon="2.529084858">
        <ele>289.49</ele>
        <time>2013-06-02T11:40:35Z</time>
      </trkpt>
      <trkpt lat="41.660587837" lon="2.529034985">
        <ele>289.49</ele>
        <time>2013-06-02T11:40:56Z</time>
      </trkpt>
      <trkpt lat="41.660571828" lon="2.528998021">
        <ele>289.49</ele>
        <time>2013-06-02T11:41:18Z</time>
      </trkpt>
      <trkpt lat="41.660581718" lon="2.529004643">
        <ele>289.49</ele>
        <time>2013-06-02T11:41:41Z</time>
      </trkpt>
      <trkpt lat="41.660602086" lon="2.529016964">
        <ele>289.49</ele>
        <time>2013-06-02T11:42:04Z</time>
      </trkpt>
      <trkpt lat="41.660572917" lon="2.528980168">
        <ele>289.49</ele>
        <time>2013-06-02T11:42:25Z</time>
      </trkpt>
      <trkpt lat="41.660568223" lon="2.528984610">
        <ele>289.49</ele>
        <time>2013-06-02T11:42:57Z</time>
      </trkpt>
      <trkpt lat="41.660567888" lon="2.528997602">
        <ele>289.49</ele>
        <time>2013-06-02T11:43:26Z</time>
      </trkpt>
      <trkpt lat="41.660581802" lon="2.529018892">
        <ele>289.49</ele>
        <time>2013-06-02T11:43:50Z</time>
      </trkpt>
      <trkpt lat="41.660603343" lon="2.528991735">
        <ele>289.97</ele>
        <time>2013-06-02T11:44:19Z</time>
      </trkpt>
      <trkpt lat="41.660594375" lon="2.528969774">
        <ele>289.97</ele>
        <time>2013-06-02T11:44:30Z</time>
      </trkpt>
      <trkpt lat="41.660586831" lon="2.528971870">
        <ele>289.97</ele>
        <time>2013-06-02T11:44:42Z</time>
      </trkpt>
      <trkpt lat="41.660562272" lon="2.528974468">
        <ele>289.97</ele>
        <time>2013-06-02T11:44:49Z</time>
      </trkpt>
      <trkpt lat="41.660576521" lon="2.528957201">
        <ele>290.46</ele>
        <time>2013-06-02T11:44:56Z</time>
      </trkpt>
      <trkpt lat="41.660576689" lon="2.528983353">
        <ele>290.46</ele>
        <time>2013-06-02T11:45:03Z</time>
      </trkpt>
      <trkpt lat="41.660574426" lon="2.529002799">
        <ele>290.94</ele>
        <time>2013-06-02T11:45:20Z</time>
      </trkpt>
      <trkpt lat="41.660600913" lon="2.528980084">
        <ele>290.94</ele>
        <time>2013-06-02T11:45:27Z</time>
      </trkpt>
      <trkpt lat="41.660619353" lon="2.528958878">
        <ele>290.94</ele>
        <time>2013-06-02T11:45:29Z</time>
      </trkpt>
      <trkpt lat="41.660732928" lon="2.528818816">
        <ele>290.94</ele>
        <time>2013-06-02T11:45:37Z</time>
      </trkpt>
      <trkpt lat="41.660796798" lon="2.528747738">
        <ele>290.94</ele>
        <time>2013-06-02T11:45:41Z</time>
      </trkpt>
      <trkpt lat="41.660835355" lon="2.528672887">
        <ele>290.94</ele>
        <time>2013-06-02T11:45:44Z</time>
      </trkpt>
      <trkpt lat="41.660883467" lon="2.528477254">
        <ele>290.94</ele>
        <time>2013-06-02T11:45:52Z</time>
      </trkpt>
      <trkpt lat="41.660923867" lon="2.528403744">
        <ele>290.94</ele>
        <time>2013-06-02T11:45:59Z</time>
      </trkpt>
      <trkpt lat="41.660959742" lon="2.528360158">
        <ele>291.42</ele>
        <time>2013-06-02T11:46:08Z</time>
      </trkpt>
      <trkpt lat="41.660961083" lon="2.528334426">
        <ele>291.42</ele>
        <time>2013-06-02T11:46:16Z</time>
      </trkpt>
      <trkpt lat="41.660974243" lon="2.528272400">
        <ele>291.42</ele>
        <time>2013-06-02T11:46:23Z</time>
      </trkpt>
      <trkpt lat="41.660981870" lon="2.528191347">
        <ele>291.42</ele>
        <time>2013-06-02T11:46:30Z</time>
      </trkpt>
      <trkpt lat="41.660992599" lon="2.528115239">
        <ele>291.42</ele>
        <time>2013-06-02T11:46:34Z</time>
      </trkpt>
      <trkpt lat="41.661005675" lon="2.527951205">
        <ele>292.86</ele>
        <time>2013-06-02T11:46:43Z</time>
      </trkpt>
      <trkpt lat="41.661022690" lon="2.527792536">
        <ele>295.26</ele>
        <time>2013-06-02T11:46:52Z</time>
      </trkpt>
      <trkpt lat="41.660995952" lon="2.527644763">
        <ele>295.74</ele>
        <time>2013-06-02T11:46:59Z</time>
      </trkpt>
      <trkpt lat="41.660890759" lon="2.527525824">
        <ele>295.74</ele>
        <time>2013-06-02T11:47:05Z</time>
      </trkpt>
      <trkpt lat="41.660822866" lon="2.527460948">
        <ele>295.74</ele>
        <time>2013-06-02T11:47:08Z</time>
      </trkpt>
      <trkpt lat="41.660828817" lon="2.527325915">
        <ele>295.74</ele>
        <time>2013-06-02T11:47:13Z</time>
      </trkpt>
      <trkpt lat="41.660839210" lon="2.527311834">
        <ele>295.74</ele>
        <time>2013-06-02T11:47:14Z</time>
      </trkpt>
      <trkpt lat="41.660957227" lon="2.527159954">
        <ele>295.74</ele>
        <time>2013-06-02T11:47:22Z</time>
      </trkpt>
      <trkpt lat="41.660985726" lon="2.527119804">
        <ele>295.74</ele>
        <time>2013-06-02T11:47:24Z</time>
      </trkpt>
      <trkpt lat="41.661142887" lon="2.526944455">
        <ele>299.11</ele>
        <time>2013-06-02T11:47:34Z</time>
      </trkpt>
      <trkpt lat="41.661193010" lon="2.526882680">
        <ele>300.07</ele>
        <time>2013-06-02T11:47:38Z</time>
      </trkpt>
      <trkpt lat="41.661213043" lon="2.526794754">
        <ele>301.03</ele>
        <time>2013-06-02T11:47:43Z</time>
      </trkpt>
      <trkpt lat="41.661171134" lon="2.526766507">
        <ele>301.99</ele>
        <time>2013-06-02T11:47:47Z</time>
      </trkpt>
      <trkpt lat="41.661028641" lon="2.526790144">
        <ele>302.95</ele>
        <time>2013-06-02T11:47:56Z</time>
      </trkpt>
      <trkpt lat="41.660880282" lon="2.526815541">
        <ele>303.43</ele>
        <time>2013-06-02T11:48:04Z</time>
      </trkpt>
      <trkpt lat="41.660704010" lon="2.526843956">
        <ele>304.88</ele>
        <time>2013-06-02T11:48:14Z</time>
      </trkpt>
      <trkpt lat="41.660673835" lon="2.526852673">
        <ele>304.88</ele>
        <time>2013-06-02T11:48:16Z</time>
      </trkpt>
      <trkpt lat="41.660588424" lon="2.526798777">
        <ele>306.32</ele>
        <time>2013-06-02T11:48:23Z</time>
      </trkpt>
      <trkpt lat="41.660524218" lon="2.526764328">
        <ele>306.80</ele>
        <time>2013-06-02T11:48:27Z</time>
      </trkpt>
      <trkpt lat="41.660426485" lon="2.526663829">
        <ele>308.24</ele>
        <time>2013-06-02T11:48:37Z</time>
      </trkpt>
      <trkpt lat="41.660336464" lon="2.526540280">
        <ele>309.20</ele>
        <time>2013-06-02T11:48:45Z</time>
      </trkpt>
      <trkpt lat="41.660232696" lon="2.526417401">
        <ele>311.12</ele>
        <time>2013-06-02T11:48:54Z</time>
      </trkpt>
      <trkpt lat="41.660174777" lon="2.526299048">
        <ele>311.60</ele>
        <time>2013-06-02T11:49:01Z</time>
      </trkpt>
      <trkpt lat="41.660142255" lon="2.526162004">
        <ele>312.57</ele>
        <time>2013-06-02T11:49:08Z</time>
      </trkpt>
      <trkpt lat="41.660136891" lon="2.526056057">
        <ele>313.05</ele>
        <time>2013-06-02T11:49:13Z</time>
      </trkpt>
      <trkpt lat="41.660156169" lon="2.525947511">
        <ele>313.05</ele>
        <time>2013-06-02T11:49:18Z</time>
      </trkpt>
      <trkpt lat="41.660251555" lon="2.525759841">
        <ele>314.01</ele>
        <time>2013-06-02T11:49:27Z</time>
      </trkpt>
      <trkpt lat="41.660290531" lon="2.525564291">
        <ele>314.49</ele>
        <time>2013-06-02T11:49:34Z</time>
      </trkpt>
      <trkpt lat="41.660231103" lon="2.525390702">
        <ele>315.45</ele>
        <time>2013-06-02T11:49:42Z</time>
      </trkpt>
      <trkpt lat="41.660092886" lon="2.525247455">
        <ele>315.93</ele>
        <time>2013-06-02T11:49:51Z</time>
      </trkpt>
      <trkpt lat="41.659922314" lon="2.525177131">
        <ele>316.89</ele>
        <time>2013-06-02T11:50:01Z</time>
      </trkpt>
      <trkpt lat="41.659911920" lon="2.525168581">
        <ele>317.37</ele>
        <time>2013-06-02T11:50:02Z</time>
      </trkpt>
      <trkpt lat="41.659804297" lon="2.525022652">
        <ele>318.33</ele>
        <time>2013-06-02T11:50:11Z</time>
      </trkpt>
      <trkpt lat="41.659732296" lon="2.524888206">
        <ele>318.81</ele>
        <time>2013-06-02T11:50:18Z</time>
      </trkpt>
      <trkpt lat="41.659665576" lon="2.524750576">
        <ele>320.26</ele>
        <time>2013-06-02T11:50:25Z</time>
      </trkpt>
      <trkpt lat="41.659592067" lon="2.524590397">
        <ele>321.70</ele>
        <time>2013-06-02T11:50:33Z</time>
      </trkpt>
      <trkpt lat="41.659521743" lon="2.524413539">
        <ele>322.66</ele>
        <time>2013-06-02T11:50:41Z</time>
      </trkpt>
      <trkpt lat="41.659406743" lon="2.524272639">
        <ele>324.58</ele>
        <time>2013-06-02T11:50:49Z</time>
      </trkpt>
      <trkpt lat="41.659371874" lon="2.524268951">
        <ele>325.54</ele>
        <time>2013-06-02T11:50:52Z</time>
      </trkpt>
      <trkpt lat="41.659358296" lon="2.524414126">
        <ele>326.50</ele>
        <time>2013-06-02T11:51:01Z</time>
      </trkpt>
      <trkpt lat="41.659378580" lon="2.524586374">
        <ele>328.91</ele>
        <time>2013-06-02T11:51:10Z</time>
      </trkpt>
      <trkpt lat="41.659394338" lon="2.524643455">
        <ele>329.39</ele>
        <time>2013-06-02T11:51:13Z</time>
      </trkpt>
      <trkpt lat="41.659403642" lon="2.524780331">
        <ele>330.35</ele>
        <time>2013-06-02T11:51:20Z</time>
      </trkpt>
      <trkpt lat="41.659440019" lon="2.524974959">
        <ele>331.31</ele>
        <time>2013-06-02T11:51:28Z</time>
      </trkpt>
      <trkpt lat="41.659436415" lon="2.525066489">
        <ele>332.27</ele>
        <time>2013-06-02T11:51:32Z</time>
      </trkpt>
      <trkpt lat="41.659354775" lon="2.525145112">
        <ele>333.23</ele>
        <time>2013-06-02T11:51:39Z</time>
      </trkpt>
      <trkpt lat="41.659342789" lon="2.525133964">
        <ele>333.71</ele>
        <time>2013-06-02T11:51:40Z</time>
      </trkpt>
      <trkpt lat="41.659280344" lon="2.524987113">
        <ele>335.16</ele>
        <time>2013-06-02T11:51:49Z</time>
      </trkpt>
      <trkpt lat="41.659215300" lon="2.524847387">
        <ele>337.08</ele>
        <time>2013-06-02T11:51:58Z</time>
      </trkpt>
      <trkpt lat="41.659151095" lon="2.524685113">
        <ele>338.52</ele>
        <time>2013-06-02T11:52:07Z</time>
      </trkpt>
      <trkpt lat="41.659059062" lon="2.524528455">
        <ele>339.00</ele>
        <time>2013-06-02T11:52:15Z</time>
      </trkpt>
      <trkpt lat="41.658913636" lon="2.524334246">
        <ele>340.44</ele>
        <time>2013-06-02T11:52:26Z</time>
      </trkpt>
      <trkpt lat="41.658815819" lon="2.524227880">
        <ele>341.89</ele>
        <time>2013-06-02T11:52:33Z</time>
      </trkpt>
      <trkpt lat="41.658668130" lon="2.524111204">
        <ele>343.33</ele>
        <time>2013-06-02T11:52:42Z</time>
      </trkpt>
      <trkpt lat="41.658575510" lon="2.523992349">
        <ele>344.77</ele>
        <time>2013-06-02T11:52:50Z</time>
      </trkpt>
      <trkpt lat="41.658535276" lon="2.523791267">
        <ele>346.21</ele>
        <time>2013-06-02T11:52:59Z</time>
      </trkpt>
      <trkpt lat="41.658505018" lon="2.523553724">
        <ele>348.13</ele>
        <time>2013-06-02T11:53:09Z</time>
      </trkpt>
      <trkpt lat="41.658459588" lon="2.523333866">
        <ele>349.10</ele>
        <time>2013-06-02T11:53:18Z</time>
      </trkpt>
      <trkpt lat="41.658394544" lon="2.523169330">
        <ele>350.06</ele>
        <time>2013-06-02T11:53:26Z</time>
      </trkpt>
      <trkpt lat="41.658348444" lon="2.522977300">
        <ele>350.54</ele>
        <time>2013-06-02T11:53:34Z</time>
      </trkpt>
      <trkpt lat="41.658293542" lon="2.522797676">
        <ele>351.50</ele>
        <time>2013-06-02T11:53:42Z</time>
      </trkpt>
      <trkpt lat="41.658241994" lon="2.522582848">
        <ele>352.46</ele>
        <time>2013-06-02T11:53:50Z</time>
      </trkpt>
      <trkpt lat="41.658201425" lon="2.522312112">
        <ele>352.94</ele>
        <time>2013-06-02T11:53:59Z</time>
      </trkpt>
      <trkpt lat="41.658216345" lon="2.522045484">
        <ele>354.38</ele>
        <time>2013-06-02T11:54:09Z</time>
      </trkpt>
      <trkpt lat="41.658230930" lon="2.521864435">
        <ele>355.34</ele>
        <time>2013-06-02T11:54:17Z</time>
      </trkpt>
      <trkpt lat="41.658251465" lon="2.521666370">
        <ele>357.27</ele>
        <time>2013-06-02T11:54:25Z</time>
      </trkpt>
      <trkpt lat="41.658263116" lon="2.521439137">
        <ele>359.19</ele>
        <time>2013-06-02T11:54:35Z</time>
      </trkpt>
      <trkpt lat="41.658268481" lon="2.521283234">
        <ele>360.63</ele>
        <time>2013-06-02T11:54:43Z</time>
      </trkpt>
      <trkpt lat="41.658302846" lon="2.521121044">
        <ele>362.07</ele>
        <time>2013-06-02T11:54:51Z</time>
      </trkpt>
      <trkpt lat="41.658348695" lon="2.520935049">
        <ele>363.04</ele>
        <time>2013-06-02T11:54:58Z</time>
      </trkpt>
      <trkpt lat="41.658354311" lon="2.520827845">
        <ele>364.00</ele>
        <time>2013-06-02T11:55:02Z</time>
      </trkpt>
      <trkpt lat="41.658336374" lon="2.520605557">
        <ele>364.48</ele>
        <time>2013-06-02T11:55:10Z</time>
      </trkpt>
      <trkpt lat="41.658363615" lon="2.520385113">
        <ele>364.96</ele>
        <time>2013-06-02T11:55:17Z</time>
      </trkpt>
      <trkpt lat="41.658393622" lon="2.520144720">
        <ele>365.44</ele>
        <time>2013-06-02T11:55:25Z</time>
      </trkpt>
      <trkpt lat="41.658342996" lon="2.520027289">
        <ele>365.92</ele>
        <time>2013-06-02T11:55:31Z</time>
      </trkpt>
      <trkpt lat="41.658312402" lon="2.519932239">
        <ele>366.88</ele>
        <time>2013-06-02T11:55:36Z</time>
      </trkpt>
      <trkpt lat="41.658234785" lon="2.519804498">
        <ele>366.88</ele>
        <time>2013-06-02T11:55:43Z</time>
      </trkpt>
      <trkpt lat="41.658056670" lon="2.519593526">
        <ele>365.44</ele>
        <time>2013-06-02T11:55:49Z</time>
      </trkpt>
      <trkpt lat="41.658020963" lon="2.519546755">
        <ele>365.44</ele>
        <time>2013-06-02T11:55:50Z</time>
      </trkpt>
      <trkpt lat="41.657986178" lon="2.519502750">
        <ele>365.44</ele>
        <time>2013-06-02T11:55:51Z</time>
      </trkpt>
      <trkpt lat="41.657849302" lon="2.519283395">
        <ele>365.44</ele>
        <time>2013-06-02T11:55:57Z</time>
      </trkpt>
      <trkpt lat="41.657700104" lon="2.519059934">
        <ele>365.44</ele>
        <time>2013-06-02T11:56:05Z</time>
      </trkpt>
      <trkpt lat="41.657540345" lon="2.518832114">
        <ele>365.44</ele>
        <time>2013-06-02T11:56:13Z</time>
      </trkpt>
      <trkpt lat="41.657404558" lon="2.518647293">
        <ele>364.48</ele>
        <time>2013-06-02T11:56:18Z</time>
      </trkpt>
      <trkpt lat="41.657339347" lon="2.518535311">
        <ele>364.48</ele>
        <time>2013-06-02T11:56:20Z</time>
      </trkpt>
      <trkpt lat="41.657195513" lon="2.518356105">
        <ele>362.55</ele>
        <time>2013-06-02T11:56:24Z</time>
      </trkpt>
      <trkpt lat="41.657122507" lon="2.518293660">
        <ele>361.11</ele>
        <time>2013-06-02T11:56:26Z</time>
      </trkpt>
      <trkpt lat="41.657061822" lon="2.518258037">
        <ele>358.71</ele>
        <time>2013-06-02T11:56:28Z</time>
      </trkpt>
      <trkpt lat="41.656897788" lon="2.518146726">
        <ele>354.38</ele>
        <time>2013-06-02T11:56:34Z</time>
      </trkpt>
      <trkpt lat="41.656808856" lon="2.518083274">
        <ele>351.50</ele>
        <time>2013-06-02T11:56:38Z</time>
      </trkpt>
      <trkpt lat="41.656830230" lon="2.518004904">
        <ele>349.10</ele>
        <time>2013-06-02T11:56:43Z</time>
      </trkpt>
      <trkpt lat="41.656964508" lon="2.517903231">
        <ele>344.77</ele>
        <time>2013-06-02T11:56:49Z</time>
      </trkpt>
      <trkpt lat="41.657129380" lon="2.517788315">
        <ele>341.89</ele>
        <time>2013-06-02T11:56:56Z</time>
      </trkpt>
      <trkpt lat="41.657324091" lon="2.517822011">
        <ele>340.92</ele>
        <time>2013-06-02T11:57:02Z</time>
      </trkpt>
      <trkpt lat="41.657358876" lon="2.517769624">
        <ele>339.00</ele>
        <time>2013-06-02T11:57:07Z</time>
      </trkpt>
      <trkpt lat="41.657308166" lon="2.517726289">
        <ele>338.52</ele>
        <time>2013-06-02T11:57:11Z</time>
      </trkpt>
      <trkpt lat="41.657104067" lon="2.517583629">
        <ele>336.12</ele>
        <time>2013-06-02T11:57:19Z</time>
      </trkpt>
      <trkpt lat="41.656976410" lon="2.517530237">
        <ele>333.23</ele>
        <time>2013-06-02T11:57:22Z</time>
      </trkpt>
      <trkpt lat="41.656712380" lon="2.517442562">
        <ele>329.87</ele>
        <time>2013-06-02T11:57:27Z</time>
      </trkpt>
      <trkpt lat="41.656590256" lon="2.517392522">
        <ele>329.39</ele>
        <time>2013-06-02T11:57:29Z</time>
      </trkpt>
      <trkpt lat="41.656373248" lon="2.517231086">
        <ele>328.43</ele>
        <time>2013-06-02T11:57:33Z</time>
      </trkpt>
      <trkpt lat="41.656117852" lon="2.517023383">
        <ele>326.50</ele>
        <time>2013-06-02T11:57:38Z</time>
      </trkpt>
      <trkpt lat="41.655883661" lon="2.516869323">
        <ele>324.10</ele>
        <time>2013-06-02T11:57:44Z</time>
      </trkpt>
      <trkpt lat="41.655793388" lon="2.516828001">
        <ele>322.66</ele>
        <time>2013-06-02T11:57:48Z</time>
      </trkpt>
      <trkpt lat="41.655757765" lon="2.516894637">
        <ele>322.18</ele>
        <time>2013-06-02T11:57:53Z</time>
      </trkpt>
      <trkpt lat="41.655774110" lon="2.516944761">
        <ele>322.18</ele>
        <time>2013-06-02T11:57:55Z</time>
      </trkpt>
      <trkpt lat="41.655825491" lon="2.517218430">
        <ele>322.18</ele>
        <time>2013-06-02T11:58:03Z</time>
      </trkpt>
      <trkpt lat="41.655854744" lon="2.517464187">
        <ele>321.70</ele>
        <time>2013-06-02T11:58:09Z</time>
      </trkpt>
      <trkpt lat="41.655853822" lon="2.517554460">
        <ele>321.22</ele>
        <time>2013-06-02T11:58:11Z</time>
      </trkpt>
      <trkpt lat="41.655732200" lon="2.517708771">
        <ele>321.22</ele>
        <time>2013-06-02T11:58:17Z</time>
      </trkpt>
      <trkpt lat="41.655476217" lon="2.517836427">
        <ele>323.14</ele>
        <time>2013-06-02T11:58:28Z</time>
      </trkpt>
      <trkpt lat="41.655374964" lon="2.517931227">
        <ele>324.10</ele>
        <time>2013-06-02T11:58:34Z</time>
      </trkpt>
      <trkpt lat="41.655287960" lon="2.518071456">
        <ele>325.54</ele>
        <time>2013-06-02T11:58:41Z</time>
      </trkpt>
      <trkpt lat="41.655274884" lon="2.518223168">
        <ele>326.99</ele>
        <time>2013-06-02T11:58:48Z</time>
      </trkpt>
      <trkpt lat="41.655289971" lon="2.518386113">
        <ele>329.39</ele>
        <time>2013-06-02T11:58:56Z</time>
      </trkpt>
      <trkpt lat="41.655322409" lon="2.518514943">
        <ele>330.83</ele>
        <time>2013-06-02T11:59:04Z</time>
      </trkpt>
      <trkpt lat="41.655369348" lon="2.518617118">
        <ele>332.27</ele>
        <time>2013-06-02T11:59:11Z</time>
      </trkpt>
      <trkpt lat="41.655400277" lon="2.518732872">
        <ele>333.71</ele>
        <time>2013-06-02T11:59:18Z</time>
      </trkpt>
      <trkpt lat="41.655384603" lon="2.518878549">
        <ele>334.68</ele>
        <time>2013-06-02T11:59:26Z</time>
      </trkpt>
      <trkpt lat="41.655286618" lon="2.519047864">
        <ele>334.68</ele>
        <time>2013-06-02T11:59:34Z</time>
      </trkpt>
      <trkpt lat="41.655277482" lon="2.519164037">
        <ele>335.16</ele>
        <time>2013-06-02T11:59:40Z</time>
      </trkpt>
      <trkpt lat="41.655268346" lon="2.519229081">
        <ele>335.64</ele>
        <time>2013-06-02T11:59:44Z</time>
      </trkpt>
      <trkpt lat="41.655215372" lon="2.519470060">
        <ele>337.08</ele>
        <time>2013-06-02T11:59:55Z</time>
      </trkpt>
      <trkpt lat="41.655198273" lon="2.519711124">
        <ele>337.08</ele>
        <time>2013-06-02T12:00:02Z</time>
      </trkpt>
      <trkpt lat="41.655236243" lon="2.520053944">
        <ele>337.08</ele>
        <time>2013-06-02T12:00:11Z</time>
      </trkpt>
      <trkpt lat="41.655211181" lon="2.520264832">
        <ele>337.08</ele>
        <time>2013-06-02T12:00:17Z</time>
      </trkpt>
      <trkpt lat="41.655205063" lon="2.520299617">
        <ele>337.08</ele>
        <time>2013-06-02T12:00:18Z</time>
      </trkpt>
      <trkpt lat="41.655123255" lon="2.520370864">
        <ele>334.20</ele>
        <time>2013-06-02T12:00:22Z</time>
      </trkpt>
      <trkpt lat="41.654986882" lon="2.520389974">
        <ele>333.23</ele>
        <time>2013-06-02T12:00:25Z</time>
      </trkpt>
      <trkpt lat="41.654699382" lon="2.520396596">
        <ele>331.31</ele>
        <time>2013-06-02T12:00:30Z</time>
      </trkpt>
      <trkpt lat="41.654483716" lon="2.520250248">
        <ele>330.35</ele>
        <time>2013-06-02T12:00:35Z</time>
      </trkpt>
      <trkpt lat="41.654319598" lon="2.520034665">
        <ele>328.91</ele>
        <time>2013-06-02T12:00:39Z</time>
      </trkpt>
      <trkpt lat="41.654276515" lon="2.519998958">
        <ele>328.91</ele>
        <time>2013-06-02T12:00:40Z</time>
      </trkpt>
      <trkpt lat="41.654082390" lon="2.519891083">
        <ele>329.39</ele>
        <time>2013-06-02T12:00:45Z</time>
      </trkpt>
      <trkpt lat="41.653819869" lon="2.519913631">
        <ele>325.06</ele>
        <time>2013-06-02T12:00:51Z</time>
      </trkpt>
      <trkpt lat="41.653781648" lon="2.519922516">
        <ele>325.06</ele>
        <time>2013-06-02T12:00:52Z</time>
      </trkpt>
      <trkpt lat="41.653742253" lon="2.519921007">
        <ele>324.58</ele>
        <time>2013-06-02T12:00:53Z</time>
      </trkpt>
      <trkpt lat="41.653619039" lon="2.519898208">
        <ele>321.70</ele>
        <time>2013-06-02T12:00:56Z</time>
      </trkpt>
      <trkpt lat="41.653377808" lon="2.519805085">
        <ele>317.85</ele>
        <time>2013-06-02T12:01:01Z</time>
      </trkpt>
      <trkpt lat="41.653252833" lon="2.519762421">
        <ele>317.37</ele>
        <time>2013-06-02T12:01:03Z</time>
      </trkpt>
      <trkpt lat="41.652995425" lon="2.519670220">
        <ele>314.97</ele>
        <time>2013-06-02T12:01:08Z</time>
      </trkpt>
      <trkpt lat="41.652945972" lon="2.519580282">
        <ele>313.53</ele>
        <time>2013-06-02T12:01:13Z</time>
      </trkpt>
      <trkpt lat="41.652941194" lon="2.519550862">
        <ele>313.05</ele>
        <time>2013-06-02T12:01:15Z</time>
      </trkpt>
      <trkpt lat="41.652902805" lon="2.519359168">
        <ele>310.16</ele>
        <time>2013-06-02T12:01:24Z</time>
      </trkpt>
      <trkpt lat="41.652900710" lon="2.519341733">
        <ele>310.16</ele>
        <time>2013-06-02T12:01:25Z</time>
      </trkpt>
      <trkpt lat="41.652869278" lon="2.519161271">
        <ele>308.72</ele>
        <time>2013-06-02T12:01:32Z</time>
      </trkpt>
      <trkpt lat="41.652819908" lon="2.518889446">
        <ele>307.28</ele>
        <time>2013-06-02T12:01:37Z</time>
      </trkpt>
      <trkpt lat="41.652707842" lon="2.518590380">
        <ele>305.36</ele>
        <time>2013-06-02T12:01:43Z</time>
      </trkpt>
      <trkpt lat="41.652654952" lon="2.518496921">
        <ele>303.91</ele>
        <time>2013-06-02T12:01:49Z</time>
      </trkpt>
      <trkpt lat="41.652534001" lon="2.518440260">
        <ele>301.51</ele>
        <time>2013-06-02T12:01:54Z</time>
      </trkpt>
      <trkpt lat="41.652458145" lon="2.518451743">
        <ele>300.07</ele>
        <time>2013-06-02T12:01:57Z</time>
      </trkpt>
      <trkpt lat="41.652341134" lon="2.518341605">
        <ele>296.70</ele>
        <time>2013-06-02T12:02:04Z</time>
      </trkpt>
      <trkpt lat="41.652271899" lon="2.518224677">
        <ele>295.26</ele>
        <time>2013-06-02T12:02:08Z</time>
      </trkpt>
      <trkpt lat="41.652063609" lon="2.518024853">
        <ele>292.86</ele>
        <time>2013-06-02T12:02:14Z</time>
      </trkpt>
      <trkpt lat="41.652021532" lon="2.517983781">
        <ele>292.86</ele>
        <time>2013-06-02T12:02:15Z</time>
      </trkpt>
      <trkpt lat="41.651886919" lon="2.517886384">
        <ele>291.90</ele>
        <time>2013-06-02T12:02:18Z</time>
      </trkpt>
      <trkpt lat="41.651639904" lon="2.517798625">
        <ele>291.90</ele>
        <time>2013-06-02T12:02:24Z</time>
      </trkpt>
      <trkpt lat="41.651500680" lon="2.517621264">
        <ele>290.46</ele>
        <time>2013-06-02T12:02:30Z</time>
      </trkpt>
      <trkpt lat="41.651481318" lon="2.517511126">
        <ele>288.53</ele>
        <time>2013-06-02T12:02:36Z</time>
      </trkpt>
      <trkpt lat="41.651482827" lon="2.517491177">
        <ele>288.53</ele>
        <time>2013-06-02T12:02:37Z</time>
      </trkpt>
      <trkpt lat="41.651424321" lon="2.517421356">
        <ele>285.65</ele>
        <time>2013-06-02T12:02:43Z</time>
      </trkpt>
      <trkpt lat="41.651355757" lon="2.517418003">
        <ele>283.73</ele>
        <time>2013-06-02T12:02:47Z</time>
      </trkpt>
      <trkpt lat="41.651304795" lon="2.517417668">
        <ele>281.80</ele>
        <time>2013-06-02T12:02:49Z</time>
      </trkpt>
      <trkpt lat="41.651234639" lon="2.517401993">
        <ele>279.88</ele>
        <time>2013-06-02T12:02:53Z</time>
      </trkpt>
      <trkpt lat="41.651181665" lon="2.517381625">
        <ele>277.96</ele>
        <time>2013-06-02T12:02:58Z</time>
      </trkpt>
      <trkpt lat="41.651179067" lon="2.517377183">
        <ele>277.96</ele>
        <time>2013-06-02T12:03:02Z</time>
      </trkpt>
      <trkpt lat="41.651152077" lon="2.517363101">
        <ele>276.52</ele>
        <time>2013-06-02T12:03:08Z</time>
      </trkpt>
      <trkpt lat="41.651130033" lon="2.517362515">
        <ele>276.04</ele>
        <time>2013-06-02T12:03:15Z</time>
      </trkpt>
      <trkpt lat="41.650983517" lon="2.517302165">
        <ele>273.63</ele>
        <time>2013-06-02T12:03:22Z</time>
      </trkpt>
      <trkpt lat="41.650811269" lon="2.517231086">
        <ele>271.23</ele>
        <time>2013-06-02T12:03:28Z</time>
      </trkpt>
      <trkpt lat="41.650607337" lon="2.517107118">
        <ele>269.31</ele>
        <time>2013-06-02T12:03:35Z</time>
      </trkpt>
      <trkpt lat="41.650486386" lon="2.516948532">
        <ele>268.83</ele>
        <time>2013-06-02T12:03:41Z</time>
      </trkpt>
      <trkpt lat="41.650387228" lon="2.516821630">
        <ele>268.83</ele>
        <time>2013-06-02T12:03:45Z</time>
      </trkpt>
      <trkpt lat="41.650165527" lon="2.516555924">
        <ele>267.38</ele>
        <time>2013-06-02T12:03:51Z</time>
      </trkpt>
      <trkpt lat="41.649862605" lon="2.516194748">
        <ele>265.46</ele>
        <time>2013-06-02T12:03:58Z</time>
      </trkpt>
      <trkpt lat="41.649719777" lon="2.515997270">
        <ele>265.46</ele>
        <time>2013-06-02T12:04:03Z</time>
      </trkpt>
      <trkpt lat="41.649612405" lon="2.515780850">
        <ele>268.35</ele>
        <time>2013-06-02T12:04:11Z</time>
      </trkpt>
      <trkpt lat="41.649537471" lon="2.515543642">
        <ele>270.75</ele>
        <time>2013-06-02T12:04:19Z</time>
      </trkpt>
      <trkpt lat="41.649477121" lon="2.515310625">
        <ele>270.75</ele>
        <time>2013-06-02T12:04:25Z</time>
      </trkpt>
      <trkpt lat="41.649450383" lon="2.515196379">
        <ele>269.31</ele>
        <time>2013-06-02T12:04:27Z</time>
      </trkpt>
      <trkpt lat="41.649393805" lon="2.515007703">
        <ele>268.83</ele>
        <time>2013-06-02T12:04:30Z</time>
      </trkpt>
      <trkpt lat="41.649214349" lon="2.514798239">
        <ele>266.90</ele>
        <time>2013-06-02T12:04:34Z</time>
      </trkpt>
      <trkpt lat="41.648966077" lon="2.514687263">
        <ele>264.98</ele>
        <time>2013-06-02T12:04:38Z</time>
      </trkpt>
      <trkpt lat="41.648904805" lon="2.514659686">
        <ele>264.50</ele>
        <time>2013-06-02T12:04:39Z</time>
      </trkpt>
      <trkpt lat="41.648710093" lon="2.514543262">
        <ele>265.94</ele>
        <time>2013-06-02T12:04:44Z</time>
      </trkpt>
      <trkpt lat="41.648558632" lon="2.514443182">
        <ele>265.94</ele>
        <time>2013-06-02T12:04:50Z</time>
      </trkpt>
      <trkpt lat="41.648414631" lon="2.514302366">
        <ele>264.50</ele>
        <time>2013-06-02T12:04:54Z</time>
      </trkpt>
      <trkpt lat="41.648257806" lon="2.514049148">
        <ele>264.02</ele>
        <time>2013-06-02T12:04:59Z</time>
      </trkpt>
      <trkpt lat="41.648158061" lon="2.513668358">
        <ele>263.54</ele>
        <time>2013-06-02T12:05:07Z</time>
      </trkpt>
      <trkpt lat="41.648164851" lon="2.513253119">
        <ele>262.58</ele>
        <time>2013-06-02T12:05:14Z</time>
      </trkpt>
      <trkpt lat="41.648202904" lon="2.512731094">
        <ele>260.17</ele>
        <time>2013-06-02T12:05:20Z</time>
      </trkpt>
      <trkpt lat="41.648213717" lon="2.512374863">
        <ele>256.81</ele>
        <time>2013-06-02T12:05:24Z</time>
      </trkpt>
      <trkpt lat="41.648193684" lon="2.512035899">
        <ele>252.96</ele>
        <time>2013-06-02T12:05:27Z</time>
      </trkpt>
      <trkpt lat="41.648159235" lon="2.511671789">
        <ele>248.16</ele>
        <time>2013-06-02T12:05:30Z</time>
      </trkpt>
      <trkpt lat="41.648137777" lon="2.511440113">
        <ele>245.27</ele>
        <time>2013-06-02T12:05:32Z</time>
      </trkpt>
      <trkpt lat="41.648128641" lon="2.511242887">
        <ele>241.91</ele>
        <time>2013-06-02T12:05:34Z</time>
      </trkpt>
      <trkpt lat="41.648122522" lon="2.511152614">
        <ele>240.95</ele>
        <time>2013-06-02T12:05:35Z</time>
      </trkpt>
      <trkpt lat="41.647997213" lon="2.510961423">
        <ele>237.10</ele>
        <time>2013-06-02T12:05:39Z</time>
      </trkpt>
      <trkpt lat="41.647948178" lon="2.510991514">
        <ele>236.14</ele>
        <time>2013-06-02T12:05:40Z</time>
      </trkpt>
      <trkpt lat="41.647819265" lon="2.511104502">
        <ele>233.74</ele>
        <time>2013-06-02T12:05:44Z</time>
      </trkpt>
      <trkpt lat="41.647787497" lon="2.510998722">
        <ele>232.78</ele>
        <time>2013-06-02T12:05:48Z</time>
      </trkpt>
      <trkpt lat="41.647859163" lon="2.510836784">
        <ele>230.85</ele>
        <time>2013-06-02T12:05:51Z</time>
      </trkpt>
      <trkpt lat="41.647975252" lon="2.510615083">
        <ele>227.97</ele>
        <time>2013-06-02T12:05:55Z</time>
      </trkpt>
      <trkpt lat="41.647982796" lon="2.510470159">
        <ele>226.05</ele>
        <time>2013-06-02T12:05:58Z</time>
      </trkpt>
      <trkpt lat="41.647852960" lon="2.510336049">
        <ele>226.05</ele>
        <time>2013-06-02T12:06:02Z</time>
      </trkpt>
      <trkpt lat="41.647752210" lon="2.510248039">
        <ele>226.05</ele>
        <time>2013-06-02T12:06:07Z</time>
      </trkpt>
      <trkpt lat="41.647610891" lon="2.510326242">
        <ele>226.05</ele>
        <time>2013-06-02T12:06:13Z</time>
      </trkpt>
      <trkpt lat="41.647519779" lon="2.510392124">
        <ele>225.57</ele>
        <time>2013-06-02T12:06:20Z</time>
      </trkpt>
      <trkpt lat="41.647503183" lon="2.510394806">
        <ele>225.57</ele>
        <time>2013-06-02T12:06:27Z</time>
      </trkpt>
      <trkpt lat="41.647507709" lon="2.510387262">
        <ele>225.57</ele>
        <time>2013-06-02T12:06:38Z</time>
      </trkpt>
      <trkpt lat="41.647506201" lon="2.510412241">
        <ele>225.57</ele>
        <time>2013-06-02T12:06:53Z</time>
      </trkpt>
      <trkpt lat="41.647519276" lon="2.510416683">
        <ele>225.57</ele>
        <time>2013-06-02T12:06:59Z</time>
      </trkpt>
      <trkpt lat="41.647552553" lon="2.510434955">
        <ele>225.57</ele>
        <time>2013-06-02T12:07:04Z</time>
      </trkpt>
      <trkpt lat="41.647474685" lon="2.510522630">
        <ele>225.57</ele>
        <time>2013-06-02T12:07:10Z</time>
      </trkpt>
      <trkpt lat="41.647461693" lon="2.510545932">
        <ele>225.57</ele>
        <time>2013-06-02T12:07:12Z</time>
      </trkpt>
      <trkpt lat="41.647445013" lon="2.510562193">
        <ele>225.57</ele>
        <time>2013-06-02T12:07:14Z</time>
      </trkpt>
      <trkpt lat="41.647365971" lon="2.510655232">
        <ele>225.57</ele>
        <time>2013-06-02T12:07:21Z</time>
      </trkpt>
      <trkpt lat="41.647342670" lon="2.510679372">
        <ele>225.57</ele>
        <time>2013-06-02T12:07:23Z</time>
      </trkpt>
      <trkpt lat="41.647296905" lon="2.510804430">
        <ele>225.57</ele>
        <time>2013-06-02T12:07:30Z</time>
      </trkpt>
      <trkpt lat="41.647244518" lon="2.510968212">
        <ele>225.57</ele>
        <time>2013-06-02T12:07:37Z</time>
      </trkpt>
      <trkpt lat="41.647210739" lon="2.511138532">
        <ele>226.53</ele>
        <time>2013-06-02T12:07:43Z</time>
      </trkpt>
      <trkpt lat="41.647166398" lon="2.511388313">
        <ele>227.01</ele>
        <time>2013-06-02T12:07:52Z</time>
      </trkpt>
      <trkpt lat="41.647137313" lon="2.511598447">
        <ele>227.97</ele>
        <time>2013-06-02T12:07:59Z</time>
      </trkpt>
      <trkpt lat="41.647108647" lon="2.511805145">
        <ele>227.97</ele>
        <time>2013-06-02T12:08:06Z</time>
      </trkpt>
      <trkpt lat="41.647083669" lon="2.512073031">
        <ele>228.93</ele>
        <time>2013-06-02T12:08:14Z</time>
      </trkpt>
      <trkpt lat="41.647051902" lon="2.512226336">
        <ele>229.41</ele>
        <time>2013-06-02T12:08:19Z</time>
      </trkpt>
      <trkpt lat="41.647002029" lon="2.512483912">
        <ele>229.89</ele>
        <time>2013-06-02T12:08:25Z</time>
      </trkpt>
      <trkpt lat="41.646985684" lon="2.512705278">
        <ele>230.37</ele>
        <time>2013-06-02T12:08:31Z</time>
      </trkpt>
      <trkpt lat="41.647000437" lon="2.512877694">
        <ele>230.37</ele>
        <time>2013-06-02T12:08:37Z</time>
      </trkpt>
      <trkpt lat="41.647048633" lon="2.512960842">
        <ele>231.33</ele>
        <time>2013-06-02T12:08:41Z</time>
      </trkpt>
      <trkpt lat="41.647006891" lon="2.513063520">
        <ele>231.33</ele>
        <time>2013-06-02T12:08:46Z</time>
      </trkpt>
      <trkpt lat="41.647020386" lon="2.513190171">
        <ele>231.33</ele>
        <time>2013-06-02T12:08:51Z</time>
      </trkpt>
      <trkpt lat="41.647005466" lon="2.513243899">
        <ele>231.33</ele>
        <time>2013-06-02T12:08:54Z</time>
      </trkpt>
      <trkpt lat="41.646926844" lon="2.513258735">
        <ele>231.33</ele>
        <time>2013-06-02T12:09:00Z</time>
      </trkpt>
      <trkpt lat="41.646913265" lon="2.513171563">
        <ele>229.89</ele>
        <time>2013-06-02T12:09:02Z</time>
      </trkpt>
      <trkpt lat="41.646816035" lon="2.512993699">
        <ele>227.01</ele>
        <time>2013-06-02T12:09:07Z</time>
      </trkpt>
      <trkpt lat="41.646661892" lon="2.513124792">
        <ele>227.01</ele>
        <time>2013-06-02T12:09:12Z</time>
      </trkpt>
      <trkpt lat="41.646593244" lon="2.513223447">
        <ele>227.01</ele>
        <time>2013-06-02T12:09:16Z</time>
      </trkpt>
      <trkpt lat="41.646477154" lon="2.513495356">
        <ele>227.01</ele>
        <time>2013-06-02T12:09:23Z</time>
      </trkpt>
      <trkpt lat="41.646388055" lon="2.513840523">
        <ele>228.45</ele>
        <time>2013-06-02T12:09:32Z</time>
      </trkpt>
      <trkpt lat="41.646295938" lon="2.514069097">
        <ele>228.93</ele>
        <time>2013-06-02T12:09:39Z</time>
      </trkpt>
      <trkpt lat="41.646176160" lon="2.514313011">
        <ele>229.89</ele>
        <time>2013-06-02T12:09:47Z</time>
      </trkpt>
      <trkpt lat="41.646059568" lon="2.514479308">
        <ele>229.89</ele>
        <time>2013-06-02T12:09:53Z</time>
      </trkpt>
      <trkpt lat="41.645892098" lon="2.514855068">
        <ele>229.89</ele>
        <time>2013-06-02T12:10:02Z</time>
      </trkpt>
      <trkpt lat="41.645747677" lon="2.515104095">
        <ele>229.89</ele>
        <time>2013-06-02T12:10:09Z</time>
      </trkpt>
      <trkpt lat="41.645515415" lon="2.515417075">
        <ele>230.85</ele>
        <time>2013-06-02T12:10:20Z</time>
      </trkpt>
      <trkpt lat="41.645437547" lon="2.515438616">
        <ele>231.33</ele>
        <time>2013-06-02T12:10:23Z</time>
      </trkpt>
      <trkpt lat="41.645334785" lon="2.515350606">
        <ele>232.78</ele>
        <time>2013-06-02T12:10:29Z</time>
      </trkpt>
      <trkpt lat="41.645281476" lon="2.515271565">
        <ele>233.74</ele>
        <time>2013-06-02T12:10:33Z</time>
      </trkpt>
      <trkpt lat="41.645155747" lon="2.515032094">
        <ele>235.18</ele>
        <time>2013-06-02T12:10:43Z</time>
      </trkpt>
      <trkpt lat="41.644983164" lon="2.514857499">
        <ele>237.58</ele>
        <time>2013-06-02T12:10:53Z</time>
      </trkpt>
      <trkpt lat="41.644850311" lon="2.514747361">
        <ele>239.99</ele>
        <time>2013-06-02T12:11:02Z</time>
      </trkpt>
      <trkpt lat="41.644727851" lon="2.514682485">
        <ele>241.91</ele>
        <time>2013-06-02T12:11:10Z</time>
      </trkpt>
      <trkpt lat="41.644611762" lon="2.514632780">
        <ele>242.39</ele>
        <time>2013-06-02T12:11:18Z</time>
      </trkpt>
      <trkpt lat="41.644546048" lon="2.514629847">
        <ele>242.87</ele>
        <time>2013-06-02T12:11:22Z</time>
      </trkpt>
      <trkpt lat="41.644387462" lon="2.514653484">
        <ele>244.31</ele>
        <time>2013-06-02T12:11:30Z</time>
      </trkpt>
      <trkpt lat="41.644283694" lon="2.514617441">
        <ele>244.79</ele>
        <time>2013-06-02T12:11:35Z</time>
      </trkpt>
      <trkpt lat="41.644162911" lon="2.514582740">
        <ele>246.23</ele>
        <time>2013-06-02T12:11:42Z</time>
      </trkpt>
      <trkpt lat="41.644025112" lon="2.514596319">
        <ele>247.68</ele>
        <time>2013-06-02T12:11:49Z</time>
      </trkpt>
      <trkpt lat="41.643912543" lon="2.514561953">
        <ele>250.08</ele>
        <time>2013-06-02T12:11:58Z</time>
      </trkpt>
      <trkpt lat="41.643819169" lon="2.514514595">
        <ele>251.52</ele>
        <time>2013-06-02T12:12:07Z</time>
      </trkpt>
      <trkpt lat="41.643712216" lon="2.514487689">
        <ele>252.48</ele>
        <time>2013-06-02T12:12:15Z</time>
      </trkpt>
      <trkpt lat="41.643618339" lon="2.514465394">
        <ele>253.44</ele>
        <time>2013-06-02T12:12:22Z</time>
      </trkpt>
      <trkpt lat="41.643558911" lon="2.514427675">
        <ele>254.41</ele>
        <time>2013-06-02T12:12:27Z</time>
      </trkpt>
      <trkpt lat="41.643494789" lon="2.514374701">
        <ele>255.37</ele>
        <time>2013-06-02T12:12:33Z</time>
      </trkpt>
      <trkpt lat="41.643439385" lon="2.514332708">
        <ele>255.37</ele>
        <time>2013-06-02T12:12:38Z</time>
      </trkpt>
      <trkpt lat="41.643344753" lon="2.514269341">
        <ele>256.81</ele>
        <time>2013-06-02T12:12:46Z</time>
      </trkpt>
      <trkpt lat="41.643265377" lon="2.514232209">
        <ele>257.77</ele>
        <time>2013-06-02T12:12:53Z</time>
      </trkpt>
      <trkpt lat="41.643223803" lon="2.514196083">
        <ele>258.73</ele>
        <time>2013-06-02T12:12:57Z</time>
      </trkpt>
      <trkpt lat="41.643077203" lon="2.514141517">
        <ele>260.17</ele>
        <time>2013-06-02T12:13:06Z</time>
      </trkpt>
      <trkpt lat="41.643002101" lon="2.514091225">
        <ele>260.65</ele>
        <time>2013-06-02T12:13:13Z</time>
      </trkpt>
      <trkpt lat="41.642933956" lon="2.514007239">
        <ele>262.10</ele>
        <time>2013-06-02T12:13:21Z</time>
      </trkpt>
      <trkpt lat="41.642805043" lon="2.513928365">
        <ele>263.54</ele>
        <time>2013-06-02T12:13:29Z</time>
      </trkpt>
      <trkpt lat="41.642759780" lon="2.513919145">
        <ele>264.50</ele>
        <time>2013-06-02T12:13:31Z</time>
      </trkpt>
      <trkpt lat="41.642509748" lon="2.513916211">
        <ele>265.46</ele>
        <time>2013-06-02T12:13:39Z</time>
      </trkpt>
      <trkpt lat="41.642371698" lon="2.513852844">
        <ele>265.94</ele>
        <time>2013-06-02T12:13:46Z</time>
      </trkpt>
      <trkpt lat="41.642220656" lon="2.513745556">
        <ele>266.90</ele>
        <time>2013-06-02T12:13:55Z</time>
      </trkpt>
      <trkpt lat="41.642097526" lon="2.513627958">
        <ele>268.83</ele>
        <time>2013-06-02T12:14:03Z</time>
      </trkpt>
      <trkpt lat="41.642006750" lon="2.513546486">
        <ele>270.75</ele>
        <time>2013-06-02T12:14:11Z</time>
      </trkpt>
      <trkpt lat="41.641949418" lon="2.513447579">
        <ele>271.71</ele>
        <time>2013-06-02T12:14:18Z</time>
      </trkpt>
      <trkpt lat="41.641848165" lon="2.513332412">
        <ele>273.15</ele>
        <time>2013-06-02T12:14:27Z</time>
      </trkpt>
      <trkpt lat="41.641837436" lon="2.513316235">
        <ele>273.15</ele>
        <time>2013-06-02T12:14:28Z</time>
      </trkpt>
      <trkpt lat="41.641787815" lon="2.513204169">
        <ele>274.59</ele>
        <time>2013-06-02T12:14:36Z</time>
      </trkpt>
      <trkpt lat="41.641746408" lon="2.513122361">
        <ele>275.56</ele>
        <time>2013-06-02T12:14:43Z</time>
      </trkpt>
      <trkpt lat="41.641691339" lon="2.513013480">
        <ele>277.00</ele>
        <time>2013-06-02T12:14:52Z</time>
      </trkpt>
      <trkpt lat="41.641639455" lon="2.512904767">
        <ele>278.92</ele>
        <time>2013-06-02T12:15:00Z</time>
      </trkpt>
      <trkpt lat="41.641622188" lon="2.512889093">
        <ele>279.40</ele>
        <time>2013-06-02T12:15:02Z</time>
      </trkpt>
      <trkpt lat="41.641542644" lon="2.512807788">
        <ele>280.36</ele>
        <time>2013-06-02T12:15:09Z</time>
      </trkpt>
      <trkpt lat="41.641500148" lon="2.512814662">
        <ele>280.84</ele>
        <time>2013-06-02T12:15:13Z</time>
      </trkpt>
      <trkpt lat="41.641464776" lon="2.512847686">
        <ele>281.32</ele>
        <time>2013-06-02T12:15:17Z</time>
      </trkpt>
      <trkpt lat="41.641437200" lon="2.512889093">
        <ele>282.28</ele>
        <time>2013-06-02T12:15:22Z</time>
      </trkpt>
      <trkpt lat="41.641428231" lon="2.513002081">
        <ele>283.25</ele>
        <time>2013-06-02T12:15:31Z</time>
      </trkpt>
      <trkpt lat="41.641438792" lon="2.513085649">
        <ele>283.73</ele>
        <time>2013-06-02T12:15:39Z</time>
      </trkpt>
      <trkpt lat="41.641462848" lon="2.513162175">
        <ele>284.21</ele>
        <time>2013-06-02T12:15:45Z</time>
      </trkpt>
      <trkpt lat="41.641483887" lon="2.513256136">
        <ele>285.65</ele>
        <time>2013-06-02T12:15:52Z</time>
      </trkpt>
      <trkpt lat="41.641465698" lon="2.513410028">
        <ele>288.05</ele>
        <time>2013-06-02T12:16:01Z</time>
      </trkpt>
      <trkpt lat="41.641386657" lon="2.513533242">
        <ele>288.53</ele>
        <time>2013-06-02T12:16:09Z</time>
      </trkpt>
      <trkpt lat="41.641331756" lon="2.513591496">
        <ele>289.01</ele>
        <time>2013-06-02T12:16:14Z</time>
      </trkpt>
      <trkpt lat="41.641299737" lon="2.513628880">
        <ele>289.97</ele>
        <time>2013-06-02T12:16:17Z</time>
      </trkpt>
      <trkpt lat="41.641251205" lon="2.513648661">
        <ele>290.46</ele>
        <time>2013-06-02T12:16:21Z</time>
      </trkpt>
      <trkpt lat="41.641201836" lon="2.513582192">
        <ele>292.38</ele>
        <time>2013-06-02T12:16:28Z</time>
      </trkpt>
      <trkpt lat="41.641209799" lon="2.513551012">
        <ele>292.38</ele>
        <time>2013-06-02T12:16:30Z</time>
      </trkpt>
      <trkpt lat="41.641257492" lon="2.513417404">
        <ele>293.82</ele>
        <time>2013-06-02T12:16:39Z</time>
      </trkpt>
      <trkpt lat="41.641284314" lon="2.513258902">
        <ele>294.78</ele>
        <time>2013-06-02T12:16:48Z</time>
      </trkpt>
      <trkpt lat="41.641277022" lon="2.513209114">
        <ele>295.26</ele>
        <time>2013-06-02T12:16:52Z</time>
      </trkpt>
      <trkpt lat="41.641209631" lon="2.513176760">
        <ele>296.70</ele>
        <time>2013-06-02T12:16:59Z</time>
      </trkpt>
      <trkpt lat="41.641200746" lon="2.513185393">
        <ele>297.18</ele>
        <time>2013-06-02T12:17:00Z</time>
      </trkpt>
      <trkpt lat="41.641133272" lon="2.513268206">
        <ele>299.11</ele>
        <time>2013-06-02T12:17:09Z</time>
      </trkpt>
      <trkpt lat="41.641066887" lon="2.513312295">
        <ele>300.07</ele>
        <time>2013-06-02T12:17:16Z</time>
      </trkpt>
      <trkpt lat="41.640991786" lon="2.513375579">
        <ele>301.99</ele>
        <time>2013-06-02T12:17:24Z</time>
      </trkpt>
      <trkpt lat="41.640958174" lon="2.513407597">
        <ele>301.99</ele>
        <time>2013-06-02T12:17:28Z</time>
      </trkpt>
      <trkpt lat="41.640877708" lon="2.513476664">
        <ele>302.95</ele>
        <time>2013-06-02T12:17:35Z</time>
      </trkpt>
      <trkpt lat="41.640812497" lon="2.513562830">
        <ele>304.88</ele>
        <time>2013-06-02T12:17:43Z</time>
      </trkpt>
      <trkpt lat="41.640757260" lon="2.513644889">
        <ele>305.36</ele>
        <time>2013-06-02T12:17:50Z</time>
      </trkpt>
      <trkpt lat="41.640721888" lon="2.513769193">
        <ele>305.84</ele>
        <time>2013-06-02T12:17:56Z</time>
      </trkpt>
      <trkpt lat="41.640747872" lon="2.513907243">
        <ele>306.32</ele>
        <time>2013-06-02T12:18:03Z</time>
      </trkpt>
      <trkpt lat="41.640785507" lon="2.513992654">
        <ele>306.80</ele>
        <time>2013-06-02T12:18:08Z</time>
      </trkpt>
      <trkpt lat="41.640790368" lon="2.514187617">
        <ele>308.24</ele>
        <time>2013-06-02T12:18:18Z</time>
      </trkpt>
      <trkpt lat="41.640786513" lon="2.514204214">
        <ele>308.24</ele>
        <time>2013-06-02T12:18:19Z</time>
      </trkpt>
      <trkpt lat="41.640760780" lon="2.514407307">
        <ele>308.72</ele>
        <time>2013-06-02T12:18:28Z</time>
      </trkpt>
      <trkpt lat="41.640726917" lon="2.514572095">
        <ele>309.20</ele>
        <time>2013-06-02T12:18:36Z</time>
      </trkpt>
      <trkpt lat="41.640685259" lon="2.514687011">
        <ele>309.68</ele>
        <time>2013-06-02T12:18:42Z</time>
      </trkpt>
      <trkpt lat="41.640599512" lon="2.514795473">
        <ele>311.12</ele>
        <time>2013-06-02T12:18:49Z</time>
      </trkpt>
      <trkpt lat="41.640453751" lon="2.514830174">
        <ele>311.60</ele>
        <time>2013-06-02T12:18:58Z</time>
      </trkpt>
      <trkpt lat="41.640377476" lon="2.514728250">
        <ele>312.09</ele>
        <time>2013-06-02T12:19:06Z</time>
      </trkpt>
      <trkpt lat="41.640318216" lon="2.514613167">
        <ele>313.05</ele>
        <time>2013-06-02T12:19:13Z</time>
      </trkpt>
      <trkpt lat="41.640278653" lon="2.514554829">
        <ele>313.05</ele>
        <time>2013-06-02T12:19:17Z</time>
      </trkpt>
      <trkpt lat="41.640178825" lon="2.514414599">
        <ele>314.49</ele>
        <time>2013-06-02T12:19:25Z</time>
      </trkpt>
      <trkpt lat="41.640069189" lon="2.514348047">
        <ele>315.45</ele>
        <time>2013-06-02T12:19:32Z</time>
      </trkpt>
      <trkpt lat="41.639944886" lon="2.514363051">
        <ele>317.37</ele>
        <time>2013-06-02T12:19:39Z</time>
      </trkpt>
      <trkpt lat="41.639934241" lon="2.514370678">
        <ele>317.37</ele>
        <time>2013-06-02T12:19:40Z</time>
      </trkpt>
      <trkpt lat="41.639868946" lon="2.514446534">
        <ele>318.81</ele>
        <time>2013-06-02T12:19:47Z</time>
      </trkpt>
      <trkpt lat="41.639835753" lon="2.514494730">
        <ele>320.26</ele>
        <time>2013-06-02T12:19:51Z</time>
      </trkpt>
      <trkpt lat="41.639754784" lon="2.514547369">
        <ele>320.74</ele>
        <time>2013-06-02T12:19:57Z</time>
      </trkpt>
      <trkpt lat="41.639715641" lon="2.514595900">
        <ele>321.22</ele>
        <time>2013-06-02T12:20:00Z</time>
      </trkpt>
      <trkpt lat="41.639607849" lon="2.514761191">
        <ele>322.66</ele>
        <time>2013-06-02T12:20:09Z</time>
      </trkpt>
      <trkpt lat="41.639490503" lon="2.514950454">
        <ele>324.10</ele>
        <time>2013-06-02T12:20:19Z</time>
      </trkpt>
      <trkpt lat="41.639401487" lon="2.515002674">
        <ele>324.58</ele>
        <time>2013-06-02T12:20:24Z</time>
      </trkpt>
      <trkpt lat="41.639264024" lon="2.514995884">
        <ele>325.54</ele>
        <time>2013-06-02T12:20:32Z</time>
      </trkpt>
      <trkpt lat="41.639161010" lon="2.514976522">
        <ele>325.54</ele>
        <time>2013-06-02T12:20:38Z</time>
      </trkpt>
      <trkpt lat="41.639073000" lon="2.514990352">
        <ele>326.50</ele>
        <time>2013-06-02T12:20:43Z</time>
      </trkpt>
      <trkpt lat="41.638968981" lon="2.515071573">
        <ele>327.47</ele>
        <time>2013-06-02T12:20:51Z</time>
      </trkpt>
      <trkpt lat="41.638867225" lon="2.515190009">
        <ele>327.95</ele>
        <time>2013-06-02T12:20:59Z</time>
      </trkpt>
      <trkpt lat="41.638818861" lon="2.515270811">
        <ele>328.91</ele>
        <time>2013-06-02T12:21:04Z</time>
      </trkpt>
      <trkpt lat="41.638782819" lon="2.515341889">
        <ele>328.91</ele>
        <time>2013-06-02T12:21:08Z</time>
      </trkpt>
      <trkpt lat="41.638705286" lon="2.515474910">
        <ele>329.87</ele>
        <time>2013-06-02T12:21:15Z</time>
      </trkpt>
      <trkpt lat="41.638587940" lon="2.515599884">
        <ele>330.83</ele>
        <time>2013-06-02T12:21:23Z</time>
      </trkpt>
      <trkpt lat="41.638475538" lon="2.515579181">
        <ele>331.31</ele>
        <time>2013-06-02T12:21:29Z</time>
      </trkpt>
      <trkpt lat="41.638383924" lon="2.515467785">
        <ele>331.31</ele>
        <time>2013-06-02T12:21:35Z</time>
      </trkpt>
      <trkpt lat="41.638206731" lon="2.515350690">
        <ele>331.79</ele>
        <time>2013-06-02T12:21:43Z</time>
      </trkpt>
      <trkpt lat="41.638038422" lon="2.515248263">
        <ele>332.27</ele>
        <time>2013-06-02T12:21:51Z</time>
      </trkpt>
      <trkpt lat="41.637816972" lon="2.515214400">
        <ele>332.75</ele>
        <time>2013-06-02T12:22:00Z</time>
      </trkpt>
      <trkpt lat="41.637578339" lon="2.515207360">
        <ele>333.71</ele>
        <time>2013-06-02T12:22:10Z</time>
      </trkpt>
      <trkpt lat="41.637434590" lon="2.515247844">
        <ele>334.20</ele>
        <time>2013-06-02T12:22:15Z</time>
      </trkpt>
      <trkpt lat="41.637293271" lon="2.515355384">
        <ele>332.75</ele>
        <time>2013-06-02T12:22:18Z</time>
      </trkpt>
      <trkpt lat="41.637135607" lon="2.515464852">
        <ele>332.27</ele>
        <time>2013-06-02T12:22:21Z</time>
      </trkpt>
      <trkpt lat="41.636840899" lon="2.515527129">
        <ele>331.79</ele>
        <time>2013-06-02T12:22:28Z</time>
      </trkpt>
      <trkpt lat="41.636623305" lon="2.515508270">
        <ele>332.75</ele>
        <time>2013-06-02T12:22:36Z</time>
      </trkpt>
      <trkpt lat="41.636477460" lon="2.515482538">
        <ele>334.20</ele>
        <time>2013-06-02T12:22:43Z</time>
      </trkpt>
      <trkpt lat="41.636368160" lon="2.515415399">
        <ele>335.64</ele>
        <time>2013-06-02T12:22:51Z</time>
      </trkpt>
      <trkpt lat="41.636309571" lon="2.515365442">
        <ele>336.60</ele>
        <time>2013-06-02T12:22:56Z</time>
      </trkpt>
      <trkpt lat="41.636241845" lon="2.515281037">
        <ele>337.56</ele>
        <time>2013-06-02T12:23:02Z</time>
      </trkpt>
      <trkpt lat="41.636137574" lon="2.515145669">
        <ele>339.48</ele>
        <time>2013-06-02T12:23:11Z</time>
      </trkpt>
      <trkpt lat="41.635996842" lon="2.515101412">
        <ele>340.92</ele>
        <time>2013-06-02T12:23:19Z</time>
      </trkpt>
      <trkpt lat="41.635861977" lon="2.515065706">
        <ele>341.89</ele>
        <time>2013-06-02T12:23:27Z</time>
      </trkpt>
      <trkpt lat="41.635767764" lon="2.515055899">
        <ele>342.85</ele>
        <time>2013-06-02T12:23:32Z</time>
      </trkpt>
      <trkpt lat="41.635648574" lon="2.515066628">
        <ele>343.33</ele>
        <time>2013-06-02T12:23:40Z</time>
      </trkpt>
      <trkpt lat="41.635536424" lon="2.515108705">
        <ele>344.77</ele>
        <time>2013-06-02T12:23:48Z</time>
      </trkpt>
      <trkpt lat="41.635521923" lon="2.515114656">
        <ele>344.77</ele>
        <time>2013-06-02T12:23:49Z</time>
      </trkpt>
      <trkpt lat="41.635485043" lon="2.515154302">
        <ele>345.73</ele>
        <time>2013-06-02T12:23:53Z</time>
      </trkpt>
      <trkpt lat="41.635451934" lon="2.515188500">
        <ele>346.69</ele>
        <time>2013-06-02T12:23:57Z</time>
      </trkpt>
      <trkpt lat="41.635385466" lon="2.515295789">
        <ele>349.10</ele>
        <time>2013-06-02T12:24:06Z</time>
      </trkpt>
      <trkpt lat="41.635329056" lon="2.515387906">
        <ele>350.54</ele>
        <time>2013-06-02T12:24:15Z</time>
      </trkpt>
      <trkpt lat="41.635320925" lon="2.515388241">
        <ele>351.50</ele>
        <time>2013-06-02T12:24:16Z</time>
      </trkpt>
      <trkpt lat="41.635279351" lon="2.515344236">
        <ele>352.46</ele>
        <time>2013-06-02T12:24:22Z</time>
      </trkpt>
      <trkpt lat="41.635268287" lon="2.515309284">
        <ele>352.94</ele>
        <time>2013-06-02T12:24:25Z</time>
      </trkpt>
      <trkpt lat="41.635248841" lon="2.515170312">
        <ele>354.86</ele>
        <time>2013-06-02T12:24:36Z</time>
      </trkpt>
      <trkpt lat="41.635238447" lon="2.515064448">
        <ele>358.23</ele>
        <time>2013-06-02T12:24:44Z</time>
      </trkpt>
      <trkpt lat="41.635189581" lon="2.514935451">
        <ele>359.67</ele>
        <time>2013-06-02T12:24:55Z</time>
      </trkpt>
      <trkpt lat="41.635168710" lon="2.514907623">
        <ele>360.15</ele>
        <time>2013-06-02T12:24:59Z</time>
      </trkpt>
      <trkpt lat="41.635089501" lon="2.514828665">
        <ele>361.59</ele>
        <time>2013-06-02T12:25:08Z</time>
      </trkpt>
      <trkpt lat="41.635007190" lon="2.514794048">
        <ele>364.00</ele>
        <time>2013-06-02T12:25:16Z</time>
      </trkpt>
      <trkpt lat="41.634967125" lon="2.514796311">
        <ele>364.48</ele>
        <time>2013-06-02T12:25:19Z</time>
      </trkpt>
      <trkpt lat="41.634862435" lon="2.514752390">
        <ele>364.96</ele>
        <time>2013-06-02T12:25:28Z</time>
      </trkpt>
      <trkpt lat="41.634767217" lon="2.514732525">
        <ele>366.40</ele>
        <time>2013-06-02T12:25:37Z</time>
      </trkpt>
      <trkpt lat="41.634693204" lon="2.514718443">
        <ele>367.84</ele>
        <time>2013-06-02T12:25:44Z</time>
      </trkpt>
      <trkpt lat="41.634591951" lon="2.514716264">
        <ele>368.80</ele>
        <time>2013-06-02T12:25:53Z</time>
      </trkpt>
      <trkpt lat="41.634530931" lon="2.514725903">
        <ele>369.28</ele>
        <time>2013-06-02T12:25:58Z</time>
      </trkpt>
      <trkpt lat="41.634459852" lon="2.514782816">
        <ele>370.24</ele>
        <time>2013-06-02T12:26:06Z</time>
      </trkpt>
      <trkpt lat="41.634396569" lon="2.514831431">
        <ele>371.21</ele>
        <time>2013-06-02T12:26:12Z</time>
      </trkpt>
      <trkpt lat="41.634373267" lon="2.514832856">
        <ele>371.21</ele>
        <time>2013-06-02T12:26:15Z</time>
      </trkpt>
      <trkpt lat="41.634300847" lon="2.514837215">
        <ele>372.17</ele>
        <time>2013-06-02T12:26:21Z</time>
      </trkpt>
      <trkpt lat="41.634192050" lon="2.514862528">
        <ele>373.13</ele>
        <time>2013-06-02T12:26:28Z</time>
      </trkpt>
      <trkpt lat="41.634098425" lon="2.514864037">
        <ele>373.13</ele>
        <time>2013-06-02T12:26:34Z</time>
      </trkpt>
      <trkpt lat="41.633951574" lon="2.514845010">
        <ele>375.05</ele>
        <time>2013-06-02T12:26:44Z</time>
      </trkpt>
      <trkpt lat="41.633799526" lon="2.514835203">
        <ele>376.49</ele>
        <time>2013-06-02T12:26:55Z</time>
      </trkpt>
      <trkpt lat="41.633675055" lon="2.514917933">
        <ele>377.45</ele>
        <time>2013-06-02T12:27:04Z</time>
      </trkpt>
      <trkpt lat="41.633592577" lon="2.515005523">
        <ele>378.90</ele>
        <time>2013-06-02T12:27:12Z</time>
      </trkpt>
      <trkpt lat="41.633502136" lon="2.515081380">
        <ele>378.90</ele>
        <time>2013-06-02T12:27:18Z</time>
      </trkpt>
      <trkpt lat="41.633442289" lon="2.515105100">
        <ele>378.90</ele>
        <time>2013-06-02T12:27:22Z</time>
      </trkpt>
      <trkpt lat="41.633300132" lon="2.515112979">
        <ele>379.86</ele>
        <time>2013-06-02T12:27:30Z</time>
      </trkpt>
      <trkpt lat="41.633145821" lon="2.515109124">
        <ele>380.82</ele>
        <time>2013-06-02T12:27:39Z</time>
      </trkpt>
      <trkpt lat="41.633026714" lon="2.515114907">
        <ele>381.30</ele>
        <time>2013-06-02T12:27:46Z</time>
      </trkpt>
      <trkpt lat="41.632886737" lon="2.515071154">
        <ele>381.78</ele>
        <time>2013-06-02T12:27:55Z</time>
      </trkpt>
      <trkpt lat="41.632791518" lon="2.515022036">
        <ele>382.74</ele>
        <time>2013-06-02T12:28:02Z</time>
      </trkpt>
      <trkpt lat="41.632662437" lon="2.514941402">
        <ele>383.70</ele>
        <time>2013-06-02T12:28:11Z</time>
      </trkpt>
      <trkpt lat="41.632571493" lon="2.514849788">
        <ele>385.15</ele>
        <time>2013-06-02T12:28:19Z</time>
      </trkpt>
      <trkpt lat="41.632555568" lon="2.514839729">
        <ele>385.15</ele>
        <time>2013-06-02T12:28:20Z</time>
      </trkpt>
      <trkpt lat="41.632501337" lon="2.514789857">
        <ele>385.63</ele>
        <time>2013-06-02T12:28:24Z</time>
      </trkpt>
      <trkpt lat="41.632403185" lon="2.514725233">
        <ele>386.59</ele>
        <time>2013-06-02T12:28:31Z</time>
      </trkpt>
      <trkpt lat="41.632240911" lon="2.514682904">
        <ele>388.51</ele>
        <time>2013-06-02T12:28:41Z</time>
      </trkpt>
      <trkpt lat="41.632140328" lon="2.514670918">
        <ele>389.47</ele>
        <time>2013-06-02T12:28:48Z</time>
      </trkpt>
      <trkpt lat="41.631996578" lon="2.514683491">
        <ele>390.43</ele>
        <time>2013-06-02T12:28:57Z</time>
      </trkpt>
      <trkpt lat="41.631880824" lon="2.514707463">
        <ele>391.87</ele>
        <time>2013-06-02T12:29:06Z</time>
      </trkpt>
      <trkpt lat="41.631806309" lon="2.514711319">
        <ele>392.36</ele>
        <time>2013-06-02T12:29:10Z</time>
      </trkpt>
      <trkpt lat="41.631706732" lon="2.514752558">
        <ele>392.84</ele>
        <time>2013-06-02T12:29:17Z</time>
      </trkpt>
      <trkpt lat="41.631619058" lon="2.514801089">
        <ele>394.28</ele>
        <time>2013-06-02T12:29:24Z</time>
      </trkpt>
      <trkpt lat="41.631530377" lon="2.514822798">
        <ele>395.72</ele>
        <time>2013-06-02T12:29:32Z</time>
      </trkpt>
      <trkpt lat="41.631441110" lon="2.514883315">
        <ele>396.68</ele>
        <time>2013-06-02T12:29:40Z</time>
      </trkpt>
      <trkpt lat="41.631396770" lon="2.514908293">
        <ele>397.64</ele>
        <time>2013-06-02T12:29:44Z</time>
      </trkpt>
      <trkpt lat="41.631299707" lon="2.514969984">
        <ele>399.57</ele>
        <time>2013-06-02T12:29:53Z</time>
      </trkpt>
      <trkpt lat="41.631218486" lon="2.515048606">
        <ele>401.97</ele>
        <time>2013-06-02T12:30:01Z</time>
      </trkpt>
      <trkpt lat="41.631203986" lon="2.515056988">
        <ele>401.97</ele>
        <time>2013-06-02T12:30:03Z</time>
      </trkpt>
      <trkpt lat="41.631159813" lon="2.515094539">
        <ele>403.41</ele>
        <time>2013-06-02T12:30:08Z</time>
      </trkpt>
      <trkpt lat="41.631097368" lon="2.515195374">
        <ele>403.41</ele>
        <time>2013-06-02T12:30:16Z</time>
      </trkpt>
      <trkpt lat="41.631065433" lon="2.515254298">
        <ele>403.41</ele>
        <time>2013-06-02T12:30:21Z</time>
      </trkpt>
      <trkpt lat="41.631035426" lon="2.515328394">
        <ele>404.85</ele>
        <time>2013-06-02T12:30:27Z</time>
      </trkpt>
      <trkpt lat="41.631003994" lon="2.515440963">
        <ele>405.33</ele>
        <time>2013-06-02T12:30:36Z</time>
      </trkpt>
      <trkpt lat="41.630963174" lon="2.515524279">
        <ele>407.26</ele>
        <time>2013-06-02T12:30:44Z</time>
      </trkpt>
      <trkpt lat="41.630909949" lon="2.515621761">
        <ele>408.70</ele>
        <time>2013-06-02T12:30:53Z</time>
      </trkpt>
      <trkpt lat="41.630862926" lon="2.515737767">
        <ele>410.62</ele>
        <time>2013-06-02T12:31:02Z</time>
      </trkpt>
      <trkpt lat="41.630824537" lon="2.515790656">
        <ele>411.58</ele>
        <time>2013-06-02T12:31:08Z</time>
      </trkpt>
      <trkpt lat="41.630731163" lon="2.515865842">
        <ele>413.50</ele>
        <time>2013-06-02T12:31:18Z</time>
      </trkpt>
      <trkpt lat="41.630630999" lon="2.515903393">
        <ele>414.47</ele>
        <time>2013-06-02T12:31:26Z</time>
      </trkpt>
      <trkpt lat="41.630529578" lon="2.515924851">
        <ele>415.43</ele>
        <time>2013-06-02T12:31:35Z</time>
      </trkpt>
      <trkpt lat="41.630443831" lon="2.515921414">
        <ele>416.87</ele>
        <time>2013-06-02T12:31:43Z</time>
      </trkpt>
      <trkpt lat="41.630428911" lon="2.515921665">
        <ele>417.35</ele>
        <time>2013-06-02T12:31:44Z</time>
      </trkpt>
      <trkpt lat="41.630419859" lon="2.515890652">
        <ele>417.83</ele>
        <time>2013-06-02T12:31:47Z</time>
      </trkpt>
      <trkpt lat="41.630312151" lon="2.515873805">
        <ele>419.75</ele>
        <time>2013-06-02T12:31:55Z</time>
      </trkpt>
      <trkpt lat="41.630254819" lon="2.515810354">
        <ele>421.19</ele>
        <time>2013-06-02T12:32:04Z</time>
      </trkpt>
      <trkpt lat="41.630203354" lon="2.515753525">
        <ele>422.64</ele>
        <time>2013-06-02T12:32:12Z</time>
      </trkpt>
      <trkpt lat="41.630162618" lon="2.515675657">
        <ele>424.56</ele>
        <time>2013-06-02T12:32:20Z</time>
      </trkpt>
      <trkpt lat="41.630091204" lon="2.515640704">
        <ele>424.56</ele>
        <time>2013-06-02T12:32:26Z</time>
      </trkpt>
      <trkpt lat="41.629978635" lon="2.515639698">
        <ele>425.04</ele>
        <time>2013-06-02T12:32:35Z</time>
      </trkpt>
      <trkpt lat="41.629921638" lon="2.515644224">
        <ele>425.52</ele>
        <time>2013-06-02T12:32:40Z</time>
      </trkpt>
      <trkpt lat="41.629825749" lon="2.515689319">
        <ele>426.00</ele>
        <time>2013-06-02T12:32:47Z</time>
      </trkpt>
      <trkpt lat="41.629704296" lon="2.515691918">
        <ele>427.44</ele>
        <time>2013-06-02T12:32:57Z</time>
      </trkpt>
      <trkpt lat="41.629591224" lon="2.515691582">
        <ele>428.89</ele>
        <time>2013-06-02T12:33:06Z</time>
      </trkpt>
      <trkpt lat="41.629493155" lon="2.515677249">
        <ele>430.33</ele>
        <time>2013-06-02T12:33:15Z</time>
      </trkpt>
      <trkpt lat="41.629403301" lon="2.515690493">
        <ele>431.77</ele>
        <time>2013-06-02T12:33:24Z</time>
      </trkpt>
      <trkpt lat="41.629361224" lon="2.515655037">
        <ele>432.73</ele>
        <time>2013-06-02T12:33:30Z</time>
      </trkpt>
      <trkpt lat="41.629317890" lon="2.515637854">
        <ele>433.21</ele>
        <time>2013-06-02T12:33:35Z</time>
      </trkpt>
      <trkpt lat="41.629232059" lon="2.515612122">
        <ele>435.13</ele>
        <time>2013-06-02T12:33:44Z</time>
      </trkpt>
      <trkpt lat="41.629156622" lon="2.515595358">
        <ele>436.58</ele>
        <time>2013-06-02T12:33:51Z</time>
      </trkpt>
      <trkpt lat="41.629086717" lon="2.515560741">
        <ele>438.50</ele>
        <time>2013-06-02T12:34:00Z</time>
      </trkpt>
      <trkpt lat="41.628991079" lon="2.515533919">
        <ele>439.94</ele>
        <time>2013-06-02T12:34:08Z</time>
      </trkpt>
      <trkpt lat="41.628907009" lon="2.515492093">
        <ele>441.86</ele>
        <time>2013-06-02T12:34:17Z</time>
      </trkpt>
      <trkpt lat="41.628834003" lon="2.515441718">
        <ele>443.31</ele>
        <time>2013-06-02T12:34:25Z</time>
      </trkpt>
      <trkpt lat="41.628739203" lon="2.515374998">
        <ele>444.27</ele>
        <time>2013-06-02T12:34:34Z</time>
      </trkpt>
      <trkpt lat="41.628677010" lon="2.515316576">
        <ele>445.71</ele>
        <time>2013-06-02T12:34:42Z</time>
      </trkpt>
      <trkpt lat="41.628602914" lon="2.515253209">
        <ele>447.15</ele>
        <time>2013-06-02T12:34:50Z</time>
      </trkpt>
      <trkpt lat="41.628546839" lon="2.515193362">
        <ele>448.11</ele>
        <time>2013-06-02T12:34:59Z</time>
      </trkpt>
      <trkpt lat="41.628500151" lon="2.515136952">
        <ele>449.55</ele>
        <time>2013-06-02T12:35:07Z</time>
      </trkpt>
      <trkpt lat="41.628443657" lon="2.515091941">
        <ele>450.03</ele>
        <time>2013-06-02T12:35:12Z</time>
      </trkpt>
      <trkpt lat="41.628327149" lon="2.515050031">
        <ele>450.03</ele>
        <time>2013-06-02T12:35:19Z</time>
      </trkpt>
      <trkpt lat="41.628256154" lon="2.515041482">
        <ele>451.00</ele>
        <time>2013-06-02T12:35:23Z</time>
      </trkpt>
      <trkpt lat="41.628152302" lon="2.515005943">
        <ele>451.48</ele>
        <time>2013-06-02T12:35:31Z</time>
      </trkpt>
      <trkpt lat="41.628045182" lon="2.515010888">
        <ele>452.44</ele>
        <time>2013-06-02T12:35:39Z</time>
      </trkpt>
      <trkpt lat="41.628017354" lon="2.515006278">
        <ele>452.44</ele>
        <time>2013-06-02T12:35:41Z</time>
      </trkpt>
      <trkpt lat="41.627992627" lon="2.515007703">
        <ele>452.44</ele>
        <time>2013-06-02T12:35:43Z</time>
      </trkpt>
      <trkpt lat="41.627905958" lon="2.515006613">
        <ele>452.44</ele>
        <time>2013-06-02T12:35:48Z</time>
      </trkpt>
      <trkpt lat="41.627741170" lon="2.514999656">
        <ele>452.44</ele>
        <time>2013-06-02T12:35:56Z</time>
      </trkpt>
      <trkpt lat="41.627609323" lon="2.515089175">
        <ele>449.07</ele>
        <time>2013-06-02T12:35:59Z</time>
      </trkpt>
      <trkpt lat="41.627468926" lon="2.515204845">
        <ele>446.19</ele>
        <time>2013-06-02T12:36:02Z</time>
      </trkpt>
      <trkpt lat="41.627419640" lon="2.515246922">
        <ele>445.23</ele>
        <time>2013-06-02T12:36:03Z</time>
      </trkpt>
      <trkpt lat="41.627315956" lon="2.515317582">
        <ele>442.82</ele>
        <time>2013-06-02T12:36:05Z</time>
      </trkpt>
      <trkpt lat="41.627200034" lon="2.515378518">
        <ele>439.94</ele>
        <time>2013-06-02T12:36:10Z</time>
      </trkpt>
      <trkpt lat="41.627156700" lon="2.515392348">
        <ele>439.94</ele>
        <time>2013-06-02T12:36:16Z</time>
      </trkpt>
      <trkpt lat="41.627130800" lon="2.515398802">
        <ele>439.94</ele>
        <time>2013-06-02T12:36:18Z</time>
      </trkpt>
      <trkpt lat="41.626975651" lon="2.515469629">
        <ele>438.98</ele>
        <time>2013-06-02T12:36:25Z</time>
      </trkpt>
      <trkpt lat="41.626933490" lon="2.515494524">
        <ele>438.50</ele>
        <time>2013-06-02T12:36:26Z</time>
      </trkpt>
      <trkpt lat="41.626672058" lon="2.515610529">
        <ele>434.17</ele>
        <time>2013-06-02T12:36:31Z</time>
      </trkpt>
      <trkpt lat="41.626421942" lon="2.515731648">
        <ele>430.81</ele>
        <time>2013-06-02T12:36:36Z</time>
      </trkpt>
      <trkpt lat="41.626257406" lon="2.515809516">
        <ele>429.37</ele>
        <time>2013-06-02T12:36:39Z</time>
      </trkpt>
      <trkpt lat="41.626090019" lon="2.516074468">
        <ele>426.48</ele>
        <time>2013-06-02T12:36:44Z</time>
      </trkpt>
      <trkpt lat="41.625996393" lon="2.516246380">
        <ele>426.48</ele>
        <time>2013-06-02T12:36:48Z</time>
      </trkpt>
      <trkpt lat="41.625941659" lon="2.516184354">
        <ele>424.08</ele>
        <time>2013-06-02T12:36:51Z</time>
      </trkpt>
      <trkpt lat="41.626012738" lon="2.516016381">
        <ele>423.12</ele>
        <time>2013-06-02T12:36:56Z</time>
      </trkpt>
      <trkpt lat="41.626028999" lon="2.515966173">
        <ele>422.64</ele>
        <time>2013-06-02T12:36:57Z</time>
      </trkpt>
      <trkpt lat="41.626178951" lon="2.515622096">
        <ele>419.27</ele>
        <time>2013-06-02T12:37:04Z</time>
      </trkpt>
      <trkpt lat="41.626254723" lon="2.515516736">
        <ele>417.83</ele>
        <time>2013-06-02T12:37:06Z</time>
      </trkpt>
      <trkpt lat="41.626326892" lon="2.515380195">
        <ele>416.87</ele>
        <time>2013-06-02T12:37:08Z</time>
      </trkpt>
      <trkpt lat="41.626458487" lon="2.515128235">
        <ele>414.47</ele>
        <time>2013-06-02T12:37:12Z</time>
      </trkpt>
      <trkpt lat="41.626548425" lon="2.514996806">
        <ele>411.58</ele>
        <time>2013-06-02T12:37:15Z</time>
      </trkpt>
      <trkpt lat="41.626596789" lon="2.514701344">
        <ele>409.18</ele>
        <time>2013-06-02T12:37:20Z</time>
      </trkpt>
      <trkpt lat="41.626524285" lon="2.514563378">
        <ele>407.26</ele>
        <time>2013-06-02T12:37:23Z</time>
      </trkpt>
      <trkpt lat="41.626391181" lon="2.514416192">
        <ele>406.29</ele>
        <time>2013-06-02T12:37:28Z</time>
      </trkpt>
      <trkpt lat="41.626161265" lon="2.514252493">
        <ele>403.89</ele>
        <time>2013-06-02T12:37:33Z</time>
      </trkpt>
      <trkpt lat="41.626110219" lon="2.514255930">
        <ele>403.41</ele>
        <time>2013-06-02T12:37:34Z</time>
      </trkpt>
      <trkpt lat="41.625777206" lon="2.514159538">
        <ele>398.60</ele>
        <time>2013-06-02T12:37:40Z</time>
      </trkpt>
      <trkpt lat="41.625626500" lon="2.514095081">
        <ele>395.24</ele>
        <time>2013-06-02T12:37:43Z</time>
      </trkpt>
      <trkpt lat="41.625372947" lon="2.514071696">
        <ele>390.91</ele>
        <time>2013-06-02T12:37:48Z</time>
      </trkpt>
      <trkpt lat="41.625274292" lon="2.514067002">
        <ele>388.99</ele>
        <time>2013-06-02T12:37:50Z</time>
      </trkpt>
      <trkpt lat="41.625127944" lon="2.514088962">
        <ele>386.59</ele>
        <time>2013-06-02T12:37:53Z</time>
      </trkpt>
      <trkpt lat="41.624930634" lon="2.514081922">
        <ele>381.30</ele>
        <time>2013-06-02T12:37:57Z</time>
      </trkpt>
      <trkpt lat="41.624834829" lon="2.514054513">
        <ele>377.94</ele>
        <time>2013-06-02T12:38:00Z</time>
      </trkpt>
      <trkpt lat="41.624817059" lon="2.513887797">
        <ele>376.49</ele>
        <time>2013-06-02T12:38:06Z</time>
      </trkpt>
      <trkpt lat="41.624837092" lon="2.513783107">
        <ele>376.01</ele>
        <time>2013-06-02T12:38:08Z</time>
      </trkpt>
      <trkpt lat="41.624908171" lon="2.513604991">
        <ele>375.05</ele>
        <time>2013-06-02T12:38:11Z</time>
      </trkpt>
      <trkpt lat="41.624985787" lon="2.513249599">
        <ele>373.13</ele>
        <time>2013-06-02T12:38:16Z</time>
      </trkpt>
      <trkpt lat="41.624977154" lon="2.513104424">
        <ele>371.21</ele>
        <time>2013-06-02T12:38:18Z</time>
      </trkpt>
      <trkpt lat="41.624906578" lon="2.512846178">
        <ele>369.28</ele>
        <time>2013-06-02T12:38:22Z</time>
      </trkpt>
      <trkpt lat="41.624782107" lon="2.512729166">
        <ele>367.84</ele>
        <time>2013-06-02T12:38:25Z</time>
      </trkpt>
      <trkpt lat="41.624548168" lon="2.512643587">
        <ele>364.96</ele>
        <time>2013-06-02T12:38:29Z</time>
      </trkpt>
      <trkpt lat="41.624359659" lon="2.512572425">
        <ele>361.59</ele>
        <time>2013-06-02T12:38:34Z</time>
      </trkpt>
      <trkpt lat="41.624351948" lon="2.512660183">
        <ele>360.15</ele>
        <time>2013-06-02T12:38:38Z</time>
      </trkpt>
      <trkpt lat="41.624419170" lon="2.512740063">
        <ele>358.71</ele>
        <time>2013-06-02T12:38:42Z</time>
      </trkpt>
      <trkpt lat="41.624538948" lon="2.512855649">
        <ele>355.83</ele>
        <time>2013-06-02T12:38:46Z</time>
      </trkpt>
      <trkpt lat="41.624594352" lon="2.513074668">
        <ele>351.98</ele>
        <time>2013-06-02T12:38:51Z</time>
      </trkpt>
      <trkpt lat="41.624410872" lon="2.513255969">
        <ele>349.58</ele>
        <time>2013-06-02T12:38:57Z</time>
      </trkpt>
      <trkpt lat="41.624158745" lon="2.513298800">
        <ele>345.25</ele>
        <time>2013-06-02T12:39:03Z</time>
      </trkpt>
      <trkpt lat="41.624072076" lon="2.513320593">
        <ele>344.77</ele>
        <time>2013-06-02T12:39:05Z</time>
      </trkpt>
      <trkpt lat="41.623887758" lon="2.513455626">
        <ele>342.37</ele>
        <time>2013-06-02T12:39:09Z</time>
      </trkpt>
      <trkpt lat="41.623796311" lon="2.513510192">
        <ele>339.96</ele>
        <time>2013-06-02T12:39:11Z</time>
      </trkpt>
      <trkpt lat="41.623635882" lon="2.513574565">
        <ele>337.56</ele>
        <time>2013-06-02T12:39:15Z</time>
      </trkpt>
      <trkpt lat="41.623560193" lon="2.513597196">
        <ele>334.20</ele>
        <time>2013-06-02T12:39:18Z</time>
      </trkpt>
      <trkpt lat="41.623473189" lon="2.513635418">
        <ele>331.31</ele>
        <time>2013-06-02T12:39:21Z</time>
      </trkpt>
      <trkpt lat="41.623376629" lon="2.513613876">
        <ele>328.91</ele>
        <time>2013-06-02T12:39:26Z</time>
      </trkpt>
      <trkpt lat="41.623493305" lon="2.513364179">
        <ele>326.02</ele>
        <time>2013-06-02T12:39:33Z</time>
      </trkpt>
      <trkpt lat="41.623598163" lon="2.513164187">
        <ele>322.18</ele>
        <time>2013-06-02T12:39:38Z</time>
      </trkpt>
      <trkpt lat="41.623585422" lon="2.513130492">
        <ele>321.70</ele>
        <time>2013-06-02T12:39:39Z</time>
      </trkpt>
      <trkpt lat="41.623461873" lon="2.513194949">
        <ele>317.85</ele>
        <time>2013-06-02T12:39:45Z</time>
      </trkpt>
      <trkpt lat="41.623392974" lon="2.513222860">
        <ele>317.37</ele>
        <time>2013-06-02T12:39:47Z</time>
      </trkpt>
      <trkpt lat="41.623254756" lon="2.513202325">
        <ele>315.45</ele>
        <time>2013-06-02T12:39:50Z</time>
      </trkpt>
      <trkpt lat="41.623041605" lon="2.513247000">
        <ele>310.16</ele>
        <time>2013-06-02T12:39:54Z</time>
      </trkpt>
      <trkpt lat="41.622853179" lon="2.513346410">
        <ele>306.32</ele>
        <time>2013-06-02T12:39:58Z</time>
      </trkpt>
      <trkpt lat="41.622688224" lon="2.513401898">
        <ele>303.43</ele>
        <time>2013-06-02T12:40:01Z</time>
      </trkpt>
      <trkpt lat="41.622649248" lon="2.513432827">
        <ele>301.99</ele>
        <time>2013-06-02T12:40:02Z</time>
      </trkpt>
      <trkpt lat="41.622507342" lon="2.513637932">
        <ele>299.11</ele>
        <time>2013-06-02T12:40:07Z</time>
      </trkpt>
      <trkpt lat="41.622277091" lon="2.513765505">
        <ele>295.26</ele>
        <time>2013-06-02T12:40:13Z</time>
      </trkpt>
      <trkpt lat="41.622132839" lon="2.513825100">
        <ele>290.94</ele>
        <time>2013-06-02T12:40:17Z</time>
      </trkpt>
      <trkpt lat="41.622011469" lon="2.513899699">
        <ele>288.05</ele>
        <time>2013-06-02T12:40:21Z</time>
      </trkpt>
      <trkpt lat="41.621887752" lon="2.514002210">
        <ele>284.69</ele>
        <time>2013-06-02T12:40:25Z</time>
      </trkpt>
      <trkpt lat="41.621754731" lon="2.514091142">
        <ele>281.32</ele>
        <time>2013-06-02T12:40:29Z</time>
      </trkpt>
      <trkpt lat="41.621709301" lon="2.514108157">
        <ele>280.36</ele>
        <time>2013-06-02T12:40:30Z</time>
      </trkpt>
      <trkpt lat="41.621522720" lon="2.514132967">
        <ele>276.52</ele>
        <time>2013-06-02T12:40:35Z</time>
      </trkpt>
      <trkpt lat="41.621425825" lon="2.514208404">
        <ele>273.63</ele>
        <time>2013-06-02T12:40:38Z</time>
      </trkpt>
      <trkpt lat="41.621347454" lon="2.514414013">
        <ele>269.31</ele>
        <time>2013-06-02T12:40:42Z</time>
      </trkpt>
      <trkpt lat="41.621271430" lon="2.514575113">
        <ele>266.42</ele>
        <time>2013-06-02T12:40:45Z</time>
      </trkpt>
      <trkpt lat="41.621084933" lon="2.514790695">
        <ele>263.06</ele>
        <time>2013-06-02T12:40:50Z</time>
      </trkpt>
      <trkpt lat="41.621051908" lon="2.514843920">
        <ele>261.62</ele>
        <time>2013-06-02T12:40:51Z</time>
      </trkpt>
      <trkpt lat="41.620897262" lon="2.515120523">
        <ele>260.65</ele>
        <time>2013-06-02T12:40:56Z</time>
      </trkpt>
      <trkpt lat="41.620843199" lon="2.515186237">
        <ele>260.17</ele>
        <time>2013-06-02T12:40:57Z</time>
      </trkpt>
      <trkpt lat="41.620738174" lon="2.515374411">
        <ele>257.29</ele>
        <time>2013-06-02T12:41:00Z</time>
      </trkpt>
      <trkpt lat="41.620601716" lon="2.515524615">
        <ele>254.41</ele>
        <time>2013-06-02T12:41:04Z</time>
      </trkpt>
      <trkpt lat="41.620484118" lon="2.515620085">
        <ele>250.56</ele>
        <time>2013-06-02T12:41:07Z</time>
      </trkpt>
      <trkpt lat="41.620336597" lon="2.515856119">
        <ele>246.23</ele>
        <time>2013-06-02T12:41:11Z</time>
      </trkpt>
      <trkpt lat="41.620261327" lon="2.515981848">
        <ele>242.87</ele>
        <time>2013-06-02T12:41:14Z</time>
      </trkpt>
      <trkpt lat="41.620096707" lon="2.516099194">
        <ele>239.51</ele>
        <time>2013-06-02T12:41:18Z</time>
      </trkpt>
      <trkpt lat="41.619987491" lon="2.516104307">
        <ele>236.14</ele>
        <time>2013-06-02T12:41:21Z</time>
      </trkpt>
      <trkpt lat="41.619817338" lon="2.516114868">
        <ele>233.26</ele>
        <time>2013-06-02T12:41:25Z</time>
      </trkpt>
      <trkpt lat="41.619752630" lon="2.516243950">
        <ele>232.30</ele>
        <time>2013-06-02T12:41:28Z</time>
      </trkpt>
      <trkpt lat="41.619687754" lon="2.516376887">
        <ele>231.33</ele>
        <time>2013-06-02T12:41:33Z</time>
      </trkpt>
      <trkpt lat="41.619645844" lon="2.516476464">
        <ele>230.85</ele>
        <time>2013-06-02T12:41:47Z</time>
      </trkpt>
      <trkpt lat="41.619617010" lon="2.516533712">
        <ele>231.33</ele>
        <time>2013-06-02T12:42:05Z</time>
      </trkpt>
      <trkpt lat="41.619603599" lon="2.516550308">
        <ele>231.33</ele>
        <time>2013-06-02T12:42:16Z</time>
      </trkpt>
      <trkpt lat="41.619489354" lon="2.516624740">
        <ele>230.85</ele>
        <time>2013-06-02T12:42:23Z</time>
      </trkpt>
      <trkpt lat="41.619472171" lon="2.516660195">
        <ele>230.37</ele>
        <time>2013-06-02T12:42:24Z</time>
      </trkpt>
      <trkpt lat="41.619446355" lon="2.516881729">
        <ele>228.45</ele>
        <time>2013-06-02T12:42:31Z</time>
      </trkpt>
      <trkpt lat="41.619365553" lon="2.517037967">
        <ele>227.49</ele>
        <time>2013-06-02T12:42:36Z</time>
      </trkpt>
      <trkpt lat="41.619339067" lon="2.517226644">
        <ele>225.57</ele>
        <time>2013-06-02T12:42:41Z</time>
      </trkpt>
      <trkpt lat="41.619337893" lon="2.517249946">
        <ele>225.57</ele>
        <time>2013-06-02T12:42:42Z</time>
      </trkpt>
      <trkpt lat="41.619342503" lon="2.517295124">
        <ele>225.09</ele>
        <time>2013-06-02T12:42:44Z</time>
      </trkpt>
      <trkpt lat="41.619316519" lon="2.517423954">
        <ele>225.09</ele>
        <time>2013-06-02T12:42:49Z</time>
      </trkpt>
      <trkpt lat="41.619272598" lon="2.517679770">
        <ele>224.12</ele>
        <time>2013-06-02T12:42:56Z</time>
      </trkpt>
      <trkpt lat="41.619251559" lon="2.517728133">
        <ele>223.64</ele>
        <time>2013-06-02T12:43:01Z</time>
      </trkpt>
      <trkpt lat="41.619221133" lon="2.517774066">
        <ele>224.12</ele>
        <time>2013-06-02T12:43:17Z</time>
      </trkpt>
      <trkpt lat="41.619155251" lon="2.517942542">
        <ele>223.16</ele>
        <time>2013-06-02T12:43:23Z</time>
      </trkpt>
      <trkpt lat="41.619046287" lon="2.518035581">
        <ele>222.20</ele>
        <time>2013-06-02T12:43:26Z</time>
      </trkpt>
      <trkpt lat="41.618833051" lon="2.518269101">
        <ele>219.32</ele>
        <time>2013-06-02T12:43:32Z</time>
      </trkpt>
      <trkpt lat="41.618778233" lon="2.518682497">
        <ele>217.40</ele>
        <time>2013-06-02T12:43:38Z</time>
      </trkpt>
      <trkpt lat="41.618682428" lon="2.519084912">
        <ele>214.03</ele>
        <time>2013-06-02T12:43:43Z</time>
      </trkpt>
      <trkpt lat="41.618499451" lon="2.519335866">
        <ele>212.11</ele>
        <time>2013-06-02T12:43:48Z</time>
      </trkpt>
      <trkpt lat="41.618437593" lon="2.519345338">
        <ele>211.63</ele>
        <time>2013-06-02T12:43:49Z</time>
      </trkpt>
      <trkpt lat="41.617906264" lon="2.519486321">
        <ele>209.70</ele>
        <time>2013-06-02T12:43:57Z</time>
      </trkpt>
      <trkpt lat="41.617425394" lon="2.519561339">
        <ele>207.30</ele>
        <time>2013-06-02T12:44:04Z</time>
      </trkpt>
      <trkpt lat="41.616939244" lon="2.519650607">
        <ele>205.38</ele>
        <time>2013-06-02T12:44:11Z</time>
      </trkpt>
      <trkpt lat="41.616592484" lon="2.519764265">
        <ele>202.01</ele>
        <time>2013-06-02T12:44:17Z</time>
      </trkpt>
      <trkpt lat="41.616441610" lon="2.519892844">
        <ele>201.53</ele>
        <time>2013-06-02T12:44:22Z</time>
      </trkpt>
      <trkpt lat="41.616376231" lon="2.519987978">
        <ele>202.98</ele>
        <time>2013-06-02T12:44:27Z</time>
      </trkpt>
      <trkpt lat="41.616353265" lon="2.520057045">
        <ele>202.98</ele>
        <time>2013-06-02T12:44:36Z</time>
      </trkpt>
      <trkpt lat="41.616355193" lon="2.520030139">
        <ele>202.98</ele>
        <time>2013-06-02T12:44:48Z</time>
      </trkpt>
      <trkpt lat="41.616350834" lon="2.520049753">
        <ele>202.98</ele>
        <time>2013-06-02T12:45:07Z</time>
      </trkpt>
      <trkpt lat="41.616346727" lon="2.520069786">
        <ele>202.98</ele>
        <time>2013-06-02T12:45:29Z</time>
      </trkpt>
      <trkpt lat="41.616317139" lon="2.520109432">
        <ele>203.46</ele>
        <time>2013-06-02T12:45:40Z</time>
      </trkpt>
      <trkpt lat="41.616249162" lon="2.520224096">
        <ele>203.46</ele>
        <time>2013-06-02T12:45:46Z</time>
      </trkpt>
      <trkpt lat="41.616143466" lon="2.520492233">
        <ele>203.46</ele>
        <time>2013-06-02T12:45:52Z</time>
      </trkpt>
      <trkpt lat="41.616077584" lon="2.520709576">
        <ele>202.01</ele>
        <time>2013-06-02T12:45:56Z</time>
      </trkpt>
      <trkpt lat="41.615962082" lon="2.521363448">
        <ele>200.57</ele>
        <time>2013-06-02T12:46:05Z</time>
      </trkpt>
      <trkpt lat="41.615912628" lon="2.521683386">
        <ele>200.57</ele>
        <time>2013-06-02T12:46:09Z</time>
      </trkpt>
      <trkpt lat="41.615903576" lon="2.521836104">
        <ele>200.57</ele>
        <time>2013-06-02T12:46:11Z</time>
      </trkpt>
      <trkpt lat="41.615817997" lon="2.522525264">
        <ele>198.65</ele>
        <time>2013-06-02T12:46:18Z</time>
      </trkpt>
      <trkpt lat="41.615741135" lon="2.523344427">
        <ele>196.25</ele>
        <time>2013-06-02T12:46:25Z</time>
      </trkpt>
      <trkpt lat="41.615641809" lon="2.524124447">
        <ele>193.36</ele>
        <time>2013-06-02T12:46:32Z</time>
      </trkpt>
      <trkpt lat="41.615624794" lon="2.524244309">
        <ele>192.88</ele>
        <time>2013-06-02T12:46:33Z</time>
      </trkpt>
      <trkpt lat="41.615528234" lon="2.525080571">
        <ele>190.00</ele>
        <time>2013-06-02T12:46:40Z</time>
      </trkpt>
      <trkpt lat="41.615511806" lon="2.525939465">
        <ele>187.11</ele>
        <time>2013-06-02T12:46:47Z</time>
      </trkpt>
      <trkpt lat="41.615566204" lon="2.526752845">
        <ele>184.71</ele>
        <time>2013-06-02T12:46:54Z</time>
      </trkpt>
      <trkpt lat="41.615563606" lon="2.526869940">
        <ele>184.71</ele>
        <time>2013-06-02T12:46:55Z</time>
      </trkpt>
      <trkpt lat="41.615543657" lon="2.527110249">
        <ele>183.75</ele>
        <time>2013-06-02T12:46:57Z</time>
      </trkpt>
      <trkpt lat="41.615455228" lon="2.527583240">
        <ele>181.35</ele>
        <time>2013-06-02T12:47:01Z</time>
      </trkpt>
      <trkpt lat="41.615282561" lon="2.528405421">
        <ele>178.94</ele>
        <time>2013-06-02T12:47:08Z</time>
      </trkpt>
      <trkpt lat="41.615152725" lon="2.529175466">
        <ele>177.50</ele>
        <time>2013-06-02T12:47:15Z</time>
      </trkpt>
      <trkpt lat="41.615134033" lon="2.529960096">
        <ele>175.58</ele>
        <time>2013-06-02T12:47:22Z</time>
      </trkpt>
      <trkpt lat="41.615145014" lon="2.530473907">
        <ele>173.66</ele>
        <time>2013-06-02T12:47:27Z</time>
      </trkpt>
      <trkpt lat="41.615099751" lon="2.531177987">
        <ele>171.25</ele>
        <time>2013-06-02T12:47:34Z</time>
      </trkpt>
      <trkpt lat="41.615173931" lon="2.531634884">
        <ele>169.33</ele>
        <time>2013-06-02T12:47:39Z</time>
      </trkpt>
      <trkpt lat="41.615171584" lon="2.532156155">
        <ele>168.37</ele>
        <time>2013-06-02T12:47:44Z</time>
      </trkpt>
      <trkpt lat="41.615150546" lon="2.532253720">
        <ele>167.41</ele>
        <time>2013-06-02T12:47:45Z</time>
      </trkpt>
      <trkpt lat="41.614925072" lon="2.533059724">
        <ele>165.00</ele>
        <time>2013-06-02T12:47:54Z</time>
      </trkpt>
      <trkpt lat="41.614843852" lon="2.533328112">
        <ele>163.56</ele>
        <time>2013-06-02T12:47:57Z</time>
      </trkpt>
      <trkpt lat="41.614644446" lon="2.533962455">
        <ele>162.12</ele>
        <time>2013-06-02T12:48:04Z</time>
      </trkpt>
      <trkpt lat="41.614413022" lon="2.534643233">
        <ele>159.24</ele>
        <time>2013-06-02T12:48:12Z</time>
      </trkpt>
      <trkpt lat="41.614111022" lon="2.535559375">
        <ele>156.83</ele>
        <time>2013-06-02T12:48:23Z</time>
      </trkpt>
      <trkpt lat="41.613880855" lon="2.536218779">
        <ele>153.95</ele>
        <time>2013-06-02T12:48:31Z</time>
      </trkpt>
      <trkpt lat="41.613706176" lon="2.536586745">
        <ele>152.51</ele>
        <time>2013-06-02T12:48:37Z</time>
      </trkpt>
      <trkpt lat="41.613673571" lon="2.536638377">
        <ele>151.54</ele>
        <time>2013-06-02T12:48:41Z</time>
      </trkpt>
      <trkpt lat="41.613645910" lon="2.536722364">
        <ele>151.54</ele>
        <time>2013-06-02T12:48:47Z</time>
      </trkpt>
      <trkpt lat="41.613551614" lon="2.536873238">
        <ele>151.54</ele>
        <time>2013-06-02T12:48:51Z</time>
      </trkpt>
      <trkpt lat="41.613393615" lon="2.537136682">
        <ele>150.58</ele>
        <time>2013-06-02T12:48:56Z</time>
      </trkpt>
      <trkpt lat="41.613224217" lon="2.537357545">
        <ele>150.10</ele>
        <time>2013-06-02T12:49:00Z</time>
      </trkpt>
      <trkpt lat="41.613090190" lon="2.537490985">
        <ele>149.14</ele>
        <time>2013-06-02T12:49:03Z</time>
      </trkpt>
      <trkpt lat="41.612809732" lon="2.537794745">
        <ele>148.18</ele>
        <time>2013-06-02T12:49:09Z</time>
      </trkpt>
      <trkpt lat="41.612501613" lon="2.538150221">
        <ele>147.22</ele>
        <time>2013-06-02T12:49:16Z</time>
      </trkpt>
      <trkpt lat="41.612303465" lon="2.538434535">
        <ele>145.78</ele>
        <time>2013-06-02T12:49:22Z</time>
      </trkpt>
      <trkpt lat="41.612271362" lon="2.538488012">
        <ele>145.30</ele>
        <time>2013-06-02T12:49:23Z</time>
      </trkpt>
      <trkpt lat="41.612112944" lon="2.538850865">
        <ele>143.85</ele>
        <time>2013-06-02T12:49:30Z</time>
      </trkpt>
      <trkpt lat="41.612077069" lon="2.538909705">
        <ele>143.85</ele>
        <time>2013-06-02T12:49:32Z</time>
      </trkpt>
      <trkpt lat="41.612074555" lon="2.538986484">
        <ele>143.37</ele>
        <time>2013-06-02T12:49:35Z</time>
      </trkpt>
      <trkpt lat="41.612024096" lon="2.538899312">
        <ele>143.37</ele>
        <time>2013-06-02T12:49:41Z</time>
      </trkpt>
      <trkpt lat="41.611898786" lon="2.538775344">
        <ele>145.78</ele>
        <time>2013-06-02T12:49:47Z</time>
      </trkpt>
      <trkpt lat="41.611671050" lon="2.538749695">
        <ele>146.26</ele>
        <time>2013-06-02T12:49:53Z</time>
      </trkpt>
      <trkpt lat="41.611532413" lon="2.538732009">
        <ele>145.30</ele>
        <time>2013-06-02T12:49:57Z</time>
      </trkpt>
      <trkpt lat="41.611482206" lon="2.538739050">
        <ele>145.30</ele>
        <time>2013-06-02T12:49:58Z</time>
      </trkpt>
      <trkpt lat="41.611314987" lon="2.538782636">
        <ele>144.34</ele>
        <time>2013-06-02T12:50:01Z</time>
      </trkpt>
      <trkpt lat="41.611040731" lon="2.538880285">
        <ele>142.89</ele>
        <time>2013-06-02T12:50:06Z</time>
      </trkpt>
      <trkpt lat="41.610624905" lon="2.539071895">
        <ele>140.97</ele>
        <time>2013-06-02T12:50:13Z</time>
      </trkpt>
      <trkpt lat="41.610280995" lon="2.539304493">
        <ele>140.01</ele>
        <time>2013-06-02T12:50:19Z</time>
      </trkpt>
      <trkpt lat="41.610058791" lon="2.539411195">
        <ele>138.09</ele>
        <time>2013-06-02T12:50:23Z</time>
      </trkpt>
      <trkpt lat="41.609842622" lon="2.539529296">
        <ele>137.61</ele>
        <time>2013-06-02T12:50:28Z</time>
      </trkpt>
      <trkpt lat="41.609753019" lon="2.539568355">
        <ele>137.13</ele>
        <time>2013-06-02T12:50:30Z</time>
      </trkpt>
      <trkpt lat="41.609443224" lon="2.539721828">
        <ele>136.16</ele>
        <time>2013-06-02T12:50:37Z</time>
      </trkpt>
      <trkpt lat="41.609300229" lon="2.539855184">
        <ele>134.72</ele>
        <time>2013-06-02T12:50:41Z</time>
      </trkpt>
      <trkpt lat="41.609192270" lon="2.540059200">
        <ele>134.24</ele>
        <time>2013-06-02T12:50:46Z</time>
      </trkpt>
      <trkpt lat="41.609160921" lon="2.540190293">
        <ele>133.28</ele>
        <time>2013-06-02T12:50:49Z</time>
      </trkpt>
      <trkpt lat="41.609006192" lon="2.540334210">
        <ele>133.28</ele>
        <time>2013-06-02T12:50:55Z</time>
      </trkpt>
      <trkpt lat="41.608959337" lon="2.540388273">
        <ele>133.76</ele>
        <time>2013-06-02T12:50:57Z</time>
      </trkpt>
      <trkpt lat="41.608942657" lon="2.540427584">
        <ele>133.28</ele>
        <time>2013-06-02T12:50:59Z</time>
      </trkpt>
      <trkpt lat="41.608927066" lon="2.540316608">
        <ele>132.80</ele>
        <time>2013-06-02T12:51:04Z</time>
      </trkpt>
      <trkpt lat="41.608871662" lon="2.540287607">
        <ele>131.84</ele>
        <time>2013-06-02T12:51:06Z</time>
      </trkpt>
      <trkpt lat="41.608536134" lon="2.540333623">
        <ele>131.84</ele>
        <time>2013-06-02T12:51:13Z</time>
      </trkpt>
      <trkpt lat="41.608137240" lon="2.540413000">
        <ele>131.36</ele>
        <time>2013-06-02T12:51:21Z</time>
      </trkpt>
      <trkpt lat="41.608091391" lon="2.540420627">
        <ele>131.36</ele>
        <time>2013-06-02T12:51:22Z</time>
      </trkpt>
      <trkpt lat="41.607721078" lon="2.540484162">
        <ele>129.92</ele>
        <time>2013-06-02T12:51:30Z</time>
      </trkpt>
      <trkpt lat="41.607583531" lon="2.540625733">
        <ele>129.92</ele>
        <time>2013-06-02T12:51:35Z</time>
      </trkpt>
      <trkpt lat="41.607528797" lon="2.540735619">
        <ele>129.92</ele>
        <time>2013-06-02T12:51:38Z</time>
      </trkpt>
      <trkpt lat="41.607338277" lon="2.540801082">
        <ele>129.43</ele>
        <time>2013-06-02T12:51:43Z</time>
      </trkpt>
      <trkpt lat="41.607293098" lon="2.540791778">
        <ele>129.43</ele>
        <time>2013-06-02T12:51:44Z</time>
      </trkpt>
      <trkpt lat="41.607202993" lon="2.540776272">
        <ele>129.43</ele>
        <time>2013-06-02T12:51:46Z</time>
      </trkpt>
      <trkpt lat="41.606982130" lon="2.540716928">
        <ele>128.47</ele>
        <time>2013-06-02T12:51:51Z</time>
      </trkpt>
      <trkpt lat="41.606598741" lon="2.540595725">
        <ele>127.51</ele>
        <time>2013-06-02T12:51:59Z</time>
      </trkpt>
      <trkpt lat="41.606357678" lon="2.540476954">
        <ele>126.55</ele>
        <time>2013-06-02T12:52:04Z</time>
      </trkpt>
      <trkpt lat="41.606251647" lon="2.540451892">
        <ele>126.55</ele>
        <time>2013-06-02T12:52:06Z</time>
      </trkpt>
      <trkpt lat="41.606105383" lon="2.540399253">
        <ele>126.07</ele>
        <time>2013-06-02T12:52:09Z</time>
      </trkpt>
      <trkpt lat="41.605935733" lon="2.540365642">
        <ele>126.07</ele>
        <time>2013-06-02T12:52:13Z</time>
      </trkpt>
      <trkpt lat="41.605882675" lon="2.540475948">
        <ele>126.07</ele>
        <time>2013-06-02T12:52:19Z</time>
      </trkpt>
      <trkpt lat="41.605939421" lon="2.540540908">
        <ele>126.07</ele>
        <time>2013-06-02T12:52:22Z</time>
      </trkpt>
      <trkpt lat="41.606248378" lon="2.540656662">
        <ele>127.51</ele>
        <time>2013-06-02T12:52:32Z</time>
      </trkpt>
      <trkpt lat="41.606481646" lon="2.540739559">
        <ele>127.99</ele>
        <time>2013-06-02T12:52:40Z</time>
      </trkpt>
      <trkpt lat="41.606510312" lon="2.540756909">
        <ele>128.47</ele>
        <time>2013-06-02T12:52:41Z</time>
      </trkpt>
      <trkpt lat="41.606586671" lon="2.540986490">
        <ele>129.43</ele>
        <time>2013-06-02T12:52:47Z</time>
      </trkpt>
      <trkpt lat="41.606652469" lon="2.541257979">
        <ele>130.88</ele>
        <time>2013-06-02T12:52:54Z</time>
      </trkpt>
      <trkpt lat="41.606705024" lon="2.541470042">
        <ele>131.84</ele>
        <time>2013-06-02T12:53:00Z</time>
      </trkpt>
      <trkpt lat="41.606761853" lon="2.541717895">
        <ele>133.28</ele>
        <time>2013-06-02T12:53:07Z</time>
      </trkpt>
      <trkpt lat="41.606843661" lon="2.541949822">
        <ele>134.24</ele>
        <time>2013-06-02T12:53:14Z</time>
      </trkpt>
      <trkpt lat="41.606934269" lon="2.542192394">
        <ele>136.16</ele>
        <time>2013-06-02T12:53:22Z</time>
      </trkpt>
      <trkpt lat="41.606985231" lon="2.542302616">
        <ele>136.64</ele>
        <time>2013-06-02T12:53:26Z</time>
      </trkpt>
      <trkpt lat="41.607042815" lon="2.542353830">
        <ele>137.61</ele>
        <time>2013-06-02T12:53:33Z</time>
      </trkpt>
    </trkseg>
  </trk>
</gpx>
